[[{"header":{"parameterUnit":"m.s-1","parameterCategory":1,"la1":30.6,"la2":29.2853,"lo1":-89.7004,"lo2":-87.6739,"dx":0.0162,"dy":0.0183,"nx":112,"ny":82,"refTime":"2022-12-28T18:00:00:Z","depth":0,"parameterNumber":2,"parameterNumberName":"U-component_of_WINDS"},"data":[0.0,0.0,0.0,0.0,0.0,0.0,0.0,0.0,0.0,0.0,0.0,0.0,0.0,0.0,0.0,0.0,0.0,0.0,0.0,0.0,0.0,0.0,0.0,0.0,0.0,0.0,0.0,0.0,0.0,0.0,0.0,0.0,0.0,0.0,0.0,0.0,0.0,0.0,0.0,0.0,0.0,0.0,0.0,0.0,0.0,0.0,0.0,0.0,0.0,0.0,0.0,0.0,0.0,0.0,0.0,0.0,0.0,0.0,0.0,0.0,0.0,0.0,0.0,0.0,0.0,0.0,0.0,0.0,0.0,0.0,0.0,0.0,0.0,0.0,0.0,0.0,0.0,0.0,0.0,0.0,0.0,0.0,0.0,0.0,0.0,0.0,0.0,0.0,0.0,0.0,-5.0319,-5.1193,-5.1294,-5.1294,-5.1294,-5.1291,-5.1051,-5.0441,0.0,0.0,0.0,0.0,0.0,0.0,0.0,0.0,0.0,0.0,0.0,0.0,0.0,0.0,0.0,0.0,0.0,0.0,0.0,0.0,0.0,0.0,0.0,0.0,0.0,0.0,0.0,0.0,0.0,0.0,0.0,0.0,0.0,0.0,0.0,0.0,0.0,0.0,0.0,0.0,0.0,0.0,0.0,0.0,0.0,0.0,0.0,0.0,0.0,0.0,0.0,0.0,0.0,0.0,0.0,0.0,0.0,0.0,0.0,0.0,0.0,0.0,0.0,0.0,0.0,0.0,0.0,0.0,0.0,0.0,0.0,0.0,0.0,0.0,0.0,0.0,0.0,0.0,0.0,0.0,0.0,0.0,0.0,0.0,0.0,0.0,0.0,0.0,0.0,0.0,0.0,0.0,0.0,0.0,0.0,0.0,0.0,0.0,0.0,0.0,0.0,0.0,0.0,0.0,-5.1261,-5.2503,-5.2603,-5.2603,-5.2603,-5.2203,-5.1933,-5.1798,0.0,0.0,0.0,0.0,0.0,0.0,0.0,0.0,0.0,0.0,0.0,0.0,0.0,0.0,0.0,0.0,0.0,0.0,0.0,0.0,0.0,0.0,0.0,0.0,0.0,0.0,0.0,0.0,0.0,0.0,0.0,0.0,0.0,0.0,0.0,0.0,0.0,0.0,0.0,0.0,0.0,0.0,0.0,0.0,0.0,0.0,0.0,0.0,0.0,0.0,0.0,0.0,0.0,0.0,0.0,0.0,0.0,0.0,0.0,0.0,0.0,0.0,0.0,0.0,0.0,0.0,0.0,0.0,0.0,0.0,0.0,0.0,0.0,0.0,0.0,0.0,0.0,0.0,0.0,0.0,0.0,0.0,0.0,0.0,0.0,0.0,0.0,0.0,0.0,0.0,0.0,0.0,0.0,0.0,0.0,0.0,0.0,0.0,0.0,0.0,0.0,0.0,0.0,-5.143,-5.2064,-5.2557,-5.2694,-5.2729,-5.2729,-5.2602,-5.2438,-5.2135,-5.1156,0.0,0.0,0.0,0.0,0.0,0.0,0.0,0.0,0.0,0.0,0.0,0.0,0.0,0.0,0.0,0.0,0.0,0.0,0.0,0.0,0.0,0.0,0.0,0.0,0.0,0.0,0.0,0.0,0.0,0.0,0.0,0.0,0.0,0.0,0.0,0.0,0.0,0.0,0.0,0.0,0.0,0.0,0.0,0.0,0.0,0.0,0.0,0.0,0.0,0.0,0.0,0.0,0.0,0.0,0.0,0.0,0.0,0.0,0.0,0.0,0.0,0.0,0.0,0.0,0.0,0.0,0.0,0.0,0.0,0.0,0.0,0.0,0.0,0.0,0.0,0.0,0.0,0.0,0.0,0.0,0.0,0.0,0.0,0.0,0.0,0.0,0.0,0.0,0.0,0.0,0.0,0.0,0.0,0.0,0.0,0.0,0.0,0.0,0.0,0.0,0.0,0.0,-5.1859,-5.2483,-5.2409,-5.2516,-5.2553,-5.2553,-5.2729,-5.2669,-5.2337,-5.1496,0.0,0.0,0.0,0.0,0.0,0.0,0.0,0.0,0.0,0.0,0.0,0.0,0.0,0.0,0.0,0.0,0.0,0.0,0.0,0.0,0.0,0.0,0.0,0.0,0.0,0.0,0.0,0.0,0.0,0.0,0.0,0.0,0.0,0.0,0.0,0.0,0.0,0.0,0.0,0.0,0.0,0.0,0.0,0.0,0.0,0.0,0.0,0.0,0.0,0.0,0.0,0.0,0.0,0.0,0.0,0.0,0.0,0.0,0.0,0.0,0.0,0.0,0.0,0.0,0.0,0.0,0.0,0.0,0.0,0.0,0.0,0.0,0.0,0.0,0.0,0.0,0.0,0.0,0.0,0.0,0.0,0.0,0.0,0.0,0.0,0.0,0.0,0.0,0.0,0.0,0.0,0.0,0.0,0.0,0.0,0.0,0.0,0.0,0.0,0.0,0.0,0.0,-5.2018,-5.2409,-5.2409,-5.2409,-5.2409,-5.2409,-5.2518,-5.2661,-5.2836,-5.1665,0.0,0.0,0.0,0.0,0.0,0.0,0.0,0.0,0.0,0.0,0.0,0.0,0.0,0.0,0.0,0.0,0.0,0.0,0.0,0.0,0.0,0.0,0.0,0.0,0.0,0.0,0.0,0.0,0.0,0.0,0.0,0.0,0.0,0.0,0.0,0.0,0.0,0.0,0.0,0.0,0.0,0.0,0.0,0.0,0.0,0.0,0.0,0.0,0.0,0.0,0.0,0.0,0.0,0.0,0.0,0.0,0.0,0.0,0.0,0.0,0.0,0.0,0.0,0.0,0.0,0.0,0.0,0.0,0.0,0.0,0.0,0.0,0.0,0.0,0.0,0.0,0.0,0.0,0.0,0.0,0.0,0.0,0.0,0.0,0.0,0.0,0.0,0.0,0.0,0.0,0.0,0.0,0.0,0.0,0.0,0.0,0.0,0.0,0.0,0.0,0.0,0.0,-5.1234,-5.1582,-5.1582,-5.2053,-5.2409,-5.2409,-5.2445,-5.2518,-5.2694,0.0,0.0,0.0,0.0,0.0,0.0,0.0,0.0,0.0,0.0,0.0,0.0,0.0,0.0,0.0,0.0,0.0,0.0,0.0,0.0,0.0,0.0,0.0,0.0,0.0,0.0,0.0,0.0,0.0,0.0,0.0,0.0,0.0,0.0,0.0,0.0,0.0,0.0,0.0,0.0,0.0,0.0,0.0,0.0,0.0,0.0,0.0,0.0,0.0,0.0,0.0,0.0,0.0,0.0,0.0,0.0,0.0,0.0,0.0,0.0,0.0,0.0,0.0,0.0,0.0,0.0,0.0,0.0,0.0,0.0,0.0,0.0,0.0,0.0,0.0,0.0,0.0,0.0,0.0,0.0,0.0,0.0,0.0,0.0,0.0,0.0,0.0,0.0,0.0,0.0,0.0,0.0,0.0,0.0,0.0,0.0,0.0,0.0,0.0,0.0,0.0,0.0,-5.0444,-5.0629,-5.0723,-5.0723,-5.1215,-5.1582,-5.1582,-5.1582,-5.1765,-5.22,0.0,0.0,0.0,0.0,0.0,0.0,0.0,0.0,0.0,0.0,0.0,0.0,0.0,0.0,0.0,0.0,0.0,0.0,0.0,0.0,0.0,0.0,0.0,0.0,0.0,0.0,0.0,0.0,0.0,0.0,0.0,0.0,0.0,0.0,0.0,0.0,0.0,0.0,0.0,0.0,0.0,0.0,0.0,0.0,0.0,0.0,0.0,0.0,0.0,0.0,0.0,0.0,0.0,0.0,0.0,0.0,0.0,0.0,0.0,0.0,0.0,0.0,0.0,0.0,0.0,0.0,0.0,0.0,0.0,0.0,0.0,0.0,0.0,0.0,0.0,0.0,0.0,0.0,0.0,0.0,0.0,0.0,0.0,0.0,0.0,0.0,0.0,0.0,0.0,0.0,0.0,0.0,0.0,0.0,0.0,0.0,0.0,0.0,0.0,0.0,0.0,0.0,-5.094,-5.0345,-4.9765,-4.9765,-4.9805,-4.9805,-4.9805,-4.9805,-5.0236,0.0,0.0,0.0,0.0,0.0,0.0,0.0,0.0,0.0,0.0,0.0,0.0,0.0,0.0,0.0,0.0,0.0,0.0,0.0,0.0,0.0,0.0,0.0,0.0,0.0,0.0,0.0,0.0,0.0,0.0,0.0,0.0,0.0,0.0,0.0,0.0,0.0,0.0,0.0,0.0,0.0,0.0,0.0,0.0,0.0,0.0,0.0,0.0,0.0,0.0,0.0,0.0,0.0,0.0,0.0,0.0,0.0,0.0,0.0,0.0,0.0,0.0,0.0,0.0,0.0,0.0,0.0,0.0,0.0,0.0,0.0,0.0,0.0,0.0,0.0,0.0,0.0,0.0,0.0,0.0,0.0,0.0,0.0,0.0,0.0,0.0,0.0,0.0,0.0,0.0,0.0,0.0,0.0,0.0,0.0,0.0,0.0,0.0,0.0,0.0,0.0,0.0,0.0,-5.0037,-4.9479,-4.8953,-4.8953,-4.9447,-4.9805,-4.9805,-4.9805,-4.9923,-5.0236,0.0,0.0,0.0,0.0,0.0,0.0,0.0,0.0,0.0,0.0,0.0,0.0,0.0,0.0,0.0,0.0,0.0,0.0,0.0,0.0,0.0,0.0,0.0,0.0,0.0,0.0,0.0,0.0,0.0,0.0,0.0,0.0,0.0,0.0,0.0,0.0,0.0,0.0,0.0,0.0,0.0,0.0,0.0,0.0,0.0,0.0,0.0,0.0,0.0,0.0,0.0,0.0,0.0,0.0,0.0,0.0,0.0,0.0,0.0,0.0,0.0,0.0,0.0,0.0,0.0,0.0,0.0,0.0,0.0,0.0,0.0,0.0,0.0,0.0,0.0,0.0,0.0,0.0,0.0,0.0,0.0,0.0,0.0,0.0,0.0,0.0,0.0,0.0,0.0,0.0,0.0,0.0,0.0,0.0,0.0,0.0,0.0,0.0,0.0,0.0,0.0,0.0,-4.9202,-4.8615,-4.8103,-4.8103,-4.8532,-4.879,-4.879,-4.879,-4.8953,-4.9318,0.0,0.0,0.0,0.0,0.0,0.0,0.0,0.0,0.0,0.0,0.0,0.0,0.0,0.0,0.0,0.0,0.0,0.0,0.0,0.0,0.0,0.0,0.0,0.0,0.0,0.0,0.0,0.0,0.0,0.0,0.0,0.0,0.0,0.0,0.0,0.0,0.0,0.0,0.0,0.0,0.0,0.0,0.0,0.0,0.0,0.0,0.0,0.0,0.0,0.0,0.0,0.0,0.0,0.0,0.0,0.0,0.0,0.0,0.0,0.0,0.0,0.0,0.0,0.0,0.0,0.0,0.0,0.0,0.0,0.0,0.0,0.0,0.0,0.0,0.0,0.0,0.0,0.0,0.0,0.0,0.0,0.0,0.0,0.0,0.0,0.0,0.0,0.0,0.0,0.0,0.0,0.0,0.0,0.0,0.0,0.0,0.0,0.0,0.0,0.0,0.0,0.0,-4.8522,-4.7867,-4.7399,-4.7399,-4.7459,-4.7489,-4.7489,-4.7489,-4.7774,-4.8541,0.0,0.0,0.0,0.0,0.0,0.0,0.0,0.0,0.0,0.0,0.0,0.0,0.0,0.0,0.0,0.0,0.0,0.0,0.0,0.0,0.0,0.0,0.0,0.0,0.0,0.0,0.0,0.0,0.0,0.0,0.0,0.0,0.0,0.0,0.0,0.0,0.0,0.0,0.0,0.0,0.0,0.0,0.0,0.0,0.0,0.0,0.0,0.0,0.0,0.0,0.0,0.0,0.0,0.0,0.0,0.0,0.0,0.0,0.0,0.0,-5.2334,-5.2063,0.0,0.0,0.0,0.0,0.0,0.0,0.0,0.0,0.0,0.0,0.0,0.0,0.0,0.0,0.0,0.0,0.0,0.0,0.0,0.0,0.0,0.0,0.0,0.0,0.0,0.0,0.0,0.0,0.0,0.0,0.0,0.0,0.0,0.0,0.0,0.0,0.0,0.0,0.0,0.0,-4.8522,-4.8304,-4.8087,-4.8087,-4.8536,-4.888,-4.888,-4.888,-4.8715,-4.8394,-4.895,0.0,0.0,0.0,0.0,0.0,0.0,0.0,0.0,0.0,0.0,0.0,0.0,0.0,0.0,0.0,0.0,0.0,0.0,0.0,0.0,0.0,0.0,0.0,0.0,0.0,0.0,0.0,0.0,0.0,0.0,0.0,0.0,0.0,0.0,0.0,0.0,0.0,0.0,0.0,0.0,0.0,0.0,0.0,0.0,0.0,0.0,0.0,0.0,0.0,0.0,0.0,0.0,0.0,0.0,0.0,0.0,0.0,0.0,0.0,-5.3078,-5.2875,0.0,0.0,0.0,0.0,0.0,0.0,0.0,0.0,0.0,0.0,0.0,0.0,0.0,0.0,0.0,0.0,0.0,0.0,0.0,0.0,0.0,0.0,0.0,0.0,0.0,0.0,0.0,0.0,0.0,0.0,0.0,0.0,0.0,0.0,0.0,0.0,0.0,0.0,0.0,0.0,-4.8402,-4.8635,-4.879,-4.879,-4.912,-4.9299,-4.9299,-4.9299,-4.9179,-4.882,-4.8857,0.0,0.0,0.0,0.0,0.0,0.0,0.0,0.0,0.0,0.0,0.0,0.0,0.0,0.0,0.0,0.0,0.0,0.0,0.0,0.0,0.0,0.0,0.0,0.0,0.0,0.0,0.0,0.0,0.0,0.0,0.0,0.0,0.0,0.0,0.0,0.0,0.0,0.0,0.0,0.0,0.0,0.0,0.0,0.0,0.0,0.0,0.0,0.0,0.0,0.0,0.0,0.0,0.0,-5.3518,-5.3585,-5.3687,-5.3551,-5.3585,-5.3687,-5.3551,-5.3416,-5.328,-5.328,0.0,0.0,0.0,0.0,0.0,0.0,0.0,0.0,0.0,0.0,0.0,0.0,0.0,0.0,0.0,0.0,0.0,0.0,0.0,0.0,0.0,0.0,-4.6781,-4.6651,-4.661,-4.6741,-4.7316,0.0,0.0,0.0,0.0,0.0,0.0,0.0,0.0,0.0,0.0,0.0,-4.8446,-4.9045,-4.9434,-4.9434,-4.9523,-4.9613,-4.9613,-4.9613,-4.9553,-4.9434,-4.8925,-4.8536,0.0,0.0,0.0,0.0,0.0,0.0,0.0,0.0,0.0,0.0,0.0,0.0,0.0,0.0,0.0,0.0,0.0,0.0,0.0,0.0,0.0,0.0,0.0,0.0,0.0,0.0,0.0,0.0,0.0,0.0,0.0,0.0,-5.328,-5.3348,0.0,0.0,0.0,0.0,0.0,0.0,0.0,0.0,0.0,0.0,0.0,0.0,0.0,-5.3518,-5.3518,-5.3518,-5.3518,-5.3518,-5.3518,-5.3822,-5.4431,-5.3788,-5.3856,-5.4397,-5.3788,0.0,-5.2449,-5.2449,0.0,0.0,0.0,0.0,0.0,0.0,0.0,0.0,0.0,0.0,0.0,0.0,0.0,0.0,0.0,0.0,0.0,0.0,0.0,0.0,0.0,0.0,-4.7817,-4.7775,-4.7775,-4.7733,-4.7607,-4.6822,-4.6082,-4.592,-4.6199,-4.6467,0.0,0.0,0.0,0.0,0.0,0.0,-4.912,-4.9703,-5.0076,-5.0076,-5.0631,-5.096,-5.096,-5.096,-5.072,-5.0106,-4.9986,-4.9464,-4.8327,-4.8207,0.0,0.0,0.0,0.0,0.0,0.0,0.0,0.0,0.0,0.0,0.0,0.0,0.0,0.0,0.0,0.0,0.0,0.0,0.0,0.0,0.0,0.0,0.0,0.0,0.0,0.0,0.0,0.0,0.0,-5.3281,-5.3518,-5.3518,-5.3518,-5.3518,0.0,0.0,0.0,0.0,0.0,0.0,0.0,0.0,0.0,-5.4126,-5.4532,-5.4735,-5.4735,-5.4735,-5.4735,-5.4735,-5.4735,-5.4905,-5.5209,-5.4905,-5.4938,-5.5174,-5.4382,-5.3536,-5.2768,-5.2458,-5.2307,-5.2272,0.0,0.0,0.0,0.0,-5.1623,-5.148,-5.0691,-5.0192,-4.9821,-4.9323,0.0,0.0,0.0,0.0,0.0,0.0,0.0,-4.7843,-4.7843,-4.7962,-4.8055,-4.8248,-4.8369,-4.8373,-4.8547,-4.8156,-4.7568,-4.6816,-4.7152,-4.7559,-4.7559,-4.8055,0.0,0.0,0.0,-4.9494,-4.9793,-5.069,-5.1349,-5.1349,-5.1917,-5.2306,-5.2306,-5.2306,-5.2037,-5.1379,-5.0943,-5.0315,-4.9434,-4.8686,-4.8027,0.0,0.0,0.0,0.0,0.0,0.0,0.0,0.0,0.0,0.0,0.0,0.0,0.0,0.0,0.0,0.0,0.0,0.0,0.0,0.0,0.0,0.0,0.0,0.0,0.0,0.0,0.0,0.0,-5.3518,-5.3518,-5.3518,-5.3518,-5.3518,0.0,0.0,0.0,0.0,0.0,0.0,-5.4059,-5.46,-5.4871,-5.4871,-5.5412,-5.5681,-5.5681,-5.5681,-5.5681,-5.5681,-5.5681,-5.5818,-5.5987,-5.5818,-5.5783,-5.5952,-5.5074,-5.4274,-5.3421,-5.2567,-5.2216,-5.2142,-5.1544,-5.143,-5.1582,-5.1391,-5.1315,-5.1167,-5.0216,-4.9833,-4.9721,-4.8872,-4.8604,-4.8666,-4.882,0.0,0.0,0.0,0.0,-4.8621,-4.8621,-4.848,-4.8386,-4.8725,-4.8802,-4.8878,-4.9209,-4.9299,-4.903,-4.7997,-4.8207,-4.858,-4.858,-4.9,0.0,-4.9494,-5.0062,-5.0495,-5.0674,-5.1738,-5.2456,-5.2456,-5.2875,-5.3174,-5.3174,-5.3174,-5.2965,-5.2486,-5.1828,-5.1169,-5.0465,-4.9404,-4.8716,-4.8536,0.0,0.0,0.0,0.0,0.0,0.0,0.0,0.0,0.0,0.0,0.0,0.0,0.0,0.0,0.0,0.0,0.0,0.0,0.0,0.0,0.0,0.0,0.0,0.0,0.0,0.0,0.0,0.0,0.0,-5.3518,-5.3518,0.0,0.0,0.0,0.0,-5.4532,-5.5209,-5.5615,-5.5615,-5.5649,-5.5649,-5.5649,-5.5647,-5.5681,-5.5681,-5.5681,-5.5681,-5.5681,-5.5681,-5.6089,-5.6731,-5.6021,-5.6089,-5.6697,-5.5986,-5.5116,-5.4204,-5.2589,-5.191,-5.191,-5.1869,-5.2356,-5.2921,-5.2154,-5.1869,-5.1651,-5.0215,-4.9704,-4.9612,-4.885,-4.8604,-4.8758,-4.9435,-4.945,0.0,0.0,-4.9891,-4.9537,-4.9537,-4.9389,-4.9209,-4.9239,-4.9269,-4.9269,-4.9299,-4.9299,-4.9299,-4.9209,-4.9239,-4.9269,-4.9269,0.0,-4.9464,-5.0046,-5.0704,-5.1379,-5.2007,-5.2695,-5.3144,-5.3144,-5.3144,-5.3174,-5.3174,-5.3174,-5.3174,-5.3144,-5.2516,-5.1858,-5.1199,-5.0465,-4.9853,-4.9269,-4.8536,0.0,0.0,0.0,0.0,0.0,0.0,0.0,0.0,0.0,0.0,0.0,0.0,0.0,0.0,0.0,0.0,0.0,0.0,0.0,0.0,0.0,0.0,0.0,0.0,0.0,0.0,0.0,0.0,-5.416,-5.4194,0.0,-5.4871,-5.5175,-5.531,-5.531,-5.5581,-5.5681,-5.5681,-5.6156,-5.6427,-5.6427,-5.6867,-5.7103,-5.7103,-5.7103,-5.7103,-5.7103,-5.7103,-5.6985,-5.6667,-5.64,-5.6098,-5.5797,-5.4984,-5.4414,-5.4049,-5.2899,-5.2227,-5.1871,-5.1318,-5.1318,-5.1529,-5.1234,-5.1138,-5.1033,-5.0549,-5.0328,-5.0297,-5.0051,-4.9959,-4.9989,-5.0266,-5.0156,-5.0013,-5.0227,-4.9938,-4.9613,-4.9613,-4.9434,-4.9419,-4.9793,-5.0212,-5.0631,-5.105,-5.1498,-5.1845,-5.1845,-5.075,-4.9883,-4.9883,-5.0601,-5.1229,-5.1468,-5.2067,-5.2576,-5.2785,-5.3414,-5.3832,-5.3832,-5.4221,-5.4461,-5.4461,-5.4461,-5.4281,-5.3862,-5.3623,-5.2995,-5.1887,-5.1229,-5.0571,-4.9912,-4.9254,-4.897,0.0,0.0,0.0,0.0,0.0,0.0,0.0,0.0,0.0,0.0,0.0,0.0,0.0,0.0,0.0,0.0,0.0,0.0,0.0,0.0,0.0,0.0,0.0,0.0,0.0,-5.3856,-5.4126,-5.4871,-5.4972,-5.5175,-5.5683,-5.5953,-5.6089,-5.6089,-5.6325,-5.6461,-5.6461,-5.7137,-5.7543,-5.7543,-5.8254,-5.8626,-5.8626,-5.8626,-5.8626,-5.8626,-5.8626,-5.8366,-5.7802,-5.7802,-5.7303,-5.6434,-5.5827,-5.5272,-5.4628,-5.4033,-5.3414,-5.2746,-5.1747,-5.1374,-5.1374,-5.1374,-5.1374,-5.1344,-5.1128,-5.0882,-5.0697,-5.0697,-5.0697,-5.0728,-5.0974,-5.0831,-5.0747,-5.1117,-5.0925,-5.0622,-5.0787,-5.0709,-5.0737,-5.1139,-5.1558,-5.2007,-5.2426,-5.2875,-5.3174,-5.3174,-5.2127,-5.1229,-5.1229,-5.1947,-5.2546,-5.2546,-5.3114,-5.3533,-5.3533,-5.4132,-5.4551,-5.4551,-5.494,-5.5179,-5.5179,-5.5179,-5.4999,-5.4581,-5.4341,-5.3803,-5.2905,-5.2247,-5.1558,-5.0853,-5.0032,-4.9494,-4.9299,0.0,0.0,0.0,0.0,0.0,0.0,0.0,0.0,0.0,0.0,0.0,0.0,0.0,0.0,0.0,0.0,0.0,0.0,0.0,0.0,0.0,0.0,0.0,-5.4634,-5.4634,-5.4905,-5.5649,-5.5715,-5.575,-5.5749,-5.6461,-5.6867,-5.6867,-5.7543,-5.7949,-5.7949,-5.866,-5.9032,-5.9032,-5.9742,-6.0114,-6.0114,-6.0114,-6.0114,-6.0114,-6.0114,-6.0114,-6.0042,-6.0005,-5.951,-5.8646,-5.8606,-5.7586,-5.5973,-5.5973,-5.5465,-5.456,-5.3283,-5.276,-5.276,-5.276,-5.276,-5.2698,-5.2021,-5.1374,-5.082,-5.082,-5.082,-5.0944,-5.159,-5.1598,-5.1619,-5.2686,-5.2846,-5.2713,-5.3121,-5.3174,-5.3174,-5.3174,-5.3204,-5.3204,-5.3204,-5.3234,-5.3234,-5.3234,-5.3234,-5.3234,-5.3204,-5.3204,-5.3204,-5.3204,-5.3803,0.0,-5.4251,-5.479,-5.5179,-5.5179,-5.5179,-5.5179,-5.5179,-5.5179,-5.5179,-5.5179,-5.4581,-5.4221,-5.4221,-5.3563,-5.2905,-5.2247,-5.0913,-4.9972,-4.9359,0.0,0.0,0.0,0.0,0.0,0.0,0.0,0.0,0.0,0.0,0.0,0.0,0.0,0.0,0.0,0.0,0.0,0.0,0.0,0.0,0.0,-5.5412,-5.5412,-5.5412,-5.5412,-5.5683,-5.6427,-5.6494,-5.6697,-5.7239,-5.7983,-5.8423,-5.8423,-5.9099,-5.9505,-5.9505,-5.9674,-5.981,-5.981,-5.9979,-6.0114,-6.0114,-6.0114,-6.0114,-6.0114,-6.0114,-5.9775,-5.9158,-5.8452,-5.7669,-5.6776,-5.6107,-5.5542,-5.507,-5.507,-5.4931,-5.4652,-5.4283,-5.4129,-5.4129,-5.4129,-5.4129,-5.4099,-5.3914,-5.3775,-5.3622,-5.3622,-5.3622,-5.3607,-5.3576,-5.3406,-5.3263,-5.3421,-5.3224,-5.3061,-5.3193,-5.3174,-5.3174,-5.3174,-5.3563,-5.3922,-5.3922,-5.4311,-5.464,-5.464,-5.464,-5.4341,-5.3354,-5.3593,-5.3922,-5.3922,-5.4491,-5.491,-5.491,-5.5089,-5.5179,-5.5179,-5.5179,-5.5179,-5.5179,-5.5179,-5.5179,-5.5179,-5.5029,-5.47,-5.4221,-5.4012,-5.3593,-5.2935,-5.2097,-5.1349,0.0,0.0,0.0,0.0,0.0,0.0,0.0,0.0,0.0,0.0,0.0,0.0,0.0,0.0,0.0,0.0,0.0,0.0,0.0,0.0,0.0,0.0,-5.6156,-5.6393,-5.7002,-5.6562,-5.6562,-5.7611,-5.7712,-5.8017,-5.8761,-5.9201,-5.9471,-5.9471,-5.9877,-6.0114,-6.0114,-6.0419,-6.0588,-6.0588,-6.0892,-6.1061,-6.1061,-6.1061,-6.1061,-6.1061,-6.1061,-6.0796,-6.0291,-5.9735,-5.9002,-5.8109,-5.7172,-5.6555,-5.6171,-5.575,-5.5592,-5.553,0.0,0.0,0.0,0.0,-5.4683,-5.4683,-5.4683,-5.4683,-5.4683,-5.4683,-5.4683,-5.4683,-5.4512,-5.4402,-5.4274,-5.4165,-5.4032,-5.3946,-5.4001,-5.4012,-5.4012,-5.4012,-5.4341,-5.461,-5.461,-5.491,-5.5179,-5.5179,-5.5179,0.0,-5.4162,-5.4341,-5.461,-5.461,-5.494,-5.5179,-5.5179,-5.5179,-5.5179,-5.5179,-5.5179,-5.5179,-5.5179,-5.5179,0.0,0.0,0.0,-5.5029,-5.464,-5.4371,0.0,0.0,0.0,-5.2426,-5.2037,-5.1648,0.0,0.0,-4.9659,-4.9224,0.0,0.0,0.0,0.0,0.0,0.0,0.0,0.0,0.0,0.0,0.0,0.0,0.0,0.0,0.0,0.0,-5.7137,-5.7645,-5.8964,-5.8017,-5.7679,-5.8998,-5.9133,-5.9404,-6.0047,-6.0182,-6.025,-6.025,-6.0317,-6.0351,-6.0351,-6.1028,0.0,0.0,0.0,-6.2381,-6.2381,-6.2381,-6.2381,-6.2381,-6.2381,-6.2381,-6.2381,-6.2302,-6.179,-6.0945,-5.9925,-5.8953,-5.8119,-5.7163,-5.681,-5.6686,-5.5438,-5.4976,-5.4976,-5.4976,-5.4976,-5.4976,-5.4976,0.0,0.0,-5.4976,-5.4976,-5.4929,-5.4898,-5.4851,-5.488,-5.5031,-5.5038,-5.5043,-5.523,-5.5289,-5.5349,-5.5299,-5.5359,-5.5388,-5.5388,-5.5388,-5.5388,-5.5388,-5.5359,-5.5299,-5.5299,-5.5239,-5.5179,-5.5179,-5.5179,-5.5179,-5.5179,-5.5179,-5.5179,-5.5179,-5.5179,0.0,-5.5179,-5.5179,-5.5179,-5.5179,-5.5179,-5.5179,-5.5179,-5.464,-5.4311,-5.4311,-5.3653,-5.3294,-5.3294,-5.3204,-5.3174,-5.3114,-5.0827,-5.0032,0.0,0.0,0.0,0.0,0.0,0.0,0.0,0.0,0.0,0.0,0.0,0.0,0.0,0.0,0.0,-5.8457,-5.9066,-5.9573,-5.9844,-5.9641,-5.9573,-5.9844,-5.9877,-5.9945,-6.008,-6.0689,-6.1061,-6.1061,-6.1603,-6.1941,-6.1941,-6.2076,-6.2178,-6.2178,-6.2313,-6.2381,-6.2381,-6.2381,-6.2381,-6.2381,-6.2381,0.0,-6.2381,-6.1595,-6.1152,-6.0903,-5.9222,-5.8395,-5.8119,-5.7163,-5.681,-5.6779,-5.6532,-5.6361,-5.6361,-5.6361,-5.6361,-5.6361,-5.6361,-5.6361,-5.6361,-5.6361,-5.6361,-5.6361,-5.612,-5.6072,0.0,-5.5834,-5.5766,-5.5747,-5.5551,-5.5922,-5.6293,-5.6089,-5.6376,-5.6735,-5.6735,-5.6735,-5.6735,-5.6735,-5.6316,-5.5987,-5.5987,-5.5538,-5.5179,-5.5179,-5.5179,-5.5179,-5.5179,-5.5179,-5.5179,-5.5179,-5.5179,-5.5179,-5.5179,-5.5179,-5.5179,-5.5179,-5.5179,-5.5179,-5.5179,-5.5059,-5.4999,-5.4999,-5.4341,-5.4012,-5.4012,-5.3443,-5.3174,-5.3174,-5.2665,-5.2486,0.0,0.0,0.0,0.0,0.0,0.0,0.0,0.0,0.0,0.0,0.0,-5.7577,-5.8321,0.0,-5.9133,-5.9505,-5.9877,-6.025,-6.0655,-6.0689,-6.0689,-6.0689,-6.0689,-6.0858,-6.1197,-6.1603,-6.1839,-6.1839,-6.2178,-6.2381,-6.2381,-6.2381,-6.2381,-6.2381,-6.2753,-6.2956,-6.2956,-6.3328,-6.3497,-6.3497,-6.3497,-6.3497,-6.3497,-6.3019,-6.2781,-6.2739,-6.1317,-6.0432,-5.9841,-5.8397,-5.7826,-5.7826,-5.7826,-5.7395,-5.681,-5.681,-5.681,-5.681,-5.681,-5.681,-5.681,-5.681,-5.681,-5.6761,-5.6664,-5.6861,-5.7009,-5.6762,-5.6957,-5.7131,-5.6728,-5.6868,-5.7007,-5.6749,-5.6885,-5.7094,-5.7094,-5.7094,-5.7094,-5.7094,-5.6855,-5.6645,-5.6645,-5.6346,-5.5927,-5.5299,-5.5478,-5.5688,-5.5688,-5.5957,-5.6137,-5.6137,-5.6137,-5.6137,-5.6137,-5.5867,-5.5688,-5.5688,-5.5388,-5.5179,-5.5179,-5.5179,-5.5158,-5.5006,-5.4678,-5.4449,-5.4268,-5.4092,-5.3993,-5.3993,-5.4142,-5.3832,0.0,0.0,0.0,0.0,0.0,0.0,0.0,-5.7036,-5.7611,-5.8186,-5.8795,-5.9404,-5.9979,-6.0216,-6.0317,-6.0317,-6.0452,-6.0757,-6.1434,-6.1637,-6.1738,-6.1738,-6.1603,-6.1738,-6.2347,-6.2381,-6.2448,-6.2584,-6.2618,-6.2685,-6.2821,-6.2821,-6.2821,-6.2821,-6.3396,-6.3734,-6.3734,-6.4309,-6.4613,-6.4613,-6.4613,-6.4613,-6.4613,-6.4613,-6.4613,-6.4539,-6.3387,-6.2353,-6.128,-5.9523,-5.8793,-5.8793,-5.8793,-5.8165,-5.721,-5.721,-5.721,-5.721,-5.721,-5.721,-5.721,-5.721,-5.721,-5.721,-5.721,-5.758,-5.7912,-5.7664,-5.7962,-5.8258,-5.7695,-5.7661,-5.7699,-5.7356,-5.7393,-5.7483,-5.7483,-5.7483,-5.7483,-5.7483,-5.7393,-5.7304,-5.7304,-5.7184,-5.6735,-5.5718,-5.6017,-5.6346,-5.6346,-5.6795,-5.7094,-5.7094,-5.7094,-5.7094,-5.7094,-5.6645,-5.6346,-5.6346,-5.5867,-5.5508,-5.5388,-5.5388,-5.5227,-5.4803,-5.4803,-5.4619,-5.4304,-5.4539,-5.4671,-5.4722,-5.4976,-5.456,-6.1163,-6.0371,-5.97,-5.9624,-5.9607,-5.9607,0.0,-5.9674,-5.9742,-5.9844,-5.9911,-6.0013,-6.008,-6.0689,-6.1163,-6.1163,-6.1704,-6.2144,-6.2245,-6.2854,-6.326,-6.326,-6.2685,-6.2313,-6.2381,-6.2381,-6.2651,-6.3328,-6.3396,-6.3666,-6.4309,-6.4343,-6.4343,-6.4343,-6.4444,-6.4478,-6.4478,-6.4546,-6.4613,-6.4613,-6.4613,-6.4613,-6.4613,-6.4613,-6.4613,-6.4498,-6.2629,-6.1326,-6.0377,-5.9228,-5.8793,-5.8793,-5.8793,-5.8701,-5.8547,-5.8547,-5.8547,-5.8547,-5.8547,-5.8547,-5.8547,-5.8547,-5.8547,-5.8547,-5.8547,-5.8608,-5.862,-5.8368,-5.8349,-5.8258,-5.7643,-5.794,-5.8309,-5.8045,-5.8441,-5.889,-5.889,-5.889,-5.889,-5.889,-5.8411,-5.8022,-5.8022,-5.7483,-5.7034,-5.6915,-5.6944,-5.7004,-5.7004,-5.7064,-5.7094,-5.7094,-5.7094,-5.7094,-5.7094,-5.7034,-5.7004,-5.7004,-5.6915,-5.6645,-5.6077,-5.6128,-5.5675,-5.4803,-5.4803,-5.4619,-5.4304,-5.4355,-5.4355,-5.4355,-5.4671,-5.4866,-6.2451,-6.1803,-6.1258,-6.0316,-6.0114,-6.0114,-6.0114,-6.0114,-6.0216,-6.0689,-6.0791,-6.0926,-6.1366,-6.1704,-6.2076,-6.2516,-6.2854,-6.3193,-6.3599,-6.3937,-6.414,-6.414,-6.3869,-6.3666,-6.3666,-6.3666,-6.3802,-6.414,-6.414,-6.4275,-6.458,-6.4613,-6.4613,-6.4613,-6.5019,-6.5222,-6.5222,-6.5662,-6.5899,-6.5899,-6.5899,-6.5899,-6.5899,-6.5899,-6.5899,-6.5782,-6.4399,-6.3563,-6.3107,-6.1483,-6.0858,-6.0808,-6.0186,-5.9963,-5.987,-5.907,-5.8793,-5.8793,-5.8793,-5.8793,-5.8793,-5.8793,-5.8793,-5.8793,-5.8793,-5.907,-5.9378,-5.9276,-5.94,-5.95,-5.9031,-5.9032,-5.9001,-5.8764,-5.8919,-5.9099,-5.9099,-5.9099,-5.9099,-5.9099,-5.889,-5.871,-5.871,-5.8471,-5.8261,-5.8261,-5.7932,-5.7693,-5.7693,-5.8022,-5.8261,-5.8261,-5.8261,-5.8261,-5.8261,-5.7902,-5.7693,-5.7693,-5.7304,-5.6974,-5.6705,-5.6705,-5.6482,-5.5902,-5.5745,-5.5535,-5.5242,-5.5401,-5.5453,-5.5453,-5.5924,-5.6213,-6.336,-6.2793,-6.2229,-6.1037,-6.0723,-6.0723,-6.0723,-6.0723,-6.0892,-6.1467,-6.1772,-6.2076,-6.2584,-6.2854,-6.3193,-6.3734,-6.3802,-6.4005,-6.4512,-6.4783,-6.4884,-6.4884,-6.5087,-6.5222,-6.5222,-6.485,-6.4681,-6.4884,-6.4884,-6.4986,-6.5189,-6.5222,-6.5222,-6.5222,-6.573,-6.6,-6.6,-6.6542,-6.6812,-6.6812,-6.6812,-6.6812,-6.6812,-6.6812,-6.6812,-6.6728,-6.5724,-6.5293,-6.5159,-6.3419,-6.2729,-6.2632,-6.1922,-6.145,-6.1102,-6.0109,-5.9568,-5.9347,-5.9347,-5.9347,-5.9347,-5.9347,-5.9347,-5.9347,-5.9347,-5.9686,-6.0055,-5.9952,-6.0166,-6.0324,-6.0039,-5.9827,-5.9583,-5.9261,-5.9207,-5.9207,-5.9099,-5.9099,-5.9099,-5.9099,-5.9099,-5.9099,-5.9099,-5.9099,-5.9099,-5.9099,-5.871,-5.8411,-5.8411,-5.88,-5.9099,-5.9099,-5.9099,-5.9099,-5.9099,-5.865,-5.8411,-5.8411,-5.7932,-5.7573,-5.7393,-5.7393,-5.7146,-5.6704,-5.6492,-5.6225,-5.5933,-5.6065,-5.6118,-5.6065,-5.6515,-5.6816,-6.3811,-6.3166,-6.2535,-6.2382,-6.2313,-6.2313,-6.2313,-6.2313,-6.2313,-6.2347,-6.2956,-6.3463,-6.3463,-6.4072,-6.4546,-6.4546,-6.458,-6.458,-6.4613,-6.5222,-6.5662,-6.5662,-6.6305,-6.6745,-6.6745,-6.5459,-6.4884,-6.5595,-6.5662,-6.5967,-6.6711,-6.6745,-6.6745,-6.6745,-6.6779,-6.6779,-6.6779,-6.6812,-6.6812,-6.6812,-6.6812,-6.6812,-6.6812,-6.6812,-6.6812,-6.6728,-6.5724,-6.5293,-6.5204,-6.417,-6.375,-6.375,-6.375,-6.3084,-6.227,-6.2238,-6.1589,-6.0732,-6.0732,-6.0732,-6.0732,-6.0732,-6.0732,-6.0732,-6.0732,-6.0763,-6.0711,-6.0451,-6.0429,-6.0324,-6.0039,-6.0016,-5.988,-5.9583,-5.9476,-5.9422,-5.9153,-5.9099,-5.9099,-5.9099,-5.9099,-5.9099,-5.9099,-5.9099,-5.9099,-5.9099,-5.9099,-5.9069,-5.9069,-5.9099,-5.9099,-5.9099,-5.9099,-5.9099,-5.9099,-5.9099,-5.9069,-5.9069,-5.9069,-5.877,-5.8112,-5.8082,-5.7623,-5.6704,-5.6674,-5.6439,-5.5933,-5.5933,-5.5742,-5.5416,-5.5713,-5.6172,-6.6207,-6.5914,-6.5561,-6.4845,-6.4672,-6.4667,-6.4667,-6.4239,-6.3869,-6.3869,-6.4072,-6.4241,-6.4241,-6.4444,-6.4749,-6.5256,-6.5324,-6.5493,-6.6,-6.6271,-6.644,-6.644,-6.6643,-6.6812,-6.6812,-6.6373,-6.617,-6.6406,-6.644,-6.6542,-6.6812,-6.6812,-6.6812,-6.6812,-6.6812,-6.6812,-6.6812,-6.6812,-6.6812,-6.6812,-6.6812,-6.6812,-6.6812,-6.6812,-6.6812,-6.677,-6.644,-6.6311,-6.6192,-6.5204,-6.4766,-6.472,-6.4077,-6.318,-6.2319,-6.2319,-6.1652,-6.0794,-6.0794,-6.0794,-6.0794,-6.0794,-6.0794,-6.0794,-6.0794,-6.0794,-6.0794,-6.069,-6.0534,-6.0377,-6.0302,-6.0144,-5.9963,-5.988,-5.9827,-5.9773,-5.9422,-5.9369,-5.9315,-5.9153,-5.9099,-5.9099,-5.9099,-5.9099,-5.9099,-5.9099,-5.9099,-5.9099,-5.9099,-5.9099,-5.9099,-5.9099,-5.9099,-5.9099,-5.9099,-5.9099,-5.9099,-5.9099,-5.9099,-5.9009,-5.877,-5.877,-5.8596,-5.828,-5.8118,-5.7956,-5.7739,-5.7521,-5.7382,-5.7273,-5.7576,-5.7858,-6.7608,-6.7554,-6.7518,-6.6527,-6.6282,-6.6227,-6.6227,-6.5849,-6.5382,-6.5068,-6.5267,-6.5317,-6.5067,-6.5222,-6.5561,-6.6,-6.6102,-6.6271,-6.6745,-6.6812,-6.6812,-6.6812,-6.6812,-6.6812,-6.6812,-6.6812,-6.6812,-6.6812,-6.6812,-6.6812,-6.6812,-6.6812,-6.6812,-6.6812,-6.6812,-6.6812,-6.6812,-6.6812,-6.6812,-6.6812,-6.6812,-6.6812,-6.6812,-6.6812,-6.6812,-6.6812,-6.6812,-6.6812,-6.677,-6.6105,-6.5811,-6.5767,-6.5114,-6.4262,-6.3371,-6.3371,-6.2729,-6.1772,-6.1021,-6.0794,-6.0794,-6.0794,-6.0794,-6.0794,-6.0794,-6.0794,-6.0794,-6.0794,-6.069,-6.0534,-6.0534,-6.0407,-6.025,-6.0144,-6.0144,-6.0039,-5.9583,-5.9529,-5.9422,-5.9153,-5.9099,-5.9099,-5.9099,-5.9099,-5.9099,-5.9099,-5.9099,-5.9099,-5.9099,-5.9099,-5.9099,-5.9099,-5.9099,-5.9099,-5.9099,-5.9099,-5.9099,-5.9099,-5.9099,-5.9099,-5.9099,-5.9099,-5.9099,-5.9099,-5.8936,-5.8803,-5.8694,-5.85,-5.8335,-5.8195,-5.8445,-5.85,-6.8222,-6.8213,-6.8439,-6.7612,-6.727,-6.72,-6.72,-6.713,-6.688,-6.6142,-6.6505,-6.6711,-6.5977,-6.638,-6.6812,-6.6812,-6.6812,-6.6812,-6.6812,-6.6812,-6.6812,-6.6812,-6.6812,-6.6812,-6.6812,-6.6812,-6.6812,-6.6812,-6.6812,-6.6812,-6.6812,-6.6812,-6.6812,-6.6812,-6.6812,-6.6812,-6.6812,-6.6812,-6.6812,-6.6812,-6.6812,-6.6812,-6.6812,-6.6812,-6.6812,-6.6812,-6.6812,-6.6812,-6.6812,-6.6812,-6.6812,-6.6812,-6.6812,-6.6192,-6.5293,-6.5293,-6.4675,-6.3514,-6.1602,-6.0949,-6.0845,-6.0794,-6.0794,-6.0794,-6.0794,-6.0794,-6.0794,-6.0794,-6.0794,-6.0794,-6.0794,-6.0794,-6.0742,-6.0481,-6.0429,-6.0272,-5.969,-5.9529,-5.9476,-5.9153,-5.9099,-5.9099,-5.9099,-5.9099,-5.9099,-5.9099,-5.9099,-5.9099,-5.9099,-5.9099,-5.9099,-5.9099,-5.9099,-5.9099,-5.9099,-5.9099,-5.9099,-5.9099,-5.9099,-5.9099,-5.9099,-5.9099,-5.9099,-5.9099,-5.9099,-5.8936,-5.8748,-5.8694,-5.8555,-5.8195,-5.8195,-5.8195,-7.0208,-7.0347,-7.0374,-6.9968,-6.9897,-6.9866,-6.9695,-6.9211,-6.8713,-6.842,-6.7992,-6.766,-6.7461,-6.71,-6.6812,-6.6812,-6.6812,-6.6812,-6.6812,-6.6812,-6.6812,-6.6812,-6.6812,-6.6812,-6.6812,-6.6812,-6.6812,-6.6812,-6.6812,-6.6812,-6.6812,-6.6812,-6.6812,-6.6812,-6.6812,-6.6812,-6.6812,-6.6812,-6.6812,-6.6812,-6.6812,-6.6812,-6.6812,-6.6812,-6.6812,-6.6812,-6.6812,-6.6812,-6.6812,-6.6812,-6.6812,-6.6812,-6.6812,-6.6192,-6.5293,-6.5293,-6.4675,-6.375,-6.3228,-6.2534,-6.1803,-6.1021,-6.0794,-6.0794,-6.0794,-6.0794,-6.0794,-6.0794,-6.0794,-6.0794,-6.0794,-6.0794,-6.0794,-6.069,-6.069,-6.0586,-6.0272,-6.0039,-5.9773,-5.9476,-5.9261,-5.9099,-5.9099,-5.9099,-5.9099,-5.9099,-5.9099,-5.9099,-5.9099,-5.9099,-5.9099,-5.9099,-5.9099,-5.9099,-5.9099,-5.9099,-5.9099,-5.9099,-5.9099,-5.9099,-5.9099,-5.9099,-5.9099,-5.9099,-5.9099,-5.9045,-5.8991,-5.8803,-5.8694,-5.8555,-5.8555,-5.8555,-7.1199,-7.1406,-7.1575,-7.1487,-7.1411,-7.1363,-7.1171,-7.0809,-7.0336,-6.9849,-6.9089,-6.8409,-6.8054,-6.7325,-6.6812,-6.6812,-6.6812,-6.6812,-6.6812,-6.6812,-6.6812,0.0,-6.7117,0.0,-6.7286,-6.7624,-6.7827,-6.7827,-6.7489,-6.7286,-6.7286,-6.7624,-6.7827,-6.7827,-6.7827,-6.7827,-6.7827,-6.7827,-6.7827,-6.7827,-6.7827,-6.7827,-6.7827,-6.7827,-6.7827,-6.7827,-6.7827,-6.7827,-6.7827,-6.7827,-6.7827,-6.7827,-6.7827,-6.7493,-6.6945,-6.6945,-6.6601,-6.6072,-6.5614,-6.51,-6.4336,-6.2626,-6.1822,-6.145,-6.145,-6.1124,-6.0794,-6.0794,-6.1009,-6.1255,-6.1255,-6.1471,-6.1594,-6.1317,-6.1255,-6.1111,-6.049,-6.0302,-6.0039,-5.9583,-5.9261,-5.9099,-5.9099,-5.9099,-5.9099,-5.9099,-5.9099,-5.9099,-5.9099,-5.9099,-5.9099,-5.9099,-5.9099,-5.9099,-5.9099,-5.9099,-5.9099,-5.9099,-5.9099,-5.9099,-5.9099,-5.9099,-5.9099,-5.9099,-5.9099,-5.9099,-5.9099,-5.8936,-5.8882,-5.8882,-5.8882,-5.8882,-7.1651,-7.1867,-7.2329,-7.2329,-7.2204,-7.2018,-7.1842,-7.1847,-7.1593,-7.0745,-6.9814,-6.9015,-6.8289,-6.7407,-6.6812,-6.6812,0.0,-6.6812,-6.6812,-6.6812,-6.6846,-6.6948,-6.7523,-6.7929,-6.8064,-6.8707,-6.9113,-6.9113,-6.8538,-6.8166,-6.8064,-6.8707,-6.9113,-6.9113,-6.9113,-6.9113,-6.9113,-6.9113,-6.9113,-6.9113,-6.9113,-6.9113,-6.9113,-6.9113,-6.9113,-6.9113,-6.9113,-6.9113,-6.9113,-6.9113,-6.9113,-6.9113,-6.9113,-6.9113,-6.9113,-6.9113,-6.9113,-6.8948,-6.8126,-6.7775,-6.736,-6.4901,-6.3517,-6.277,-6.2622,-6.1984,-6.1247,-6.1123,-6.1502,-6.1933,-6.1933,-6.2364,-6.2671,-6.2086,-6.1933,-6.1726,-6.088,-6.0643,-6.0341,-5.9811,-5.9375,-5.9153,-5.9153,-5.9099,-5.9099,-5.9099,-5.9099,-5.9099,-5.9099,-5.9099,-5.9099,-5.9099,-5.9099,-5.9099,-5.9099,-5.9099,-5.9099,-5.9099,-5.9099,-5.9099,-5.9099,-5.9099,-5.9099,-5.9099,-5.9099,-5.9099,-5.9099,-5.9099,-5.9099,-5.9099,-5.9099,-5.9099,-7.2349,-7.2393,-7.2467,-7.2467,-7.2438,-7.2351,-7.2018,-7.1957,0.0,-7.1399,-7.0198,-6.9163,-6.9052,-6.7776,-6.6812,-6.6812,-6.6812,-6.6812,-6.6812,-6.6812,-6.7049,0.0,-6.7827,-6.8166,-6.8842,-6.9011,-6.9113,-6.9113,-6.9519,-6.9519,-6.891,-6.9011,-6.9113,-6.9113,-6.9113,-6.9113,-6.9113,-6.9113,-6.9113,-6.9113,-6.9113,-6.9113,-6.9113,-6.9113,-6.9113,-6.9113,-6.9113,-6.9113,-6.9113,-6.9113,-6.9113,-6.9113,-6.9113,-6.9113,-6.9113,-6.9113,-6.9113,-6.9069,-6.8904,-6.886,-6.845,-6.6311,-6.5497,-6.5206,-6.4297,-6.3893,-6.3566,-6.269,-6.2548,-6.2641,-6.2641,-6.2733,-6.2794,-6.2671,-6.2641,-6.2556,-6.2433,-6.176,-6.1149,-6.0775,-5.9999,-5.9422,-5.9422,-5.9261,-5.9099,-5.9099,-5.9099,-5.9099,-5.9099,-5.9099,-5.9099,-5.9099,-5.9099,-5.9099,-5.9099,-5.9099,-5.9099,-5.9099,-5.9099,-5.9099,-5.9099,-5.9099,-5.9099,-5.9099,-5.9099,-5.9099,-5.9099,-5.9099,-5.9099,-5.9099,-5.9099,-5.9099,-7.2496,-7.2496,-7.2496,-7.2496,-7.2496,-7.2438,-7.2204,0.0,0.0,-7.1174,-6.9729,-6.8499,-6.8076,-6.7035,-6.6237,-6.6237,-6.6542,-6.6812,-6.6812,-6.6812,-6.7083,-6.7793,-6.8267,-6.8842,-6.9586,-7.0026,-7.0263,-7.0263,-7.0567,-7.0432,-6.9722,-7.0026,-7.0263,-7.0263,-7.0263,-7.0263,-7.0263,-7.0263,-7.0263,-7.0263,-7.0263,-7.0263,-7.0263,-7.0263,-7.0263,-7.0263,-7.0263,-7.0263,-7.0263,-7.0263,-7.0263,-7.0263,-7.0263,-7.0263,-7.0263,-7.0263,-7.0263,-7.0263,-7.0263,-7.0263,-7.0096,-6.909,-6.7876,-6.6733,-6.6224,-6.5297,-6.4323,-6.3787,-6.3468,-6.3349,-6.3349,-6.3626,-6.381,-6.3441,-6.3071,-6.2825,-6.2825,-6.2334,-6.1905,-6.1744,-6.0927,-6.0257,-6.0257,-5.9771,-5.9315,-5.9315,-5.9207,-5.9099,-5.9099,-5.9099,-5.9099,-5.9099,-5.9099,-5.9099,-5.9099,-5.9099,-5.9099,-5.9099,-5.9099,-5.9099,-5.9099,-5.9099,-5.9099,-5.9099,-5.9099,-5.9099,-5.9099,-5.9099,-5.9099,-5.9099,-5.9099,-5.9099,-7.2496,-7.2496,-7.2496,-7.2496,-7.2496,-7.2438,-7.2329,-7.2064,-7.1556,-7.0756,-6.9284,-6.787,-6.7024,-6.6259,-6.5698,0.0,-6.6203,-6.6643,-6.6779,-6.6812,-6.7151,0.0,-6.8707,0.0,-7.0331,-7.0973,-7.1312,-7.1312,-7.1312,-7.1075,-7.0466,-7.1007,-7.1312,-7.1312,-7.1312,-7.1312,-7.1312,-7.1312,-7.1312,-7.1312,-7.1312,-7.1312,-7.1312,-7.1312,-7.1312,-7.1312,-7.1312,-7.1312,-7.1312,-7.1312,-7.1312,-7.1312,-7.1312,-7.1312,-7.1312,-7.1312,-7.1312,-7.1312,-7.1312,-7.1312,-7.1312,-7.1312,-6.9973,-6.8332,-6.8148,-6.6872,-6.5496,-6.5243,-6.4967,-6.4751,-6.4751,-6.5156,-6.5467,-6.4876,-6.4003,-6.331,-6.3547,-6.3133,-6.2717,-6.2717,-6.195,-6.1332,-6.1332,-6.0637,-5.9945,-5.9771,-5.9525,-5.9333,-5.9129,-5.9099,-5.9099,-5.9099,-5.9099,-5.9099,-5.9099,-5.9099,-5.9099,-5.9099,-5.9099,-5.9099,-5.9099,-5.9099,-5.9099,-5.9099,-5.9099,-5.9099,-5.9099,-5.9099,-5.9099,-5.9099,-5.9099,-5.9099,-7.2496,-7.2496,-7.2496,-7.2496,-7.2496,-7.2438,-7.2329,0.0,-7.1048,-7.0678,-6.9309,-6.7919,-6.706,-6.6262,-6.5696,-6.5684,-6.5764,-6.6034,-6.6711,-6.6812,-6.7354,-6.8808,0.0,0.0,-7.1075,-7.1278,-7.1312,-7.1312,-7.1312,-7.1278,-7.121,-7.1278,-7.1312,-7.1312,-7.1312,-7.1312,-7.1312,-7.1312,-7.1312,-7.1312,-7.1312,-7.1312,-7.1312,-7.1312,-7.1312,-7.1312,-7.1312,-7.1312,-7.1312,-7.1312,-7.1312,-7.1312,-7.1312,-7.1312,-7.1312,-7.1312,-7.1312,-7.1312,-7.1312,-7.1312,-7.1312,-7.1312,-7.112,-7.0759,-6.9783,-6.9372,-6.9037,-6.8027,-6.7741,-6.7673,-6.7673,-6.7737,-6.777,-6.7705,-6.6206,-6.4947,-6.5963,-6.4822,-6.3664,-6.3664,-6.2924,-6.2303,-6.2303,-6.1971,-6.1455,-6.0609,-6.0434,-6.003,-5.9243,-5.9099,-5.9099,-5.9099,-5.9099,-5.9099,-5.9099,-5.9099,-5.9099,-5.9099,-5.9099,-5.9099,-5.9099,-5.9099,-5.9099,-5.9099,-5.9099,-5.9099,-5.9099,-5.9099,-5.9099,-5.9099,-5.9099,-5.9099,-7.2496,-7.2496,-7.2496,-7.2496,-7.2496,-7.2357,-7.1822,0.0,-7.0807,-6.9675,-6.8409,-6.7286,-6.6429,-6.5617,-6.521,-6.5617,-6.5685,-6.5967,-6.6711,-6.6812,-6.7387,-6.891,-6.9113,0.0,0.0,-7.1312,-7.1312,-7.1312,-7.1312,-7.1312,-7.1312,-7.1312,-7.1312,-7.1312,-7.1312,-7.1312,-7.1312,-7.1312,-7.1312,-7.1312,-7.1312,-7.1312,-7.1312,-7.1312,-7.1312,-7.1312,-7.1312,-7.1312,-7.1312,-7.1312,-7.1312,-7.1312,-7.1312,-7.1312,-7.1312,-7.1312,-7.1312,-7.1312,-7.1312,-7.1312,-7.1312,-7.1312,-7.1312,-7.1222,-7.0791,-7.0216,-6.9618,-6.9187,-6.8568,-6.8072,-6.8072,-6.8072,-6.8072,-6.8072,-6.7446,-6.693,-6.7395,-6.6427,-6.5424,-6.5424,-6.422,-6.3248,-6.3248,-6.2693,-6.214,-6.1734,-6.151,-6.1171,-6.0656,-6.024,-5.9945,-5.9697,-5.9338,-5.9099,-5.9099,-5.9099,-5.9099,-5.9099,-5.9099,-5.9099,-5.9099,-5.9099,-5.9099,-5.9099,-5.9099,-5.9099,-5.9099,-5.9099,-5.9308,-5.9697,-5.9697,-5.9907,-7.2496,-7.2496,-7.2496,-7.2496,-7.2312,-7.2018,0.0,0.0,-7.0124,-6.8933,-6.7876,-6.687,-6.6048,-6.5159,-6.486,-6.5566,-6.5517,-6.5696,-6.6677,-6.6812,-6.7387,-6.891,0.0,-6.9688,-7.1176,-7.1312,-7.1312,-7.1312,-7.1312,-7.1312,-7.1312,-7.1312,-7.1312,-7.1312,-7.1312,-7.1312,-7.1312,-7.1312,-7.1312,-7.1312,-7.1312,-7.1312,-7.1312,-7.1312,-7.1312,-7.1312,-7.1312,-7.1312,-7.1312,-7.1312,-7.1312,-7.1312,-7.1312,-7.1312,-7.1312,-7.1312,-7.1312,-7.1312,-7.1312,-7.1312,-7.1312,-7.1312,-7.1312,-7.1312,-7.1312,-7.0745,-7.017,-7.017,-6.9651,-6.9041,-6.9041,-6.8798,-6.8618,-6.8993,-6.8552,-6.8172,-6.847,-6.7719,-6.6878,-6.6544,-6.5477,-6.4499,-6.4203,-6.3585,-6.3023,-6.27,-6.2506,-6.2226,-6.1684,-6.1292,-6.091,-6.0551,-6.0076,-5.9627,-5.9129,-5.9099,-5.9099,-5.9099,-5.9099,-5.9099,-5.9099,-5.9099,-5.9189,-5.9398,-5.9398,-5.9488,-5.9697,-5.9697,-5.9937,-6.0386,-6.0386,-6.0745,-7.2496,-7.2496,-7.2496,-7.2496,-7.1908,-7.1293,-7.1293,-7.0073,-6.888,-6.8742,-6.7879,-6.6917,-6.6038,-6.5207,-6.4813,-6.5576,-6.5107,-6.5121,-6.6609,-6.6812,-6.7387,0.0,-6.9113,-6.9688,-7.1176,-7.1312,-7.1312,-7.1312,-7.1312,-7.1312,-7.1312,-7.1312,-7.1312,-7.1312,-7.1312,-7.1312,-7.1312,-7.1312,-7.1312,-7.1312,-7.1312,-7.1312,-7.1312,-7.1312,-7.1312,-7.1312,-7.1312,-7.1312,-7.1312,-7.1312,-7.1312,-7.1312,-7.1312,-7.1312,-7.1312,-7.1312,-7.1312,-7.1312,-7.1312,-7.1312,-7.1312,-7.1312,-7.1312,-7.1312,-7.1312,-7.1312,-7.1267,-7.1267,-7.1267,-7.1267,-7.1267,-7.0482,-6.9935,-7.1007,-6.9651,-6.8371,-6.9475,-6.8814,-6.7802,-6.6701,-6.6491,-6.612,-6.5077,-6.4888,-6.4531,-6.355,-6.3373,-6.3019,-6.2074,-6.1983,-6.1874,-6.1544,-6.1489,-6.0836,-5.9219,-5.9099,-5.9099,-5.9099,-5.9099,-5.9099,-5.9099,-5.9099,-5.9398,-6.0057,-6.0086,-6.0416,-6.1104,-6.1104,-6.1104,-6.1104,-6.1104,-6.1463,-7.2496,-7.2092,-7.1688,-7.1688,-7.1064,-7.033,-6.9816,-6.9265,-6.8724,-6.8147,-6.7561,-6.7126,-6.686,-6.5561,-6.4988,-6.6242,-6.5426,-6.5121,0.0,0.0,0.0,-6.8977,-6.9992,-7.0804,-7.1278,-7.1312,-7.1312,-7.1312,-7.1312,-7.1312,-7.1312,-7.1312,-7.1312,-7.1312,-7.1312,-7.1312,-7.1312,-7.1312,-7.1312,-7.1312,-7.1312,-7.1312,-7.1312,-7.1312,-7.1312,-7.1312,-7.1312,-7.1312,-7.1312,-7.1312,-7.1312,-7.1312,-7.1312,-7.1312,-7.1312,-7.1312,-7.1312,-7.1312,-7.1312,-7.1312,-7.1312,-7.1312,-7.1312,-7.1312,-7.1312,-7.1312,-7.1312,-7.1312,-7.1312,-7.1312,-7.1312,-7.1052,-7.087,-7.1222,-7.0745,-7.0389,-7.0699,-6.9935,-6.909,-6.8716,-6.7497,-6.6385,-6.6045,-6.5406,-6.4771,-6.447,-6.4439,-6.4236,-6.3715,-6.3232,-6.2737,-6.2238,-6.176,-6.1228,-6.0505,-6.0475,-6.0475,-6.0475,-6.0475,-6.0475,-6.0475,-6.0475,-6.0565,-6.0775,-6.0775,-6.0894,-6.1104,-6.1104,-6.1343,-6.1792,-6.2241,-6.257,-7.1578,-7.1248,-7.0844,-7.0844,-7.0257,-6.9522,-6.9009,-6.8678,-6.8311,-6.7797,-6.7497,-6.7266,-6.721,-6.5815,-6.5161,-6.6566,-6.5581,-6.5121,-6.6609,0.0,0.0,-6.9383,-7.0567,-7.1312,-7.1312,-7.1312,-7.1312,-7.1312,-7.1312,-7.1312,-7.1312,-7.1312,-7.1312,-7.1312,-7.1312,-7.1312,-7.1312,-7.1312,-7.1312,-7.1312,-7.1312,-7.1312,-7.1312,-7.1312,-7.1312,-7.1312,-7.1312,-7.1312,0.0,-7.1312,-7.1312,-7.1312,-7.1312,-7.1312,-7.1312,-7.1312,-7.1312,-7.1312,-7.1312,-7.1312,-7.1312,-7.1312,-7.1312,-7.1312,-7.1312,-7.1312,-7.1312,-7.1312,-7.1312,-7.1312,-7.1312,-7.1312,-7.1312,-7.1312,-7.1312,-7.1312,-7.1312,-7.0791,-7.017,-6.9794,-6.8618,-6.7599,-6.7189,-6.6205,-6.5483,-6.5483,-6.5132,-6.4832,-6.4635,-6.4212,-6.377,-6.3269,-6.2738,-6.2328,-6.2021,-6.1459,-6.1104,-6.1104,-6.1104,-6.1104,-6.1104,-6.1104,-6.1224,-6.1493,-6.1493,-6.1613,-6.1852,-6.1852,-6.2061,-6.248,-6.2899,-6.3079,0.0,-6.9963,-7.0,-7.0,-6.9412,-6.8825,-6.8825,-6.8238,0.0,-6.7687,-6.7579,-6.7442,-6.7238,-6.5976,-6.5402,-6.6602,-6.5654,-6.5271,-6.6609,-6.7489,-6.8538,-7.0094,-7.0872,-7.1312,-7.1312,-7.1312,-7.1312,-7.1312,-7.1312,-7.1312,-7.1312,-7.1312,-7.1312,-7.1312,-7.1312,-7.1312,-7.1312,-7.1312,-7.1312,-7.1312,-7.1312,-7.1312,-7.1312,-7.1312,-7.1312,-7.1312,-7.1312,-7.1312,-7.1312,-7.1312,-7.1312,-7.1312,-7.1312,-7.1312,-7.1312,-7.1312,-7.1312,-7.1312,-7.1312,-7.1312,-7.1312,-7.1312,-7.1312,-7.1312,-7.1312,-7.1312,-7.1312,-7.1312,-7.1312,-7.1312,-7.1312,-7.1312,-7.1312,-7.1312,-7.1312,-7.1312,-7.1312,-7.1312,-7.1007,-6.9982,-6.976,-6.9379,-6.8371,-6.7343,-6.6596,-6.6596,-6.57,-6.4998,-6.4998,-6.4943,-6.4777,-6.4437,-6.4188,-6.388,-6.3538,-6.2111,-6.1253,-6.1253,-6.1253,-6.1253,-6.1253,-6.1253,-6.1553,-6.2151,-6.2181,-6.248,-6.3079,-6.3079,-6.3079,-6.3079,-6.3079,-6.3079,-6.8238,0.0,-6.9192,-6.9192,-6.8568,-6.7981,0.0,-6.7834,-6.7687,-6.7687,-6.7579,-6.7442,-6.7238,-6.6848,-6.6609,-6.6743,-6.6563,-6.6468,-6.6761,-6.7963,-6.9383,-7.0872,-7.121,-7.1312,-7.1312,-7.1312,-7.1312,-7.1312,-7.1312,-7.1312,-7.1312,-7.1312,-7.1312,-7.1312,-7.1312,-7.1312,-7.1312,-7.1312,-7.1312,-7.1312,-7.1312,-7.1312,-7.1312,-7.1312,-7.1312,-7.1312,-7.1312,-7.1312,-7.1312,-7.1312,-7.1312,-7.1312,-7.1312,-7.1312,-7.1312,-7.1312,-7.1312,-7.1312,-7.1312,-7.1312,-7.1312,-7.1312,-7.1312,-7.1312,-7.1312,-7.1312,-7.1312,-7.1312,-7.1312,-7.1312,-7.1312,-7.1312,-7.1312,-7.1312,-7.1312,-7.1312,-7.1312,-7.1312,-7.1222,-7.0961,-7.025,-6.9618,-6.9379,-6.842,-6.7719,-6.7719,-6.6774,-6.6152,-6.6152,-6.5406,-6.4777,-6.4437,-6.4326,-6.4075,-6.3538,-6.2952,-6.26,-6.26,-6.26,-6.26,-6.26,-6.26,-6.269,-6.2839,-6.2839,-6.2929,-6.3079,-6.3079,-6.3079,-6.3079,-6.3079,-6.3079,-6.7687,-6.8017,-6.8348,-6.8348,-6.8017,-6.7687,-6.7687,-6.7687,-6.7687,-6.7687,-6.7633,-6.7634,-6.7862,-6.7583,-6.745,-6.7898,-6.7435,-6.7163,0.0,0.0,-7.0026,-7.1176,-7.1312,-7.1312,-7.1312,-7.1312,-7.1312,-7.1312,-7.1312,-7.1312,-7.1312,-7.1312,-7.1312,-7.1312,-7.1312,-7.1312,-7.1312,-7.1312,-7.1312,-7.1312,-7.1312,-7.1312,-7.1312,-7.1312,-7.1312,-7.1312,-7.1312,-7.1312,-7.1312,-7.1312,-7.1312,-7.1312,-7.1312,-7.1312,-7.1312,-7.1312,-7.1312,-7.1312,-7.1312,-7.1312,-7.1312,-7.1312,-7.1312,-7.1312,-7.1312,-7.1312,-7.1312,-7.1312,-7.1312,-7.1312,-7.1312,-7.1312,-7.1312,-7.1312,-7.1312,-7.1312,-7.1312,-7.1312,-7.1312,-7.1312,-7.0837,-7.0436,-7.0436,-6.9523,-6.8814,-6.8814,-6.7921,-6.7034,-6.6544,-6.5991,-6.5375,-6.4691,-6.4524,-6.427,-6.3963,-6.3508,-6.3252,-6.3137,-6.3079,-6.3079,-6.3079,-6.3079,-6.3079,-6.3079,-6.3079,-6.3079,-6.3079,-6.3079,-6.3079,-6.3079,-6.3079,-6.3079,-6.7687,-6.7687,-6.7687,-6.7687,-6.7687,-6.7687,-6.7687,-6.7687,-6.7724,-6.7834,-6.7871,-6.81,-6.8778,-6.8495,-6.8419,-6.9275,-6.829,-6.7906,-6.9254,-6.9877,-7.0466,-7.121,-7.1312,-7.1312,-7.1312,-7.1312,-7.1312,-7.1312,-7.1312,-7.1312,-7.1312,-7.1312,-7.1312,-7.1312,-7.1312,-7.1312,-7.1312,-7.1312,-7.1312,-7.1312,-7.1312,-7.1312,-7.1312,-7.1312,-7.1312,-7.1312,-7.1312,-7.1312,-7.1312,-7.1312,-7.1312,-7.1312,-7.1312,-7.1312,-7.1312,-7.1312,-7.1312,-7.1312,-7.1312,-7.1312,-7.1312,-7.1312,-7.1312,-7.1312,-7.1312,-7.1312,-7.1312,-7.1312,-7.1312,-7.1312,-7.1312,-7.1312,-7.1312,-7.1312,-7.1312,-7.1312,-7.1312,-7.1312,-7.1312,-7.1312,-7.1312,-7.1312,-7.1312,-7.0561,-6.9935,-6.9935,-6.9041,-6.8054,-6.7086,-6.6701,-6.6152,-6.5242,-6.4746,-6.4437,-6.4382,-6.3963,-6.3508,-6.3252,-6.3137,-6.3079,-6.3079,-6.3079,-6.3079,-6.3079,-6.3079,-6.3079,-6.3079,-6.3079,-6.3079,-6.3079,-6.3079,-6.3079,-6.7687,-6.7687,-6.7687,-6.7687,-6.7687,-6.7687,-6.7687,-6.7687,-6.7871,-6.8568,-6.8715,-6.8917,-6.9583,-7.0164,-7.0314,-6.9519,-6.9058,-6.9285,-7.0815,-7.0549,-7.0466,-7.121,-7.1312,-7.1312,-7.1312,-7.1312,-7.1312,-7.1312,-7.1312,-7.1312,-7.1312,-7.1312,-7.1312,-7.1312,-7.1312,-7.1312,-7.1312,-7.1312,-7.1312,-7.1312,-7.1312,-7.1312,-7.1312,-7.1312,-7.1312,-7.1312,-7.1312,-7.1312,-7.1312,-7.1312,-7.1312,-7.1312,-7.1312,-7.1312,-7.1312,-7.1312,-7.1312,-7.1312,-7.1312,-7.1312,-7.1312,-7.1312,-7.1312,-7.1312,-7.1312,-7.1312,-7.1312,-7.1312,-7.1312,-7.1312,-7.1312,-7.1312,-7.1312,-7.1312,-7.1312,-7.1312,-7.1312,-7.1312,-7.1312,-7.1312,-7.1312,-7.1312,-7.1312,-7.1176,-7.1052,-7.1052,-7.0123,-6.9379,-6.9235,-6.7618,-6.6438,-6.628,-6.5375,-6.4691,-6.4437,-6.4326,-6.4132,-6.388,-6.3367,-6.3079,-6.3079,-6.3079,-6.3079,-6.3079,-6.3079,-6.3079,-6.3079,-6.3079,-6.3079,-6.3079,-6.3079,-6.3079,-6.7687,-6.7687,-6.7797,-6.8238,-6.8348,-6.8458,-6.8898,-6.9009,-6.9082,-6.9486,-6.9559,-6.9788,-7.0539,-7.0951,-7.1106,-7.0832,-7.1015,-7.1215,-7.138,-7.1079,-7.0939,-7.1278,-7.1312,-7.1312,-7.1312,-7.1312,-7.1312,-7.1312,-7.1312,-7.1312,-7.1312,-7.1312,-7.1312,-7.1312,-7.1312,-7.1312,-7.1312,-7.1312,-7.1312,-7.1312,-7.1312,-7.1312,-7.1312,-7.1312,-7.1312,-7.1312,-7.1312,-7.1312,-7.1312,-7.1312,-7.1312,-7.1312,-7.1312,-7.1312,-7.1312,-7.1312,-7.1312,-7.1312,-7.1312,-7.1312,-7.1312,-7.1312,-7.1312,-7.1312,-7.1312,-7.1312,-7.1312,-7.1312,-7.1312,-7.1312,-7.1312,-7.1312,-7.1312,-7.1312,-7.1312,-7.1312,-7.1312,-7.1312,-7.1312,-7.1312,-7.1312,-7.1312,-7.1312,-7.1312,-7.1312,-7.1312,-7.0916,-7.0343,-6.976,-6.8814,-6.7971,-6.7446,-6.6385,-6.5669,-6.5561,-6.4881,-6.43,-6.4049,-6.3766,-6.3538,-6.3309,-6.3309,-6.3252,-6.3079,-6.3079,-6.3079,-6.3079,-6.3079,-6.3079,-6.3079,-6.3079,-6.3079,-6.7687,-6.7834,-6.8164,-6.8972,-6.9045,-6.9119,-6.9926,-7.011,-7.0146,-7.033,-7.0367,-7.0697,-7.1688,-7.199,-7.2277,-7.281,-7.2905,-7.2714,-7.2134,-7.1584,-7.1312,-7.1312,-7.1312,-7.1312,-7.1312,-7.1312,-7.1312,-7.1312,-7.1312,-7.1312,-7.1312,-7.1312,-7.1312,-7.1312,-7.1312,-7.1312,-7.1312,-7.1312,-7.1312,-7.1312,-7.1312,-7.1312,-7.1312,-7.1312,-7.1312,-7.1312,-7.1312,-7.1312,-7.1312,-7.1312,-7.1312,-7.1312,-7.1312,-7.1312,-7.1312,-7.1312,-7.1312,-7.1312,-7.1312,-7.1312,-7.1312,-7.1312,-7.1312,-7.1312,-7.1312,-7.1312,-7.1312,-7.1312,-7.1312,-7.1312,-7.1312,-7.1312,-7.1312,-7.1312,-7.1312,-7.1312,-7.1312,-7.1312,-7.1312,-7.1312,-7.1312,-7.1312,-7.1312,-7.1312,-7.1312,-7.1312,-7.1312,-7.1007,-7.017,-6.9888,-6.9379,-6.8568,-6.7497,-6.6806,-6.6544,-6.5475,-6.4715,-6.4275,-6.4106,-6.388,-6.3652,-6.3538,-6.3424,-6.3194,-6.3137,-6.3079,-6.3079,-6.3079,-6.3079,-6.3079,-6.3079,-6.3079,-6.7687,-6.8238,-6.9009,-6.9816,-6.9449,-6.9119,-6.9926,-7.011,-7.0293,-7.1064,-7.1211,-7.1688,-7.323,-7.4029,-7.4714,-7.5463,-7.4115,-7.312,-7.3822,-7.2406,-7.1312,-7.1312,-7.1312,-7.1312,-7.1312,-7.1312,-7.1312,-7.1312,-7.1312,-7.1312,-7.1312,-7.1312,-7.1312,-7.1312,-7.1312,-7.1312,-7.1312,-7.1312,-7.1312,-7.1312,-7.1312,-7.1312,-7.1312,-7.1312,-7.1312,-7.1312,-7.1312,-7.1312,-7.1312,-7.1312,-7.1312,-7.1312,-7.1312,-7.1312,-7.1312,-7.1312,-7.1312,-7.1312,-7.1312,-7.1312,-7.1312,-7.1312,-7.1312,-7.1312,-7.1312,-7.1312,-7.1312,-7.1312,-7.1312,-7.1312,-7.1312,-7.1312,-7.1312,-7.1312,-7.1312,-7.1312,-7.1312,-7.1312,-7.1312,-7.1312,-7.1312,-7.1312,-7.1312,-7.1312,-7.1312,-7.1312,-7.1312,-7.1267,-7.1222,-7.0343,-6.9666,-6.9571,-6.8618,-6.7599,-6.6596,-6.6385,-6.5938,-6.4888,-6.4331,-6.3993,-6.3993,-6.3652,-6.3481,-6.3481,-6.3252,-6.3079,-6.3079,-6.3079,-6.3079,-6.3079,-6.3079,-6.3079,-6.8311,-6.8678,-6.9229,-7.0513,-7.0624,-7.0624,-7.1394,-7.1578,-7.1835,-7.2642,-7.2789,-7.312,-7.4258,-7.5042,-7.5641,-7.5848,-7.5171,-7.4471,-7.4155,-7.2914,-7.183,-7.1356,-7.1312,-7.1312,-7.1312,-7.1312,-7.1312,-7.1312,-7.1312,-7.1312,-7.1312,-7.1312,-7.1312,-7.1312,-7.1312,-7.1312,-7.1312,-7.1312,-7.1312,-7.1312,-7.1312,-7.1312,-7.1312,-7.1312,-7.1312,-7.1312,-7.1312,-7.1312,-7.1312,-7.1312,-7.1312,-7.1312,-7.1312,-7.1312,-7.1312,-7.1312,-7.1312,-7.1312,-7.1312,-7.1312,-7.1312,-7.1312,-7.1312,-7.1312,-7.1312,-7.1312,-7.1312,-7.1312,-7.1312,-7.1312,-7.1312,-7.1312,-7.1312,-7.1312,-7.1312,-7.1312,-7.1312,-7.1312,-7.1312,-7.1312,-7.1312,-7.1312,-7.1312,-7.1312,-7.1312,-7.1312,-7.1312,-7.1312,-7.1312,-7.0961,-7.0699,-7.0699,-6.9746,-6.8667,-6.7599,-6.6878,-6.6332,-6.5884,-6.5077,-6.4499,-6.4244,-6.4132,-6.3963,-6.3823,-6.3709,-6.3538,-6.3367,-6.3367,-6.3252,-6.3079,-6.3079,-6.3079,-6.8678,-6.9082,-6.9596,-7.0991,-7.1505,-7.1908,-7.2716,-7.2899,-7.3046,-7.3597,-7.4111,-7.4625,-7.5175,-7.5946,-7.6466,-7.638,-7.5907,-7.537,-7.4643,-7.3367,-7.2279,-7.1732,-7.1457,-7.1312,-7.1312,-7.1312,-7.1312,-7.1312,-7.1312,-7.1312,-7.1312,-7.1312,-7.1312,-7.1312,-7.1312,-7.1312,-7.1312,-7.1312,-7.1312,-7.1312,-7.1312,-7.1312,-7.1312,-7.1312,-7.1312,-7.1312,-7.1312,-7.1312,-7.1312,-7.1312,-7.1312,-7.1312,-7.1312,-7.1312,-7.1312,-7.1312,-7.1312,-7.1312,-7.1312,-7.1312,-7.1312,-7.1312,-7.1312,-7.1312,-7.1312,-7.1312,-7.1312,-7.1312,-7.1312,-7.1312,-7.1312,-7.1312,-7.1312,-7.1312,-7.1312,-7.1312,-7.1312,-7.1312,-7.1312,-7.1312,-7.1312,-7.1312,-7.1312,-7.1312,-7.1312,-7.1312,-7.1312,-7.1312,-7.1312,-7.1312,-7.1312,-7.1312,-7.0654,-6.9794,-6.8699,-6.7921,-6.724,-6.6544,-6.5777,-6.5187,-6.4579,-6.4437,-6.427,-6.4132,-6.4049,-6.388,-6.3652,-6.3538,-6.3424,-6.3252,-6.3137,-6.3079,-6.8678,-6.9486,-7.0293,-7.1138,-7.1908,-7.2716,-7.3523,-7.3707,-7.3707,-7.3707,-7.4992,-7.6093,-7.6093,-7.679,-7.7273,-7.7273,-7.637,-7.5618,-7.5618,-7.3842,-7.2533,-7.2533,-7.182,-7.1312,-7.1312,-7.1312,-7.1312,-7.1312,-7.1312,-7.1312,-7.1312,-7.1312,-7.1312,-7.1312,-7.1312,-7.1312,-7.1312,-7.1312,-7.1312,-7.1312,-7.1312,-7.1312,-7.1312,-7.1312,-7.1312,-7.1312,-7.1312,-7.1312,-7.1312,-7.1312,-7.1312,-7.1312,-7.1312,-7.1312,-7.1312,-7.1312,-7.1312,-7.1312,-7.1312,-7.1312,-7.1312,-7.1312,-7.1312,-7.1312,-7.1312,-7.1312,-7.1312,-7.1312,-7.1312,-7.1312,-7.1312,-7.1312,-7.1312,-7.1312,-7.1312,-7.1312,-7.1312,-7.1312,-7.1312,-7.1312,-7.1312,-7.1312,-7.1312,-7.1312,-7.1312,-7.1312,-7.1312,-7.1312,-7.1312,-7.1312,-7.1312,-7.1312,-7.1312,-7.087,-6.9841,-6.9713,-6.8765,-6.6649,-6.6491,-6.5991,-6.4943,-6.4579,-6.4382,-6.4382,-6.4132,-6.3993,-6.3993,-6.3709,-6.3538,-6.3538,-6.3252,-6.3079,-6.9522,-7.033,-7.1138,-7.1945,-7.2312,-7.2716,-7.3523,-7.3707,-7.4001,-7.5139,-7.624,-7.6937,-7.6937,-7.7127,-7.7273,-7.7273,-7.6961,-7.6403,-7.5722,-7.4938,-7.4229,-7.3522,-7.32,-7.2825,-7.2228,-7.2142,-7.1917,-7.1356,-7.1312,-7.1312,-7.1312,-7.1312,-7.1312,-7.1312,-7.1312,-7.1312,-7.1312,-7.1312,-7.1312,-7.1312,-7.1312,-7.1312,-7.1312,-7.1312,-7.1312,-7.1312,-7.1312,-7.1312,-7.1312,-7.1312,-7.1312,-7.1312,-7.1312,-7.1312,-7.1312,-7.1312,-7.1312,-7.1312,-7.1312,-7.1312,-7.1312,-7.1312,-7.1312,-7.1312,-7.1312,-7.1312,-7.1312,-7.1312,-7.1312,-7.1312,-7.1312,-7.1312,-7.1312,-7.1312,-7.1312,-7.1312,-7.1312,-7.1312,-7.1312,-7.1312,-7.1312,-7.1312,-7.1312,-7.1312,-7.1312,-7.1312,-7.1312,-7.1312,-7.1312,-7.1312,-7.1312,-7.1312,-7.1312,-7.1176,-7.0837,-7.0123,-6.9427,-6.8765,-6.7343,-6.5991,-6.4943,-6.4777,-6.4777,-6.4777,-6.4666,-6.4554,-6.43,-6.4188,-6.4019,-6.3823,-6.3538,-6.3367,-6.9889,-7.0697,-7.1505,-7.2312,-7.2753,-7.3266,-7.4404,-7.4661,-7.5028,-7.6313,-7.6943,-7.7273,-7.7273,-7.7273,-7.7273,-7.7273,-7.7186,-7.6897,-7.627,-7.5757,-7.5192,-7.4456,-7.4075,-7.3681,-7.3078,-7.2707,-7.2279,-7.1786,-7.1457,-7.1312,-7.1312,-7.1312,-7.1312,-7.1312,-7.1312,-7.1312,-7.1312,-7.1312,-7.1312,-7.1312,-7.1312,-7.1312,-7.1312,-7.1312,-7.1312,-7.1312,-7.1312,-7.1312,-7.1312,-7.1312,-7.1312,-7.1312,-7.1312,-7.1312,-7.1312,-7.1312,-7.1312,-7.1312,-7.1312,-7.1312,-7.1312,-7.1312,-7.1312,-7.1312,-7.1312,-7.1312,-7.1312,-7.1312,-7.1312,-7.1312,-7.1312,-7.1312,-7.1312,-7.1312,-7.1312,-7.1312,-7.1312,-7.1312,-7.1312,-7.1312,-7.1312,-7.1312,-7.1312,-7.1312,-7.1312,-7.1312,-7.1312,-7.1312,-7.1312,-7.1312,-7.1312,-7.1312,-7.1312,-7.1312,-7.1312,-7.0699,-7.0123,-6.9713,-6.847,-6.7292,-6.6205,-6.5351,-6.4888,-6.4888,-6.4888,-6.4777,-6.4579,-6.4437,-6.4326,-6.4132,-6.3849,-6.3709,-6.9889,-7.0697,-7.1505,-7.2312,-7.3156,-7.4221,-7.5763,-7.6166,-7.6423,-7.7127,-7.7273,-7.7273,-7.7273,-7.7273,-7.7273,-7.7273,-7.7217,-7.7124,-7.7092,-7.6303,-7.5688,-7.5477,-7.4792,-7.4229,-7.3956,-7.316,-7.2617,-7.2533,-7.1776,-7.1312,-7.1312,-7.1312,-7.1312,-7.1312,-7.1312,-7.1312,-7.1312,-7.1312,-7.1312,-7.1312,-7.1312,-7.1312,-7.1312,-7.1312,-7.1312,-7.1312,-7.1312,-7.1312,-7.1312,-7.1312,-7.1312,-7.1312,-7.1312,-7.1312,-7.1312,-7.1312,-7.1312,-7.1312,-7.1312,-7.1312,-7.1312,-7.1312,-7.1312,-7.1312,-7.1312,-7.1312,-7.1312,-7.1312,-7.1312,-7.1312,-7.1312,-7.1312,-7.1312,-7.1312,-7.1312,-7.1312,-7.1312,-7.1312,-7.1312,-7.1312,-7.1312,-7.1312,-7.1312,-7.1312,-7.1312,-7.1312,-7.1312,-7.1312,-7.1312,-7.1312,-7.1312,-7.1312,-7.1312,-7.1312,-7.1312,-7.1312,-7.0916,-6.9935,-6.976,-6.9283,-6.8271,-6.6205,-6.5053,-6.5053,-6.4943,-6.4888,-6.4888,-6.4579,-6.4437,-6.4437,-6.4132,-6.4049,-6.9889,-7.0697,-7.1505,-7.2312,-7.3597,-7.4918,-7.5873,-7.6607,-7.709,-7.7237,-7.7273,-7.7273,-7.7273,-7.7273,-7.7273,-7.7273,-7.731,-7.7248,-7.7124,-7.6897,-7.67,-7.6505,-7.6303,-7.5895,-7.5083,-7.4229,-7.3407,-7.254,-7.1776,-7.1312,-7.1312,-7.1312,-7.1312,-7.1312,-7.1312,-7.1312,-7.1312,-7.1312,-7.1312,-7.1312,-7.1312,-7.1312,-7.1312,-7.1312,-7.1312,-7.1312,-7.1312,-7.1312,-7.1312,-7.1312,-7.1312,-7.1312,-7.1312,-7.1312,-7.1312,-7.1312,-7.1312,-7.1312,-7.1312,-7.1312,-7.1312,-7.1312,-7.1312,-7.1312,-7.1312,-7.1312,-7.1312,-7.1312,-7.1312,-7.1312,-7.1312,-7.1312,-7.1312,-7.1312,-7.1312,-7.1312,-7.1312,-7.1312,-7.1312,-7.1312,-7.1312,-7.1312,-7.1312,-7.1312,-7.1312,-7.1312,-7.1312,-7.1312,-7.1312,-7.1312,-7.1312,-7.1312,-7.1312,-7.1312,-7.1312,-7.1312,-7.1222,-7.0961,-7.0203,-6.9571,-6.9379,-6.7292,-6.6152,-6.6152,-6.5351,-6.4888,-6.4888,-6.4832,-6.4777,-6.4777,-6.4468,-6.427,-6.9889,-7.0697,-7.1688,-7.3266,-7.4294,-7.5212,-7.6423,-7.7011,-7.7273,-7.7273,-7.7273,-7.7273,-7.7273,-7.7273,-7.7273,-7.7273,-7.7273,-7.731,-7.7217,-7.7217,-7.7155,-7.6929,-7.6929,-7.6672,-7.5965,-7.4827,-7.3803,-7.316,-7.2004,-7.1312,-7.1312,-7.1312,-7.1312,-7.1312,-7.1312,-7.1312,-7.1312,-7.1312,-7.1312,-7.1312,-7.1312,-7.1312,-7.1312,-7.1312,-7.1312,-7.1312,-7.1312,-7.1312,-7.1312,-7.1312,-7.1312,-7.1312,-7.1312,-7.1312,-7.1312,-7.1312,-7.1312,-7.1312,-7.1312,-7.1312,-7.1312,-7.1312,-7.1312,-7.1312,-7.1312,-7.1312,-7.1312,-7.1312,-7.1312,-7.1312,-7.1312,-7.1312,-7.1312,-7.1312,-7.1312,-7.1312,-7.1312,-7.1312,-7.1312,-7.1312,-7.1312,-7.1312,-7.1312,-7.1312,-7.1312,-7.1312,-7.1312,-7.1312,-7.1312,-7.1312,-7.1312,-7.1312,-7.1312,-7.1312,-7.1312,-7.1312,-7.1312,-7.1312,-7.0791,-7.0436,-7.0436,-6.8895,-6.7548,-6.6544,-6.5938,-6.5406,-6.4888,-6.4888,-6.4888,-6.4888,-6.4721,-6.4635,-6.9853,-7.0807,-7.2018,-7.4184,-7.4808,-7.5285,-7.676,-7.72,-7.7273,-7.7273,-7.7273,-7.7273,-7.7273,-7.7273,-7.7273,-7.7273,-7.7273,-7.7273,-7.7273,-7.7273,-7.7279,-7.7155,-7.7124,-7.7029,-7.6745,-7.5299,-7.4191,-7.3878,-7.2398,-7.1457,-7.1312,-7.1312,-7.1312,-7.1312,-7.1312,-7.1312,-7.1312,-7.1312,-7.1312,-7.1312,-7.1312,-7.1312,-7.1312,-7.1312,-7.1312,-7.1312,-7.1312,-7.1312,-7.1312,-7.1312,-7.1312,-7.1312,-7.1312,-7.1312,-7.1312,-7.1312,-7.1312,-7.1312,-7.1312,-7.1312,-7.1312,-7.1312,-7.1312,-7.1312,-7.1312,-7.1312,-7.1312,-7.1312,-7.1312,-7.1312,-7.1312,-7.1312,-7.1312,-7.1312,-7.1312,-7.1312,-7.1312,-7.1312,-7.1312,-7.1312,-7.1312,-7.1312,-7.1312,-7.1312,-7.1312,-7.1312,-7.1312,-7.1312,-7.1312,-7.1312,-7.1312,-7.1312,-7.1312,-7.1312,-7.1312,-7.1312,-7.1312,-7.1312,-7.1312,-7.1312,-7.1312,-7.0436,-6.9041,-6.7086,-6.6701,-6.6045,-6.5218,-6.4998,-6.4888,-6.4888,-6.4888,-6.4888,-6.9669,-7.1211,-7.2569,-7.3597,-7.4368,-7.5139,-7.6056,-7.6827,-7.7273,-7.7273,-7.7273,-7.7273,-7.7273,-7.7273,-7.7273,-7.7273,-7.7273,-7.7273,-7.7273,-7.7273,-7.7273,-7.731,-7.7243,-7.7217,-7.7061,-7.6032,-7.5047,-7.4114,-7.2996,-7.2047,-7.1356,-7.1312,-7.1312,-7.1312,-7.1312,-7.1312,-7.1312,-7.1312,-7.1312,-7.1312,-7.1312,-7.1312,-7.1312,-7.1312,-7.1312,-7.1312,-7.1312,-7.1312,-7.1312,-7.1312,-7.1312,-7.1312,-7.1312,-7.1312,-7.1312,-7.1312,-7.1312,-7.1312,-7.1312,-7.1312,-7.1312,-7.1312,-7.1312,-7.1312,-7.1312,-7.1312,-7.1312,-7.1312,-7.1312,-7.1312,-7.1312,-7.1312,-7.1312,-7.1312,-7.1312,-7.1312,-7.1312,-7.1312,-7.1312,-7.1312,-7.1312,-7.1312,-7.1312,-7.1312,-7.1312,-7.1312,-7.1312,-7.1312,-7.1312,-7.1312,-7.1312,-7.1312,-7.1312,-7.1312,-7.1312,-7.1312,-7.1312,-7.1312,-7.1312,-7.1312,-7.1312,-7.1176,-7.0482,-6.9283,-6.7446,-6.6438,-6.628,-6.5351,-6.4888,-6.4888,-6.4888,-6.4888,-6.9669,-7.0954,-7.2129,-7.3377,-7.4294,-7.5139,-7.5909,-7.6717,-7.7273,-7.7273,-7.7273,-7.7273,-7.7273,-7.7273,-7.7273,-7.7273,-7.7273,-7.7273,-7.7273,-7.7273,-7.7273,-7.7273,-7.7273,-7.7248,-7.7124,-7.6267,-7.5441,-7.4828,-7.3487,-7.2666,-7.27,-7.182,-7.1501,-7.196,-7.1546,-7.1312,-7.1312,-7.1312,-7.1312,-7.1312,-7.1312,-7.1546,-7.196,-7.196,-7.1732,-7.1312,-7.1776,-7.196,-7.196,-7.196,-7.196,-7.1917,-7.1457,-7.1312,-7.1312,-7.1312,-7.1312,-7.1312,-7.1312,-7.1312,-7.1312,-7.1312,-7.1312,-7.1312,-7.1312,-7.1312,-7.1312,-7.1312,-7.1312,-7.1312,-7.1312,-7.1312,-7.1312,-7.1312,-7.1312,-7.1312,-7.1312,-7.1312,-7.1312,-7.1312,-7.1312,-7.1312,-7.1312,-7.1312,-7.1312,-7.1312,-7.1312,-7.1312,-7.1312,-7.1312,-7.1312,-7.1312,-7.1312,-7.1312,-7.1312,-7.1312,-7.1312,-7.1312,-7.1312,-7.1312,-7.1312,-7.1312,-7.1052,-7.0608,-6.909,-6.7701,-6.6491,-6.6045,-6.5515,-6.4888,-6.4888,-6.4888,-6.9706,-7.0697,-7.1651,-7.3046,-7.4001,-7.4808,0.0,-7.6423,-7.7053,-7.7237,-7.7273,-7.7273,-7.7273,-7.7273,-7.7273,-7.7273,-7.7273,-7.7273,-7.7273,-7.7273,-7.7273,-7.7273,-7.7273,-7.7279,-7.7155,-7.6534,-7.5925,-7.5441,-7.4193,-7.3567,-7.3878,-7.2617,-7.2185,-7.279,-7.2047,-7.16,-7.16,-7.1401,-7.1401,-7.16,-7.16,-7.2047,-7.2832,-7.2832,-7.249,-7.1994,-7.2575,-7.2832,-7.2832,-7.2832,-7.2666,-7.2448,-7.183,-7.1457,-7.1312,-7.1312,-7.1312,-7.1312,-7.1312,-7.1312,-7.1312,-7.1312,-7.1312,-7.1312,-7.1312,-7.1312,-7.1312,-7.1312,-7.1312,-7.1312,-7.1312,-7.1312,-7.1312,-7.1312,-7.1312,-7.1312,-7.1312,-7.1312,-7.1312,-7.1312,-7.1312,-7.1312,-7.1312,-7.1312,-7.1312,-7.1312,-7.1312,-7.1312,-7.1312,-7.1312,-7.1312,-7.1312,-7.1312,-7.1312,-7.1312,-7.1312,-7.1312,-7.1312,-7.1312,-7.1312,-7.1312,-7.1312,-7.1312,-7.1312,-7.0482,-6.9187,-6.7292,-6.7034,-6.6491,-6.57,-6.57,-6.57,-6.9853,-7.0697,0.0,-7.2349,-7.3156,-7.3964,0.0,-7.5579,-7.6387,-7.7127,-7.7273,-7.7273,-7.7273,-7.7273,-7.7273,-7.7273,-7.7273,-7.7273,-7.7273,-7.7273,-7.7273,-7.7273,-7.7273,-7.731,-7.7273,-7.7118,-7.67,-7.5857,-7.5405,-7.4865,-7.4114,-7.3838,-7.3681,-7.3721,-7.2873,-7.2448,-7.2448,-7.1688,-7.1688,-7.2448,-7.2448,-7.2873,-7.3721,-7.3721,-7.3721,-7.3681,-7.3721,-7.3721,-7.3721,-7.3721,-7.3241,-7.249,-7.2448,-7.196,-7.1312,-7.1312,-7.1312,-7.1312,-7.1312,-7.1312,-7.1312,-7.1312,-7.1312,-7.1312,-7.1312,-7.1312,-7.1312,-7.1312,-7.1312,-7.1312,-7.1312,-7.1312,-7.1312,-7.1312,-7.1312,-7.1312,-7.1312,-7.1312,-7.1312,-7.1312,-7.1312,-7.1312,-7.1312,-7.1312,-7.1312,-7.1312,-7.1312,-7.1312,-7.1312,-7.1312,-7.1312,-7.1312,-7.1312,-7.1312,-7.1312,-7.1312,-7.1312,-7.1312,-7.1312,-7.1312,-7.1312,-7.1312,-7.1312,-7.1312,-7.1267,-7.0654,-6.9523,-6.8519,-6.7971,-6.7921,-6.7921,-6.7921,-6.8348,0.0,0.0,-7.1541,-7.2716,-7.3891,-7.4735,-7.5542,-7.635,-7.7127,-7.7273,-7.7273,-7.7273,-7.7273,-7.7273,-7.7273,-7.7273,-7.7273,-7.7273,-7.7273,-7.7273,-7.7273,-7.7273,-7.7273,-7.7273,-7.7279,-7.7056,-7.6664,-7.5995,-7.5652,-7.5689,-7.4604,-7.4187,-7.4602,-7.3241,-7.227,-7.1732,-7.1412,-7.1412,-7.1732,-7.2236,-7.2955,-7.3799,-7.4376,-7.49,-7.5406,-7.5406,-7.5083,-7.464,-7.464,-7.4452,-7.4111,-7.3562,-7.316,-7.2894,-7.2854,-7.2809,-7.2868,-7.2757,-7.2699,-7.2699,-7.2699,-7.2699,-7.2699,-7.2699,-7.2699,-7.2699,-7.2699,-7.2699,-7.2699,-7.2699,-7.2699,-7.2699,-7.2699,-7.2699,-7.2699,-7.2699,-7.1988,-7.1312,-7.1312,-7.1312,-7.1312,-7.1312,-7.1312,-7.1312,-7.1312,-7.1312,-7.1312,-7.1312,-7.1312,-7.1312,-7.1312,-7.1312,-7.1312,-7.1312,-7.1312,-7.1312,-7.1312,-7.1312,-7.1312,-7.1312,-7.1312,-7.1312,-7.1312,-7.1312,-7.0745,-6.9713,-6.9331,-6.8765,-6.8072,-6.8072,-6.8072,-6.7393,0.0,0.0,0.0,-7.2092,-7.3193,-7.4258,-7.5139,-7.5946,-7.6754,-7.709,-7.7273,-7.7273,-7.7273,-7.7273,-7.7273,-7.7273,-7.7273,-7.7273,-7.7273,-7.7273,-7.7273,-7.7273,-7.7273,-7.7273,-7.7273,-7.7243,-7.7186,-7.6599,-7.6403,-7.6741,-7.5653,-7.5047,-7.5155,-7.3721,-7.2533,-7.1732,-7.1688,-7.1864,-7.2133,-7.299,-7.3838,-7.4677,-7.5549,-7.6191,-7.671,-7.7,-7.6509,-7.5513,-7.58,-7.5765,-7.5473,-7.5162,-7.4847,-7.4602,-7.4552,-7.4349,-7.4076,-7.4366,-7.4037,-7.3569,-7.3856,-7.3719,-7.3477,-7.3477,-7.3477,-7.3477,-7.3477,-7.3477,-7.3477,-7.3477,-7.3477,-7.3477,-7.3477,-7.3477,-7.3477,-7.3477,-7.2732,-7.2056,-7.2056,-7.2056,-7.2056,-7.2056,-7.2056,-7.2056,-7.2056,-7.2056,-7.2056,-7.2056,-7.1819,-7.1684,-7.1684,-7.1447,-7.1312,-7.1312,-7.1312,-7.1312,-7.1312,-7.1312,-7.1312,-7.1312,-7.1312,-7.1312,-7.1312,-7.1312,-7.0961,-7.025,-7.025,-6.9888,-6.9187,-6.9187,-6.8993,0.0,0.0,0.0,0.0,0.0,0.0,-7.3303,0.0,-7.5102,-7.5946,-7.6717,-7.7273,-7.7273,-7.7273,-7.7273,-7.7273,-7.7273,-7.7273,-7.7273,-7.7273,-7.7273,-7.7273,-7.7273,-7.7273,-7.7273,-7.7273,-7.7273,-7.7273,-7.7186,-7.7092,-7.7092,-7.6897,-7.6336,-7.5335,-7.4305,-7.3402,-7.2533,-7.249,-7.2949,-7.3795,-7.4713,-7.5549,-7.635,-7.7181,-7.7543,-7.7579,-7.8376,-7.7796,-7.6454,-7.7217,-7.7054,-7.6441,-7.7191,-7.6947,-7.6278,-7.6273,-7.57,-7.5068,-7.5942,-7.5137,-7.3787,-7.4581,-7.4295,-7.3591,-7.3591,-7.3544,-7.3544,-7.3544,-7.3544,-7.3544,-7.3544,-7.3544,-7.3544,-7.3544,-7.3544,-7.3544,-7.3544,-7.3544,-7.3544,-7.3477,-7.3477,-7.3477,-7.3477,-7.3477,-7.3477,-7.3477,-7.3477,-7.3477,-7.3477,-7.2868,-7.2428,-7.2428,-7.1785,-7.1379,-7.1379,-7.1379,-7.1379,-7.1345,-7.1345,-7.1345,-7.1312,-7.1312,-7.1312,-7.1312,-7.1312,-7.1312,-7.1312,-7.1312,-7.1312,-7.1312,-7.1312,-7.0745,-6.5852,0.0,0.0,0.0,0.0,0.0,-7.2606,0.0,-7.4441,-7.5799,-7.6276,-7.6607,-7.7163,-7.7273,-7.7273,-7.7273,-7.7273,-7.7273,-7.7273,-7.7273,-7.7273,-7.7273,-7.7273,-7.7273,-7.7273,-7.7273,-7.7273,-7.7273,-7.7279,-7.7217,-7.7124,-7.6897,-7.6336,-7.5335,-7.4456,-7.3527,-7.2533,-7.249,-7.29,-7.3747,-7.5345,-7.6445,-7.7127,-7.8127,-7.8581,-7.8618,-7.8836,-7.8758,-7.8459,-7.837,-7.8305,-7.8272,-7.8453,-7.842,-7.8207,-7.8121,-7.7841,-7.7554,-7.772,-7.7475,-7.6964,-7.6563,-7.6286,-7.6005,-7.5302,-7.51,-7.51,-7.51,-7.51,-7.51,-7.51,-7.51,-7.51,-7.51,-7.51,-7.51,-7.51,-7.51,-7.4762,-7.368,-7.3477,-7.3477,-7.3477,-7.3477,-7.3477,-7.3477,-7.3477,-7.3477,-7.3477,-7.3308,-7.3172,-7.3172,-7.3003,-7.2868,-7.2868,-7.2868,-7.2665,-7.2124,-7.209,-7.1853,-7.1345,-7.1312,-7.1312,-7.1312,-7.1312,-7.1312,-7.1312,-7.1312,-7.1312,-7.1312,-7.1312,-7.1176,-6.5228,-6.5999,-6.7063,-6.8531,0.0,0.0,-7.1835,0.0,0.0,-7.4918,-7.5359,-7.5873,-7.6644,-7.6827,-7.6937,-7.7237,-7.7273,-7.7273,-7.7273,-7.7273,-7.7273,-7.7273,-7.7273,-7.7273,-7.7273,-7.7273,-7.7273,-7.7273,-7.7273,-7.7279,-7.7186,-7.7029,-7.6636,-7.6065,-7.4865,-7.4096,-7.3775,-7.3775,-7.4194,-7.4913,-7.6726,-7.7773,-7.8099,-7.9096,-7.9587,-7.9587,-7.9949,-8.0128,-8.0229,-7.9992,-7.9774,-7.9624,-7.9883,-7.9994,-7.9996,-7.9793,-7.9458,-7.9076,-7.9423,-7.9014,-7.8315,-7.784,-7.7396,-7.694,-7.6007,-7.5709,-7.5709,-7.5709,-7.5709,-7.5709,-7.5709,-7.5709,-7.5709,-7.5709,-7.5709,-7.5709,-7.5709,-7.5709,-7.5439,-7.4559,-7.4424,-7.4424,-7.4424,-7.4424,-7.4424,-7.4424,-7.4424,-7.4424,-7.4424,-7.4153,-7.395,-7.395,-7.368,-7.3477,-7.3477,-7.3477,-7.3308,-7.2868,-7.2868,-7.2665,-7.2225,-7.1921,-7.1751,-7.1751,-7.1481,-7.1312,-7.1312,-7.1312,-7.1312,-7.1312,-7.1312,-7.1312,-6.5264,-6.5448,-6.5962,-6.8201,-6.9376,0.0,-7.0881,0.0,0.0,-7.356,-7.4221,-7.5028,-7.5836,-7.5983,-7.624,-7.7017,-7.7163,-7.72,-7.7273,-7.7273,-7.7273,-7.7273,-7.7273,-7.7273,-7.7273,-7.7273,-7.7273,-7.7273,-7.7273,-7.7273,-7.7273,-7.7186,-7.7124,-7.7092,-7.5441,-7.4922,-7.5629,-7.5702,-7.6086,-7.6812,-7.8527,-7.9324,-7.9301,-8.0162,-8.0591,-8.0628,-8.1321,-8.1649,-8.1683,-8.1683,-8.1211,-8.0631,-8.1188,-8.141,-8.141,-8.1199,-8.0584,-7.9952,-8.0804,-8.0061,-7.8688,-7.8606,-7.8054,-7.7219,-7.63,-7.6007,-7.6007,-7.6007,-7.5913,-7.5865,-7.5865,-7.5865,-7.5818,-7.5723,-7.5709,-7.5709,-7.5709,-7.5709,-7.5709,-7.5709,-7.5709,-7.5709,-7.5709,-7.5709,-7.5709,-7.5709,-7.5709,-7.5709,-7.5709,-7.5134,-7.4728,-7.4728,-7.4119,-7.3713,-7.3713,-7.3713,-7.3713,-7.3612,-7.3612,-7.3578,-7.3477,-7.2868,-7.2529,-7.2529,-7.1887,-7.1515,-7.1447,-7.1345,-7.1312,-7.1312,-7.1312,-7.1312,0.0,0.0,0.0,-6.765,-6.8531,0.0,0.0,-7.0624,-7.1945,0.0,-7.3377,-7.4184,-7.4992,-7.5139,-7.5395,-7.6203,-7.635,-7.657,-7.72,-7.7273,-7.7273,-7.7273,-7.7273,-7.7273,-7.7273,-7.7273,-7.7273,-7.7273,-7.7273,-7.7273,-7.7273,-7.731,-7.7217,-7.7092,-7.6063,-7.5835,-7.6518,-7.6554,-7.7307,-7.8669,-7.9846,-8.0655,-8.1107,-8.1459,-8.1633,-8.1633,-8.1779,-8.1919,-8.2088,-8.2088,-8.1912,-8.1599,-8.1576,-8.1581,-8.1547,-8.141,-8.1128,-8.084,-8.1021,-8.0876,-8.0473,-7.9757,-7.9404,-7.9125,-7.8147,-7.7891,-7.7891,-7.7891,-7.7361,-7.685,-7.685,-7.685,-7.6622,-7.5865,-7.5709,-7.5709,-7.5709,-7.5709,-7.5709,-7.5709,-7.5709,-7.5709,-7.5709,-7.5709,-7.5709,-7.5709,-7.5709,-7.5709,-7.5709,-7.5574,-7.5473,-7.5473,-7.5371,-7.527,-7.527,-7.527,-7.5033,-7.4424,-7.439,-7.4119,-7.351,-7.3341,-7.3274,-7.3274,-7.3138,-7.2766,-7.2191,-7.1616,-7.1312,-7.1312,-7.1312,-7.1312,0.0,0.0,0.0,-6.7504,-6.8311,0.0,0.0,0.0,-7.0807,-7.1211,-7.1945,-7.2753,-7.356,-7.4037,-7.4551,-7.5359,-7.5506,-7.5799,-7.6607,-7.7047,-7.7273,-7.7273,-7.7273,-7.7273,-7.7273,-7.7273,-7.7273,-7.7273,-7.7273,-7.7273,-7.7273,-7.7273,-7.7279,-7.7217,-7.6799,-7.6937,-7.7627,-7.8096,-7.8854,-7.9973,-8.0959,-8.1549,-8.1751,-8.1952,-8.2055,-8.2055,-8.2055,-8.2121,-8.2186,-8.2186,-8.2154,-8.2022,-8.1717,-8.1579,-8.1579,-8.1445,-8.1375,-8.1339,-8.1339,-8.1305,-8.1128,-8.0177,-7.9834,-7.9601,-7.8688,-7.8399,-7.8315,-7.7848,-7.7405,-7.6985,-7.6531,-7.6392,-7.6253,-7.5818,-7.5709,-7.5709,-7.5709,-7.5709,-7.5709,-7.5709,-7.5709,-7.5709,-7.5709,-7.5709,-7.5709,-7.5709,-7.5709,-7.5709,-7.5709,-7.5709,-7.5709,-7.5709,-7.5709,-7.5709,-7.5709,-7.5709,-7.554,-7.5168,-7.5168,-7.4965,-7.4593,-7.4255,-7.3883,-7.3477,-7.3477,-7.3308,-7.2935,-7.2563,-7.2022,-7.1312,-7.1312,-7.1312,0.0,0.0,0.0,0.0,0.0,-6.8678,0.0,0.0,0.0,0.0,0.0,0.0,0.0,0.0,0.0,-7.4331,0.0,0.0,0.0,-7.635,0.0,-7.7237,-7.7273,-7.7273,-7.7273,-7.7273,-7.7273,-7.7273,-7.7273,-7.7273,-7.7273,-7.7273,-7.7273,-7.7273,-7.7498,-7.7964,-7.8763,-7.9596,-8.0362,-8.0984,-8.1818,-8.2121,-8.1952,-8.2121,-8.2186,-8.2186,-8.2186,-8.2186,-8.2186,-8.2186,-8.2186,-8.2121,-8.1785,-8.1683,-8.1649,-8.1478,-8.1512,-8.1579,-8.1579,-8.1512,-8.1305,-8.0512,-8.0177,-7.9908,-7.917,-7.8811,-7.8565,-7.8012,-7.7624,-7.7175,-7.6439,-7.6101,-7.5913,-7.5757,-7.5709,-7.5709,-7.5709,-7.5709,-7.5709,-7.5709,-7.5709,-7.5709,-7.5709,-7.5709,-7.5709,-7.5709,-7.5709,-7.5709,-7.5709,-7.5709,-7.5709,-7.5709,-7.5709,-7.5709,-7.5709,-7.5709,-7.5709,-7.5709,-7.5709,-7.5709,-7.5709,-7.5134,-7.4525,-7.3916,-7.3916,-7.3849,-7.3713,-7.3713,-7.3037,-7.1718,-7.1582,-7.1515,0.0,0.0,0.0,0.0,-6.8311,-6.7834,0.0,0.0,-6.9045,-6.9045,0.0,0.0,0.0,0.0,0.0,0.0,0.0,0.0,-7.3964,-7.4661,0.0,-7.7127,-7.7273,-7.7273,-7.7273,-7.7273,-7.7273,-7.7273,-7.7273,-7.7273,-7.7273,-7.7273,-7.7273,-7.7273,-7.8086,-7.8862,-7.9668,-8.0442,-8.1249,-8.2055,-8.2154,-8.2186,-8.2154,-8.2186,-8.2186,-8.2186,-8.2186,-8.2186,-8.2186,-8.2186,-8.2088,-8.1919,-8.1885,-8.1852,-8.1852,-8.1649,-8.1615,-8.1579,-8.1579,-8.1512,-8.1375,-8.1305,-8.1128,-8.0948,-8.0804,-8.0249,-7.9792,-8.0436,-7.9487,-7.8231,-7.8147,-7.7537,-7.6759,-7.5913,-7.5709,-7.5709,-7.5709,-7.5709,-7.5709,-7.5709,-7.5709,-7.5709,-7.5709,-7.5709,-7.5709,-7.5709,-7.5709,-7.5709,-7.5709,-7.5709,-7.5709,-7.5709,-7.5709,-7.5709,-7.5709,-7.5709,-7.5709,-7.5709,-7.5709,-7.5709,-7.5709,-7.5608,-7.554,-7.5439,-7.5439,-7.5134,-7.4492,-7.4492,-7.4052,-7.3206,-7.2563,-7.2293,0.0,0.0,0.0,0.0,0.0,0.0,-6.9082,0.0,-6.9449,-6.9009,0.0,0.0,0.0,0.0,0.0,0.0,-7.2496,0.0,0.0,0.0,0.0,0.0,0.0,0.0,-7.7237,-7.7273,-7.7273,-7.7273,-7.7273,-7.7273,-7.7273,-7.7273,-7.7273,-7.7273,-7.8589,-7.9433,-7.98,-8.1048,-8.1856,-8.2186,-8.2186,-8.2186,-8.2186,-8.2186,-8.2186,-8.2186,-8.2186,-8.2186,-8.2186,-8.2186,-8.2154,-8.2088,-8.2088,-8.1985,-8.1885,-8.1818,-8.1852,-8.1919,-8.1919,-8.1751,-8.1478,-8.1305,-8.1163,-8.1128,-8.1128,-8.084,-8.051,-8.0326,-7.9408,-7.8273,-7.7797,-7.6996,-7.6194,-7.5771,-7.5709,-7.5709,-7.5709,-7.5709,-7.5709,-7.5709,-7.5709,-7.5709,-7.5709,-7.5709,-7.5709,-7.5709,-7.5709,-7.5709,-7.5709,-7.5709,-7.5709,-7.5709,-7.5709,-7.5709,-7.5709,-7.5709,-7.5709,-7.5709,-7.5709,-7.5709,-7.5709,-7.5709,-7.5709,-7.5709,-7.5709,-7.554,-7.5236,-7.5236,-7.5067,-7.4728,-7.3578,-7.3037,-7.2459,0.0,0.0,0.0,0.0,0.0,0.0,0.0,0.0,0.0,0.0,0.0,0.0,0.0,0.0,0.0,0.0,-7.1982,0.0,0.0,0.0,0.0,0.0,0.0,0.0,-7.7163,-7.7273,-7.7273,-7.7273,-7.7273,-7.7273,-7.7273,-7.7273,-7.7273,-7.8699,-7.958,-7.98,-8.1158,-8.1966,-8.2186,-8.2186,-8.2186,-8.2186,-8.2186,-8.2186,-8.2186,-8.2186,-8.2186,-8.2186,-8.2186,-8.2186,-8.2186,-8.2186,-8.2121,-8.1952,-8.1952,-8.2088,-8.2186,-8.2121,-8.1852,-8.1512,-8.1199,-8.1164,-8.1163,-8.1128,-8.1164,-8.1056,-8.0288,-7.9448,-7.8565,-7.7667,-7.677,-7.6007,-7.5723,-7.5709,-7.5709,-7.5709,-7.5709,-7.5709,-7.5709,-7.5709,-7.5709,-7.5709,-7.5709,-7.5709,-7.5709,-7.5709,-7.5709,-7.5709,-7.5709,-7.5709,-7.5709,-7.5709,-7.5709,-7.5709,-7.5709,-7.5709,-7.5709,-7.5709,-7.5709,-7.5709,-7.5709,-7.5709,-7.5709,-7.5709,-7.5709,-7.5709,-7.5709,-7.5709,-7.5676,-7.439,-7.3781,0.0,-7.3634,-7.2422,-7.2422,-7.1248,-7.011,-7.011,0.0,-6.9853,0.0,0.0,0.0,0.0,0.0,0.0,0.0,0.0,0.0,0.0,0.0,0.0,0.0,0.0,0.0,0.0,-7.6864,-7.7273,0.0,-7.7273,-7.7273,-7.7273,-7.7273,-7.7273,-7.7273,-7.8185,-7.8993,-7.9764,-8.0608,-8.1415,-8.2186,-8.2186,-8.2186,-8.2186,-8.2186,-8.2186,-8.2186,-8.2186,-8.2186,-8.2186,-8.2186,-8.2186,-8.2186,-8.2186,-8.2186,-8.2186,-8.2186,-8.2186,-8.2154,-8.1989,-8.172,-8.1375,-8.1163,-8.1234,-8.134,-8.1128,-8.1234,-8.134,-8.1128,-8.0436,-7.9522,-7.8606,-7.7711,-7.685,-7.5913,-7.5709,-7.5709,-7.5709,-7.5709,-7.5709,-7.5709,-7.5709,-7.5709,-7.5709,-7.5709,-7.5709,-7.5709,-7.5709,-7.5709,-7.5709,-7.5709,-7.5709,-7.5709,-7.5709,-7.5709,-7.5709,-7.5709,-7.5709,-7.5709,-7.5709,-7.5709,-7.5709,-7.5709,-7.5709,-7.5709,-7.5709,-7.5709,-7.5709,-7.5709,-7.5709,-7.5676,-7.4931,-7.4559,-7.5689,-7.4918,-7.4111,-7.4111,-7.3266,-7.2459,-7.2459,0.0,0.0,0.0,0.0,0.0,0.0,0.0,0.0,0.0,0.0,0.0,0.0,0.0,0.0,0.0,0.0,0.0,0.0,0.0,0.0,0.0,-7.7273,0.0,-7.7273,-7.7273,-7.7273,-7.7273,-7.8148,-7.8993,-7.9764,-8.0608,-8.1415,-8.2186,-8.2186,-8.2186,-8.2186,-8.2186,-8.2186,-8.2186,-8.2186,-8.2186,-8.2186,-8.2186,-8.2186,-8.2186,-8.2186,-8.2186,-8.2186,-8.2186,-8.2186,-8.2154,-8.1952,-8.1751,-8.1512,-8.1443,-8.1478,-8.1512,-8.134,-8.134,-8.134,-8.1164,-8.0473,-7.9562,-7.8647,-7.7754,-7.6895,-7.5913,-7.5709,-7.5709,-7.5709,-7.5709,-7.5709,-7.5709,-7.5709,-7.5709,-7.5709,-7.5709,-7.5709,-7.5709,-7.5709,-7.5709,-7.5709,-7.5709,-7.5709,-7.5709,-7.5709,-7.5709,-7.5709,-7.5709,-7.5709,-7.5709,-7.5709,-7.5709,-7.5709,-7.5709,-7.5709,-7.5709,-7.5709,-7.5709,-7.5709,-7.5709,-7.5709,-7.5676,-7.5439,-7.5337,-7.6533,-7.5946,-7.5322,-7.5322,-7.4735,-7.4147,-7.4147,-7.3487,-7.2716,0.0,0.0,0.0,0.0,0.0,0.0,0.0,0.0,0.0,0.0,-6.9743,0.0,0.0,0.0,0.0,0.0,0.0,0.0,0.0,0.0,0.0,0.0,-7.7273,-7.7273,-7.7273,-7.7855,-7.8662,-7.9764,-8.0314,-8.1122,-8.2186,-8.2186,-8.2186,-8.2186,-8.2186,-8.2186,-8.2186,-8.2186,-8.2186,-8.2186,-8.2186,-8.2186,-8.2186,-8.2186,-8.2186,-8.2186,-8.2186,-8.2154,-8.2088,-8.1919,-8.1785,-8.1579,-8.1579,-8.1579,-8.1544,-8.1445,-8.141,-8.1231,-8.0439,-8.0261,-7.9954,-7.8421,-7.8054,-7.7746,-7.6485,-7.6194,-7.6194,-7.6194,-7.5913,-7.5771,-7.6148,-7.5913,-7.5709,-7.5709,-7.5709,-7.5709,-7.5709,-7.5709,-7.5709,-7.5709,-7.5709,-7.5709,-7.5709,-7.5709,-7.5709,-7.5709,-7.5709,-7.5709,-7.5709,-7.5709,-7.5709,-7.5709,-7.5709,-7.5709,-7.5709,-7.5709,-7.5709,-7.5709,-7.5709,-7.5709,-7.5709,-7.5709,-7.5709]},{"header":{"parameterUnit":"m.s-1","parameterCategory":1,"la1":30.6,"la2":29.2853,"lo1":-89.7004,"lo2":-87.6739,"dx":0.0162,"dy":0.0183,"nx":112,"ny":82,"refTime":"2022-12-28T18:00:00:Z","depth":0,"parameterNumber":3,"parameterNumberName":"V-component_of_WINDS"},"data":[0.0,0.0,0.0,0.0,0.0,0.0,0.0,0.0,0.0,0.0,0.0,0.0,0.0,0.0,0.0,0.0,0.0,0.0,0.0,0.0,0.0,0.0,0.0,0.0,0.0,0.0,0.0,0.0,0.0,0.0,0.0,0.0,0.0,0.0,0.0,0.0,0.0,0.0,0.0,0.0,0.0,0.0,0.0,0.0,0.0,0.0,0.0,0.0,0.0,0.0,0.0,0.0,0.0,0.0,0.0,0.0,0.0,0.0,0.0,0.0,0.0,0.0,0.0,0.0,0.0,0.0,0.0,0.0,0.0,0.0,0.0,0.0,0.0,0.0,0.0,0.0,0.0,0.0,0.0,0.0,0.0,0.0,0.0,0.0,0.0,0.0,0.0,0.0,0.0,0.0,2.9714,3.0231,3.029,3.029,3.029,2.9987,2.9623,2.9196,0.0,0.0,0.0,0.0,0.0,0.0,0.0,0.0,0.0,0.0,0.0,0.0,0.0,0.0,0.0,0.0,0.0,0.0,0.0,0.0,0.0,0.0,0.0,0.0,0.0,0.0,0.0,0.0,0.0,0.0,0.0,0.0,0.0,0.0,0.0,0.0,0.0,0.0,0.0,0.0,0.0,0.0,0.0,0.0,0.0,0.0,0.0,0.0,0.0,0.0,0.0,0.0,0.0,0.0,0.0,0.0,0.0,0.0,0.0,0.0,0.0,0.0,0.0,0.0,0.0,0.0,0.0,0.0,0.0,0.0,0.0,0.0,0.0,0.0,0.0,0.0,0.0,0.0,0.0,0.0,0.0,0.0,0.0,0.0,0.0,0.0,0.0,0.0,0.0,0.0,0.0,0.0,0.0,0.0,0.0,0.0,0.0,0.0,0.0,0.0,0.0,0.0,0.0,0.0,3.0346,3.1391,3.1529,3.1529,3.1529,3.0903,3.0515,3.0435,0.0,0.0,0.0,0.0,0.0,0.0,0.0,0.0,0.0,0.0,0.0,0.0,0.0,0.0,0.0,0.0,0.0,0.0,0.0,0.0,0.0,0.0,0.0,0.0,0.0,0.0,0.0,0.0,0.0,0.0,0.0,0.0,0.0,0.0,0.0,0.0,0.0,0.0,0.0,0.0,0.0,0.0,0.0,0.0,0.0,0.0,0.0,0.0,0.0,0.0,0.0,0.0,0.0,0.0,0.0,0.0,0.0,0.0,0.0,0.0,0.0,0.0,0.0,0.0,0.0,0.0,0.0,0.0,0.0,0.0,0.0,0.0,0.0,0.0,0.0,0.0,0.0,0.0,0.0,0.0,0.0,0.0,0.0,0.0,0.0,0.0,0.0,0.0,0.0,0.0,0.0,0.0,0.0,0.0,0.0,0.0,0.0,0.0,0.0,0.0,0.0,0.0,0.0,3.0826,3.1515,3.2207,3.2133,3.2076,3.2076,3.1606,3.112,3.071,2.9908,0.0,0.0,0.0,0.0,0.0,0.0,0.0,0.0,0.0,0.0,0.0,0.0,0.0,0.0,0.0,0.0,0.0,0.0,0.0,0.0,0.0,0.0,0.0,0.0,0.0,0.0,0.0,0.0,0.0,0.0,0.0,0.0,0.0,0.0,0.0,0.0,0.0,0.0,0.0,0.0,0.0,0.0,0.0,0.0,0.0,0.0,0.0,0.0,0.0,0.0,0.0,0.0,0.0,0.0,0.0,0.0,0.0,0.0,0.0,0.0,0.0,0.0,0.0,0.0,0.0,0.0,0.0,0.0,0.0,0.0,0.0,0.0,0.0,0.0,0.0,0.0,0.0,0.0,0.0,0.0,0.0,0.0,0.0,0.0,0.0,0.0,0.0,0.0,0.0,0.0,0.0,0.0,0.0,0.0,0.0,0.0,0.0,0.0,0.0,0.0,0.0,0.0,3.1701,3.2477,3.2669,3.2498,3.2363,3.2363,3.2076,3.1647,3.0983,3.0333,0.0,0.0,0.0,0.0,0.0,0.0,0.0,0.0,0.0,0.0,0.0,0.0,0.0,0.0,0.0,0.0,0.0,0.0,0.0,0.0,0.0,0.0,0.0,0.0,0.0,0.0,0.0,0.0,0.0,0.0,0.0,0.0,0.0,0.0,0.0,0.0,0.0,0.0,0.0,0.0,0.0,0.0,0.0,0.0,0.0,0.0,0.0,0.0,0.0,0.0,0.0,0.0,0.0,0.0,0.0,0.0,0.0,0.0,0.0,0.0,0.0,0.0,0.0,0.0,0.0,0.0,0.0,0.0,0.0,0.0,0.0,0.0,0.0,0.0,0.0,0.0,0.0,0.0,0.0,0.0,0.0,0.0,0.0,0.0,0.0,0.0,0.0,0.0,0.0,0.0,0.0,0.0,0.0,0.0,0.0,0.0,0.0,0.0,0.0,0.0,0.0,0.0,3.2189,3.2669,3.2669,3.2669,3.2669,3.2669,3.242,3.2113,3.1747,3.0661,0.0,0.0,0.0,0.0,0.0,0.0,0.0,0.0,0.0,0.0,0.0,0.0,0.0,0.0,0.0,0.0,0.0,0.0,0.0,0.0,0.0,0.0,0.0,0.0,0.0,0.0,0.0,0.0,0.0,0.0,0.0,0.0,0.0,0.0,0.0,0.0,0.0,0.0,0.0,0.0,0.0,0.0,0.0,0.0,0.0,0.0,0.0,0.0,0.0,0.0,0.0,0.0,0.0,0.0,0.0,0.0,0.0,0.0,0.0,0.0,0.0,0.0,0.0,0.0,0.0,0.0,0.0,0.0,0.0,0.0,0.0,0.0,0.0,0.0,0.0,0.0,0.0,0.0,0.0,0.0,0.0,0.0,0.0,0.0,0.0,0.0,0.0,0.0,0.0,0.0,0.0,0.0,0.0,0.0,0.0,0.0,0.0,0.0,0.0,0.0,0.0,0.0,3.3351,3.3818,3.3818,3.3161,3.2669,3.2669,3.2612,3.242,3.2133,0.0,0.0,0.0,0.0,0.0,0.0,0.0,0.0,0.0,0.0,0.0,0.0,0.0,0.0,0.0,0.0,0.0,0.0,0.0,0.0,0.0,0.0,0.0,0.0,0.0,0.0,0.0,0.0,0.0,0.0,0.0,0.0,0.0,0.0,0.0,0.0,0.0,0.0,0.0,0.0,0.0,0.0,0.0,0.0,0.0,0.0,0.0,0.0,0.0,0.0,0.0,0.0,0.0,0.0,0.0,0.0,0.0,0.0,0.0,0.0,0.0,0.0,0.0,0.0,0.0,0.0,0.0,0.0,0.0,0.0,0.0,0.0,0.0,0.0,0.0,0.0,0.0,0.0,0.0,0.0,0.0,0.0,0.0,0.0,0.0,0.0,0.0,0.0,0.0,0.0,0.0,0.0,0.0,0.0,0.0,0.0,0.0,0.0,0.0,0.0,0.0,0.0,3.3626,3.4472,3.5024,3.5024,3.4302,3.3818,3.3818,3.3818,3.3537,3.2856,0.0,0.0,0.0,0.0,0.0,0.0,0.0,0.0,0.0,0.0,0.0,0.0,0.0,0.0,0.0,0.0,0.0,0.0,0.0,0.0,0.0,0.0,0.0,0.0,0.0,0.0,0.0,0.0,0.0,0.0,0.0,0.0,0.0,0.0,0.0,0.0,0.0,0.0,0.0,0.0,0.0,0.0,0.0,0.0,0.0,0.0,0.0,0.0,0.0,0.0,0.0,0.0,0.0,0.0,0.0,0.0,0.0,0.0,0.0,0.0,0.0,0.0,0.0,0.0,0.0,0.0,0.0,0.0,0.0,0.0,0.0,0.0,0.0,0.0,0.0,0.0,0.0,0.0,0.0,0.0,0.0,0.0,0.0,0.0,0.0,0.0,0.0,0.0,0.0,0.0,0.0,0.0,0.0,0.0,0.0,0.0,0.0,0.0,0.0,0.0,0.0,0.0,3.436,3.5498,3.624,3.624,3.6185,3.6185,3.6185,3.6185,3.5585,0.0,0.0,0.0,0.0,0.0,0.0,0.0,0.0,0.0,0.0,0.0,0.0,0.0,0.0,0.0,0.0,0.0,0.0,0.0,0.0,0.0,0.0,0.0,0.0,0.0,0.0,0.0,0.0,0.0,0.0,0.0,0.0,0.0,0.0,0.0,0.0,0.0,0.0,0.0,0.0,0.0,0.0,0.0,0.0,0.0,0.0,0.0,0.0,0.0,0.0,0.0,0.0,0.0,0.0,0.0,0.0,0.0,0.0,0.0,0.0,0.0,0.0,0.0,0.0,0.0,0.0,0.0,0.0,0.0,0.0,0.0,0.0,0.0,0.0,0.0,0.0,0.0,0.0,0.0,0.0,0.0,0.0,0.0,0.0,0.0,0.0,0.0,0.0,0.0,0.0,0.0,0.0,0.0,0.0,0.0,0.0,0.0,0.0,0.0,0.0,0.0,0.0,0.0,3.5527,3.6696,3.7394,3.7394,3.6673,3.6185,3.6185,3.6185,3.6022,3.5585,0.0,0.0,0.0,0.0,0.0,0.0,0.0,0.0,0.0,0.0,0.0,0.0,0.0,0.0,0.0,0.0,0.0,0.0,0.0,0.0,0.0,0.0,0.0,0.0,0.0,0.0,0.0,0.0,0.0,0.0,0.0,0.0,0.0,0.0,0.0,0.0,0.0,0.0,0.0,0.0,0.0,0.0,0.0,0.0,0.0,0.0,0.0,0.0,0.0,0.0,0.0,0.0,0.0,0.0,0.0,0.0,0.0,0.0,0.0,0.0,0.0,0.0,0.0,0.0,0.0,0.0,0.0,0.0,0.0,0.0,0.0,0.0,0.0,0.0,0.0,0.0,0.0,0.0,0.0,0.0,0.0,0.0,0.0,0.0,0.0,0.0,0.0,0.0,0.0,0.0,0.0,0.0,0.0,0.0,0.0,0.0,0.0,0.0,0.0,0.0,0.0,0.0,3.6741,3.7897,3.8607,3.8607,3.8003,3.7607,3.7607,3.7607,3.7394,3.6911,0.0,0.0,0.0,0.0,0.0,0.0,0.0,0.0,0.0,0.0,0.0,0.0,0.0,0.0,0.0,0.0,0.0,0.0,0.0,0.0,0.0,0.0,0.0,0.0,0.0,0.0,0.0,0.0,0.0,0.0,0.0,0.0,0.0,0.0,0.0,0.0,0.0,0.0,0.0,0.0,0.0,0.0,0.0,0.0,0.0,0.0,0.0,0.0,0.0,0.0,0.0,0.0,0.0,0.0,0.0,0.0,0.0,0.0,0.0,0.0,0.0,0.0,0.0,0.0,0.0,0.0,0.0,0.0,0.0,0.0,0.0,0.0,0.0,0.0,0.0,0.0,0.0,0.0,0.0,0.0,0.0,0.0,0.0,0.0,0.0,0.0,0.0,0.0,0.0,0.0,0.0,0.0,0.0,0.0,0.0,0.0,0.0,0.0,0.0,0.0,0.0,0.0,3.7825,3.9022,3.9772,3.9772,3.9823,3.9848,3.9848,3.9848,3.9382,3.8181,0.0,0.0,0.0,0.0,0.0,0.0,0.0,0.0,0.0,0.0,0.0,0.0,0.0,0.0,0.0,0.0,0.0,0.0,0.0,0.0,0.0,0.0,0.0,0.0,0.0,0.0,0.0,0.0,0.0,0.0,0.0,0.0,0.0,0.0,0.0,0.0,0.0,0.0,0.0,0.0,0.0,0.0,0.0,0.0,0.0,0.0,0.0,0.0,0.0,0.0,0.0,0.0,0.0,0.0,0.0,0.0,0.0,0.0,0.0,0.0,3.0215,3.0059,0.0,0.0,0.0,0.0,0.0,0.0,0.0,0.0,0.0,0.0,0.0,0.0,0.0,0.0,0.0,0.0,0.0,0.0,0.0,0.0,0.0,0.0,0.0,0.0,0.0,0.0,0.0,0.0,0.0,0.0,0.0,0.0,0.0,0.0,0.0,0.0,0.0,0.0,0.0,0.0,3.7825,3.929,4.035,4.035,4.0727,4.0924,4.0924,4.0924,4.0696,3.9982,3.9111,0.0,0.0,0.0,0.0,0.0,0.0,0.0,0.0,0.0,0.0,0.0,0.0,0.0,0.0,0.0,0.0,0.0,0.0,0.0,0.0,0.0,0.0,0.0,0.0,0.0,0.0,0.0,0.0,0.0,0.0,0.0,0.0,0.0,0.0,0.0,0.0,0.0,0.0,0.0,0.0,0.0,0.0,0.0,0.0,0.0,0.0,0.0,0.0,0.0,0.0,0.0,0.0,0.0,0.0,0.0,0.0,0.0,0.0,0.0,3.0644,3.0527,0.0,0.0,0.0,0.0,0.0,0.0,0.0,0.0,0.0,0.0,0.0,0.0,0.0,0.0,0.0,0.0,0.0,0.0,0.0,0.0,0.0,0.0,0.0,0.0,0.0,0.0,0.0,0.0,0.0,0.0,0.0,0.0,0.0,0.0,0.0,0.0,0.0,0.0,0.0,0.0,3.9108,4.0181,4.0849,4.0849,4.1125,4.1275,4.1275,4.1275,4.1175,4.0874,4.0096,0.0,0.0,0.0,0.0,0.0,0.0,0.0,0.0,0.0,0.0,0.0,0.0,0.0,0.0,0.0,0.0,0.0,0.0,0.0,0.0,0.0,0.0,0.0,0.0,0.0,0.0,0.0,0.0,0.0,0.0,0.0,0.0,0.0,0.0,0.0,0.0,0.0,0.0,0.0,0.0,0.0,0.0,0.0,0.0,0.0,0.0,0.0,0.0,0.0,0.0,0.0,0.0,0.0,3.0898,3.0937,3.0996,3.0918,3.0937,3.0996,3.0918,3.0995,3.1228,3.1228,0.0,0.0,0.0,0.0,0.0,0.0,0.0,0.0,0.0,0.0,0.0,0.0,0.0,0.0,0.0,0.0,0.0,0.0,0.0,0.0,0.0,0.0,3.688,3.7108,3.7158,3.6931,3.6062,0.0,0.0,0.0,0.0,0.0,0.0,0.0,0.0,0.0,0.0,0.0,4.0651,4.1153,4.148,4.148,4.1555,4.163,4.163,4.163,4.158,4.148,4.1053,4.0727,0.0,0.0,0.0,0.0,0.0,0.0,0.0,0.0,0.0,0.0,0.0,0.0,0.0,0.0,0.0,0.0,0.0,0.0,0.0,0.0,0.0,0.0,0.0,0.0,0.0,0.0,0.0,0.0,0.0,0.0,0.0,0.0,3.0684,3.0801,0.0,0.0,0.0,0.0,0.0,0.0,0.0,0.0,0.0,0.0,0.0,0.0,0.0,3.0898,3.0898,3.0898,3.0898,3.0898,3.0898,3.1074,3.1426,3.1055,3.1094,3.1406,3.1055,0.0,3.2457,3.2457,0.0,0.0,0.0,0.0,0.0,0.0,0.0,0.0,0.0,0.0,0.0,0.0,0.0,0.0,0.0,0.0,0.0,0.0,0.0,0.0,0.0,0.0,3.8463,3.8515,3.8515,3.8567,3.8723,3.7831,3.7068,3.7268,3.7915,3.8389,0.0,0.0,0.0,0.0,0.0,0.0,4.1125,4.1706,4.2112,4.2112,4.2484,4.276,4.276,4.276,4.2559,4.2137,4.2037,4.1505,4.0551,4.045,0.0,0.0,0.0,0.0,0.0,0.0,0.0,0.0,0.0,0.0,0.0,0.0,0.0,0.0,0.0,0.0,0.0,0.0,0.0,0.0,0.0,0.0,0.0,0.0,0.0,0.0,0.0,0.0,0.0,3.0762,3.0898,3.0898,3.0898,3.0898,0.0,0.0,0.0,0.0,0.0,0.0,0.0,0.0,0.0,3.125,3.1484,3.1601,3.1601,3.1601,3.1601,3.1601,3.1601,3.1699,3.1875,3.1699,3.1719,3.1935,3.2435,3.3372,3.4432,3.3179,3.2685,3.2742,0.0,0.0,0.0,0.0,3.3685,3.3832,3.5002,3.5308,3.5292,3.5918,0.0,0.0,0.0,0.0,0.0,0.0,0.0,3.8056,3.8056,3.8408,3.8915,3.942,3.9519,3.9699,4.0287,3.9962,3.9387,3.8764,3.9216,3.9642,3.9642,4.0145,0.0,0.0,0.0,4.153,4.1781,4.2534,4.3087,4.3087,4.3564,4.389,4.389,4.389,4.3664,4.3112,4.2841,4.2313,4.148,4.0852,4.03,0.0,0.0,0.0,0.0,0.0,0.0,0.0,0.0,0.0,0.0,0.0,0.0,0.0,0.0,0.0,0.0,0.0,0.0,0.0,0.0,0.0,0.0,0.0,0.0,0.0,0.0,0.0,0.0,3.0898,3.0898,3.0898,3.0898,3.0898,0.0,0.0,0.0,0.0,0.0,0.0,3.1211,3.1523,3.168,3.168,3.1992,3.2229,3.2229,3.2229,3.2229,3.2229,3.2229,3.2226,3.2324,3.2226,3.2287,3.2385,3.3256,3.4327,3.5358,3.4382,3.399,3.4104,3.4931,3.5099,3.4875,3.5156,3.5268,3.5413,3.6484,3.6874,3.696,3.7756,3.7974,3.8022,3.8142,0.0,0.0,0.0,0.0,3.9022,3.9022,3.9259,3.9622,4.0255,4.0408,4.0561,4.12,4.1275,4.105,4.0275,4.045,4.0674,4.0674,4.1025,0.0,4.153,4.2007,4.2464,4.2615,4.3413,4.4016,4.4016,4.4367,4.4618,4.4618,4.4618,4.4443,4.4041,4.3489,4.2936,4.2439,4.1455,4.0877,4.0727,0.0,0.0,0.0,0.0,0.0,0.0,0.0,0.0,0.0,0.0,0.0,0.0,0.0,0.0,0.0,0.0,0.0,0.0,0.0,0.0,0.0,0.0,0.0,0.0,0.0,0.0,0.0,0.0,0.0,3.0898,3.0898,0.0,0.0,0.0,0.0,3.1484,3.1875,3.2109,3.2109,3.2129,3.2129,3.2129,3.2209,3.2229,3.2229,3.2229,3.2229,3.2229,3.2229,3.2383,3.2754,3.2344,3.2383,3.2734,3.2405,3.3035,3.4365,3.6652,3.7542,3.7542,3.7598,3.6916,3.6033,3.7201,3.7598,3.7699,3.8445,3.8659,3.8587,3.8166,3.7974,3.8094,3.8623,3.8983,0.0,0.0,4.0311,4.0744,4.0744,4.0985,4.12,4.1225,4.125,4.125,4.1275,4.1275,4.1275,4.12,4.1225,4.125,4.125,0.0,4.1505,4.2087,4.264,4.3112,4.3639,4.4217,4.4593,4.4593,4.4593,4.4618,4.4618,4.4618,4.4618,4.4593,4.4066,4.3514,4.2961,4.2439,4.1831,4.125,4.0727,0.0,0.0,0.0,0.0,0.0,0.0,0.0,0.0,0.0,0.0,0.0,0.0,0.0,0.0,0.0,0.0,0.0,0.0,0.0,0.0,0.0,0.0,0.0,0.0,0.0,0.0,0.0,0.0,3.1269,3.1289,0.0,3.168,3.1855,3.1934,3.1934,3.209,3.2229,3.2229,3.2422,3.2578,3.2578,3.2832,3.2969,3.2969,3.2969,3.2969,3.2969,3.2969,3.3483,3.4471,3.4309,3.4799,3.5718,3.6393,3.6963,3.7495,3.9232,3.9088,3.786,3.8671,3.8671,3.8391,3.8783,3.8974,3.8983,3.9227,3.932,3.9296,3.9104,3.9032,3.9056,3.9272,3.954,3.9782,3.9953,4.0439,4.0898,4.0898,4.1114,4.1376,4.1781,4.2133,4.2484,4.2836,4.3212,4.3407,4.3407,4.2585,4.1856,4.1856,4.2459,4.2986,4.3187,4.3689,4.4116,4.4292,4.4819,4.5171,4.5171,4.5497,4.5698,4.5698,4.5698,4.5547,4.5196,4.4995,4.4468,4.3539,4.2986,4.2434,4.1882,4.1329,4.1,0.0,0.0,0.0,0.0,0.0,0.0,0.0,0.0,0.0,0.0,0.0,0.0,0.0,0.0,0.0,0.0,0.0,0.0,0.0,0.0,0.0,0.0,0.0,0.0,0.0,3.1094,3.125,3.168,3.1738,3.1855,3.2148,3.2305,3.2383,3.2383,3.2519,3.2598,3.2598,3.2988,3.3223,3.3223,3.3633,3.3848,3.3848,3.3848,3.3848,3.3848,3.3848,3.4294,3.5161,3.5161,3.5894,3.7176,3.8011,3.8882,3.9781,4.0716,4.0433,3.9567,3.9977,4.0138,4.0138,4.0138,4.0138,4.0114,3.9946,3.9753,3.9609,3.9609,3.9609,3.9633,3.9826,4.0072,4.0366,4.0842,4.133,4.1823,4.2052,4.2268,4.2479,4.2911,4.3263,4.3639,4.3991,4.4367,4.4618,4.4618,4.374,4.2986,4.2986,4.3589,4.4091,4.4091,4.4568,4.492,4.492,4.5422,4.5773,4.5773,4.61,4.6301,4.6301,4.6301,4.615,4.5799,4.5598,4.5146,4.4392,4.384,4.3263,4.2766,4.1982,4.153,4.1275,0.0,0.0,0.0,0.0,0.0,0.0,0.0,0.0,0.0,0.0,0.0,0.0,0.0,0.0,0.0,0.0,0.0,0.0,0.0,0.0,0.0,0.0,0.0,3.1543,3.1543,3.1699,3.2129,3.2248,3.2187,3.2268,3.2598,3.2832,3.2832,3.3223,3.3457,3.3457,3.3867,3.4082,3.4082,3.4492,3.4707,3.4707,3.4707,3.4707,3.4707,3.4707,3.4707,3.4753,3.4818,3.5581,3.6914,3.6978,3.8477,4.0854,4.0854,4.1606,4.2723,4.1629,4.122,4.122,4.122,4.122,4.1172,4.0643,4.0138,3.9705,3.9705,3.9705,3.9801,4.0306,4.0676,4.1152,4.2569,4.3177,4.3647,4.4377,4.4618,4.4618,4.4618,4.4644,4.4644,4.4644,4.4669,4.4669,4.4669,4.4669,4.4669,4.4644,4.4644,4.4644,4.4644,4.5146,0.0,4.5522,4.5974,4.6301,4.6301,4.6301,4.6301,4.6301,4.6301,4.6301,4.6301,4.5799,4.5497,4.5497,4.4945,4.4392,4.384,4.2816,4.1932,4.1326,0.0,0.0,0.0,0.0,0.0,0.0,0.0,0.0,0.0,0.0,0.0,0.0,0.0,0.0,0.0,0.0,0.0,0.0,0.0,0.0,0.0,3.1992,3.1992,3.1992,3.1992,3.2148,3.2578,3.2617,3.2734,3.3047,3.3476,3.373,3.373,3.4121,3.4355,3.4355,3.4453,3.4531,3.4531,3.4629,3.4707,3.4707,3.4707,3.4707,3.4707,3.4707,3.521,3.6163,3.7148,3.8352,3.9663,4.067,4.1569,4.2257,4.2257,4.2436,4.2795,4.2506,4.2386,4.2386,4.2386,4.2386,4.2362,4.2217,4.2014,4.1894,4.1894,4.1894,4.1976,4.2331,4.2671,4.3036,4.3647,4.407,4.4327,4.4535,4.4618,4.4618,4.4618,4.4945,4.5246,4.5246,4.5573,4.5849,4.5849,4.5849,4.5598,4.4769,4.497,4.5246,4.5246,4.5723,4.6075,4.6075,4.6225,4.6301,4.6301,4.6301,4.6301,4.6301,4.6301,4.6301,4.6301,4.6175,4.5899,4.5497,4.5321,4.497,4.4418,4.3714,4.3087,0.0,0.0,0.0,0.0,0.0,0.0,0.0,0.0,0.0,0.0,0.0,0.0,0.0,0.0,0.0,0.0,0.0,0.0,0.0,0.0,0.0,0.0,3.2422,3.2559,3.291,3.2656,3.2656,3.3262,3.332,3.3496,3.3926,3.418,3.4336,3.4336,3.457,3.4707,3.4707,3.4883,3.498,3.498,3.5156,3.5254,3.5254,3.5254,3.5254,3.5254,3.5254,3.5633,3.6406,3.7236,3.8316,3.9658,4.1063,4.204,4.2617,4.3166,4.3433,4.3385,0.0,0.0,0.0,0.0,4.2819,4.2819,4.2819,4.2819,4.2819,4.2819,4.2819,4.2819,4.2974,4.3176,4.3462,4.4156,4.4442,4.4668,4.5212,4.5321,4.5321,4.5321,4.5598,4.5824,4.5824,4.6075,4.6301,4.6301,4.6301,0.0,4.5447,4.5598,4.5824,4.5824,4.61,4.6301,4.6301,4.6301,4.6301,4.6301,4.6301,4.6301,4.6301,4.6301,0.0,0.0,0.0,4.6175,4.5849,4.5623,0.0,0.0,0.0,4.3991,4.3664,4.3338,0.0,0.0,4.1576,4.1304,0.0,0.0,0.0,0.0,0.0,0.0,0.0,0.0,0.0,0.0,0.0,0.0,0.0,0.0,0.0,0.0,3.2988,3.3281,3.4043,3.3496,3.3301,3.4062,3.4141,3.4297,3.4668,3.4746,3.4785,3.4785,3.4824,3.4844,3.4844,3.5234,0.0,0.0,0.0,3.6016,3.6016,3.6016,3.6016,3.6016,3.6016,3.6016,3.6016,3.6152,3.6944,3.8175,3.9757,4.1184,4.242,4.3764,4.4285,4.4189,4.3313,4.2952,4.2952,4.2952,4.2952,4.2952,4.2952,0.0,0.0,4.2952,4.2952,4.3012,4.2988,4.3048,4.3264,4.4266,4.4569,4.4872,4.5935,4.6291,4.6341,4.6401,4.6451,4.6476,4.6476,4.6476,4.6476,4.6476,4.6451,4.6401,4.6401,4.6351,4.6301,4.6301,4.6301,4.6301,4.6301,4.6301,4.6301,4.6301,4.6301,0.0,4.6301,4.6301,4.6301,4.6301,4.6301,4.6301,4.6301,4.5849,4.5573,4.5573,4.502,4.4719,4.4719,4.4644,4.4618,4.4568,4.2554,4.1982,0.0,0.0,0.0,0.0,0.0,0.0,0.0,0.0,0.0,0.0,0.0,0.0,0.0,0.0,0.0,3.375,3.4101,3.4394,3.4551,3.4434,3.4394,3.4551,3.457,3.4609,3.4687,3.5039,3.5254,3.5254,3.5566,3.5762,3.5762,3.584,3.5898,3.5898,3.5976,3.6016,3.6016,3.6016,3.6016,3.6016,3.6016,0.0,3.6016,3.7193,3.7842,3.8242,4.0797,4.2038,4.242,4.3764,4.4285,4.4261,4.4069,4.4034,4.4034,4.4034,4.4034,4.4034,4.4034,4.4034,4.4034,4.4034,4.4034,4.4034,4.4341,4.4402,0.0,4.5012,4.5159,4.5244,4.5793,4.6201,4.6611,4.6856,4.7305,4.7606,4.7606,4.7606,4.7606,4.7606,4.7255,4.6979,4.6979,4.6602,4.6301,4.6301,4.6301,4.6301,4.6301,4.6301,4.6301,4.6301,4.6301,4.6301,4.6301,4.6301,4.6301,4.6301,4.6301,4.6301,4.6301,4.62,4.615,4.615,4.5598,4.5321,4.5321,4.4844,4.4618,4.4618,4.4192,4.4041,0.0,0.0,0.0,0.0,0.0,0.0,0.0,0.0,0.0,0.0,0.0,3.3242,3.3672,0.0,3.4141,3.4355,3.457,3.4785,3.5019,3.5039,3.5039,3.5039,3.5039,3.5137,3.5332,3.5566,3.5703,3.5703,3.5898,3.6016,3.6016,3.6016,3.6016,3.6016,3.623,3.6348,3.6348,3.6562,3.666,3.666,3.666,3.666,3.666,3.7399,3.7722,3.7791,3.9915,4.1243,4.2096,4.4206,4.5077,4.5077,4.5077,4.4741,4.4285,4.4285,4.4285,4.4285,4.4285,4.4285,4.4285,4.4285,4.4285,4.4347,4.447,4.4725,4.5043,4.5353,4.5611,4.5955,4.6452,4.6774,4.7097,4.7407,4.7732,4.7908,4.7908,4.7908,4.7908,4.7908,4.7707,4.7531,4.7531,4.728,4.6928,4.6401,4.6552,4.6728,4.6728,4.6954,4.7104,4.7104,4.7104,4.7104,4.7104,4.6878,4.6728,4.6728,4.6476,4.6301,4.6301,4.6301,4.6386,4.6566,4.6289,4.6197,4.6349,4.5893,4.5708,4.5708,4.5531,4.5171,0.0,0.0,0.0,0.0,0.0,0.0,0.0,3.293,3.3262,3.3594,3.3945,3.4297,3.4629,3.4766,3.4824,3.4824,3.4902,3.5078,3.5469,3.5586,3.5644,3.5644,3.5566,3.5644,3.5996,3.6016,3.6055,3.6133,3.6152,3.6191,3.6269,3.6269,3.6269,3.6269,3.6601,3.6797,3.6797,3.7129,3.7305,3.7305,3.7305,3.7305,3.7305,3.7305,3.7305,3.7355,3.913,4.0686,4.2215,4.4854,4.5934,4.5934,4.5934,4.5342,4.4597,4.4597,4.4597,4.4597,4.4597,4.4597,4.4597,4.4597,4.4597,4.4597,4.4597,4.4885,4.5348,4.5663,4.6105,4.6548,4.7244,4.7532,4.7669,4.8021,4.8159,4.8234,4.8234,4.8234,4.8234,4.8234,4.8159,4.8083,4.8083,4.7983,4.7606,4.6753,4.7004,4.728,4.728,4.7657,4.7908,4.7908,4.7908,4.7908,4.7908,4.7531,4.728,4.728,4.6878,4.6577,4.6476,4.6476,4.6547,4.6806,4.6806,4.6959,4.7205,4.6993,4.69,4.684,4.6541,4.5883,2.5962,2.9039,3.2162,3.3992,3.4414,3.4414,0.0,3.4453,3.4492,3.4551,3.459,3.4648,3.4687,3.5039,3.5312,3.5312,3.5625,3.5879,3.5937,3.6289,3.6523,3.6523,3.6191,3.5976,3.6016,3.6016,3.6172,3.6562,3.6601,3.6758,3.7129,3.7148,3.7148,3.7148,3.7207,3.7226,3.7226,3.7266,3.7305,3.7305,3.7305,3.7305,3.7305,3.7305,3.7305,3.7426,4.0188,4.2148,4.3565,4.5243,4.5934,4.5934,4.5934,4.5862,4.5742,4.5742,4.5742,4.5742,4.5742,4.5742,4.5742,4.5742,4.5742,4.5742,4.5742,4.579,4.5902,4.6221,4.6309,4.6548,4.7307,4.7868,4.828,4.8598,4.9038,4.9414,4.9414,4.9414,4.9414,4.9414,4.9012,4.8686,4.8686,4.8234,4.7857,4.7757,4.7782,4.7832,4.7832,4.7883,4.7908,4.7908,4.7908,4.7908,4.7908,4.7857,4.7832,4.7832,4.7757,4.7531,4.7054,4.6993,4.6924,4.6806,4.6806,4.6959,4.7205,4.7146,4.7146,4.7146,4.69,4.655,2.7317,2.9396,3.1381,3.4038,3.4707,3.4707,3.4707,3.4707,3.4766,3.5039,3.5098,3.5176,3.543,3.5625,3.584,3.6094,3.6289,3.6484,3.6719,3.6914,3.7031,3.7031,3.6875,3.6758,3.6758,3.6758,3.6836,3.7031,3.7031,3.7109,3.7285,3.7305,3.7305,3.7305,3.7539,3.7656,3.7656,3.791,3.8047,3.8047,3.8047,3.8047,3.8047,3.8047,3.8047,3.8171,4.0241,4.1476,4.2167,4.4568,4.5548,4.5615,4.6496,4.6848,4.6776,4.615,4.5934,4.5934,4.5934,4.5934,4.5934,4.5934,4.5934,4.5934,4.5934,4.615,4.6391,4.652,4.6932,4.7434,4.8016,4.8447,4.8853,4.9199,4.9439,4.959,4.959,4.959,4.959,4.959,4.9414,4.9264,4.9264,4.9063,4.8887,4.8887,4.8611,4.841,4.841,4.8686,4.8887,4.8887,4.8887,4.8887,4.8887,4.8586,4.841,4.841,4.8083,4.7807,4.7581,4.7581,4.7604,4.7744,4.7927,4.817,4.8446,4.8265,4.8205,4.8205,4.7658,4.7378,2.8542,2.9951,3.1281,3.427,3.5059,3.5059,3.5059,3.5059,3.5156,3.5488,3.5664,3.584,3.6133,3.6289,3.6484,3.6797,3.6836,3.6953,3.7246,3.7402,3.7461,3.7461,3.7578,3.7656,3.7656,3.7441,3.7344,3.7461,3.7461,3.7519,3.7637,3.7656,3.7656,3.7656,3.7949,3.8105,3.8105,3.8418,3.8574,3.8574,3.8574,3.8574,3.8574,3.8574,3.8574,3.872,4.0177,4.08,4.1013,4.3587,4.4641,4.4778,4.582,4.6516,4.6779,4.6019,4.6019,4.6367,4.6367,4.6367,4.6367,4.6367,4.6367,4.6367,4.6367,4.6631,4.692,4.7051,4.7537,4.8092,4.851,4.8772,4.9007,4.9396,4.9461,4.9461,4.959,4.959,4.959,4.959,4.959,4.959,4.959,4.959,4.959,4.959,4.9264,4.9012,4.9012,4.9339,4.959,4.959,4.959,4.959,4.959,4.9213,4.9012,4.9012,4.8611,4.8309,4.8159,4.8159,4.8271,4.8429,4.8676,4.8984,4.9377,4.9168,4.9106,4.9168,4.8589,4.8418,2.9249,3.115,3.2989,3.5384,3.5976,3.5976,3.5976,3.5976,3.5976,3.5996,3.6348,3.6641,3.6641,3.6992,3.7266,3.7266,3.7285,3.7285,3.7305,3.7656,3.791,3.791,3.8281,3.8535,3.8535,3.7793,3.7461,3.7871,3.791,3.8086,3.8516,3.8535,3.8535,3.8535,3.8555,3.8555,3.8555,3.8574,3.8574,3.8574,3.8574,3.8574,3.8574,3.8574,3.8574,3.872,4.0177,4.08,4.0942,4.2473,4.3101,4.3101,4.3101,4.407,4.5346,4.5323,4.6201,4.7449,4.7449,4.7449,4.7449,4.7449,4.7449,4.7449,4.7449,4.7473,4.7539,4.787,4.796,4.8092,4.851,4.86,4.8706,4.9007,4.9137,4.9202,4.9525,4.959,4.959,4.959,4.959,4.959,4.959,4.959,4.959,4.959,4.959,4.9565,4.9565,4.959,4.959,4.959,4.959,4.959,4.959,4.959,4.9565,4.9565,4.9565,4.9314,4.8761,4.8736,4.8674,4.8429,4.8404,4.8738,4.9377,4.9377,4.9533,4.9897,4.9507,4.9696,2.8274,2.9433,3.0398,3.2773,3.4296,3.5294,3.5294,3.6068,3.6875,3.6875,3.6992,3.709,3.709,3.7207,3.7383,3.7676,3.7715,3.7812,3.8105,3.8262,3.8359,3.8359,3.8476,3.8574,3.8574,3.832,3.8203,3.834,3.8359,3.8418,3.8574,3.8574,3.8574,3.8574,3.8574,3.8574,3.8574,3.8574,3.8574,3.8574,3.8574,3.8574,3.8574,3.8574,3.8574,3.8647,3.9136,3.9353,3.9478,4.0942,4.1559,4.163,4.2613,4.3932,4.5278,4.5278,4.6248,4.7497,4.7497,4.7497,4.7497,4.7497,4.7497,4.7497,4.7497,4.7497,4.7497,4.763,4.7828,4.8026,4.8182,4.8379,4.8666,4.8706,4.8772,4.8837,4.9202,4.9267,4.9332,4.9525,4.959,4.959,4.959,4.959,4.959,4.959,4.959,4.959,4.959,4.959,4.959,4.959,4.959,4.959,4.959,4.959,4.959,4.959,4.959,4.9515,4.9314,4.9314,4.9277,4.9229,4.9419,4.9609,4.9861,5.0113,5.0212,5.0338,5.005,4.9963,2.7659,2.8501,2.9183,3.1376,3.2957,3.4018,3.4018,3.4828,3.5777,3.6347,3.6551,3.686,3.7378,3.7656,3.7851,3.8105,3.8164,3.8262,3.8535,3.8574,3.8574,3.8574,3.8574,3.8574,3.8574,3.8574,3.8574,3.8574,3.8574,3.8574,3.8574,3.8574,3.8574,3.8574,3.8574,3.8574,3.8574,3.8574,3.8574,3.8574,3.8574,3.8574,3.8574,3.8574,3.8574,3.8574,3.8574,3.8574,3.8647,3.9622,4.0033,4.0105,4.1084,4.2333,4.3656,4.3656,4.4641,4.6022,4.7141,4.7497,4.7497,4.7497,4.7497,4.7497,4.7497,4.7497,4.7497,4.7497,4.763,4.7828,4.7828,4.805,4.8248,4.8379,4.8379,4.851,4.9007,4.9072,4.9202,4.9525,4.959,4.959,4.959,4.959,4.959,4.959,4.959,4.959,4.959,4.959,4.959,4.959,4.959,4.959,4.959,4.959,4.959,4.959,4.959,4.959,4.959,4.959,4.959,4.959,4.9783,5.0001,5.0129,5.0295,5.0487,5.0588,5.0359,5.0295,2.7391,2.8342,2.9315,3.108,3.1996,3.2414,3.2414,3.247,3.2982,3.4523,3.5175,3.6033,3.7518,3.8228,3.8574,3.8574,3.8574,3.8574,3.8574,3.8574,3.8574,3.8574,3.8574,3.8574,3.8574,3.8574,3.8574,3.8574,3.8574,3.8574,3.8574,3.8574,3.8574,3.8574,3.8574,3.8574,3.8574,3.8574,3.8574,3.8574,3.8574,3.8574,3.8574,3.8574,3.8574,3.8574,3.8574,3.8574,3.8574,3.8574,3.8574,3.8574,3.8574,3.9478,4.08,4.08,4.17,4.3448,4.6315,4.7298,4.7431,4.7497,4.7497,4.7497,4.7497,4.7497,4.7497,4.7497,4.7497,4.7497,4.7497,4.7497,4.7563,4.7894,4.796,4.8158,4.8877,4.9072,4.9137,4.9525,4.959,4.959,4.959,4.959,4.959,4.959,4.959,4.959,4.959,4.959,4.959,4.959,4.959,4.959,4.959,4.959,4.959,4.959,4.959,4.959,4.959,4.959,4.959,4.959,4.959,4.9783,5.0065,5.0129,5.0232,5.0588,5.0588,5.0588,2.6599,2.7004,2.7367,2.818,2.958,3.0833,3.1121,3.209,3.3143,3.3834,3.5112,3.6165,3.6533,3.7674,3.8574,3.8574,3.8574,3.8574,3.8574,3.8574,3.8574,3.8574,3.8574,3.8574,3.8574,3.8574,3.8574,3.8574,3.8574,3.8574,3.8574,3.8574,3.8574,3.8574,3.8574,3.8574,3.8574,3.8574,3.8574,3.8574,3.8574,3.8574,3.8574,3.8574,3.8574,3.8574,3.8574,3.8574,3.8574,3.8574,3.8574,3.8574,3.8574,3.9478,4.08,4.08,4.17,4.3101,4.3863,4.4914,4.6046,4.7141,4.7497,4.7497,4.7497,4.7497,4.7497,4.7497,4.7497,4.7497,4.7497,4.7497,4.7497,4.763,4.763,4.7762,4.8158,4.851,4.8837,4.9137,4.9396,4.959,4.959,4.959,4.959,4.959,4.959,4.959,4.959,4.959,4.959,4.959,4.959,4.959,4.959,4.959,4.959,4.959,4.959,4.959,4.959,4.959,4.959,4.959,4.959,4.9654,4.9719,5.0001,5.0129,5.0232,5.0232,5.0232,2.6179,2.652,2.685,2.7084,2.804,2.9105,2.9571,3.033,3.1315,3.2386,3.3977,3.5327,3.609,3.7511,3.8574,3.8574,3.8574,3.8574,3.8574,3.8574,3.8574,0.0,3.875,0.0,3.8848,3.9043,3.916,3.916,3.8965,3.8848,3.8848,3.9043,3.916,3.916,3.916,3.916,3.916,3.916,3.916,3.916,3.916,3.916,3.916,3.916,3.916,3.916,3.916,3.916,3.916,3.916,3.916,3.916,3.916,3.9657,4.0424,4.0424,4.0913,4.1689,4.2407,4.3191,4.4114,4.5188,4.5955,4.6516,4.6516,4.7008,4.7497,4.7497,4.7666,4.7858,4.7858,4.8026,4.8122,4.7906,4.7858,4.7852,4.8009,4.8182,4.851,4.9007,4.9396,4.959,4.959,4.959,4.959,4.959,4.959,4.959,4.959,4.959,4.959,4.959,4.959,4.959,4.959,4.959,4.959,4.959,4.959,4.959,4.959,4.959,4.959,4.959,4.959,4.959,4.959,4.9783,4.9847,4.9847,4.9847,4.9847,2.6079,2.6513,2.6953,2.6953,2.7175,2.7555,2.8118,2.8211,2.8744,3.0577,3.2462,3.4128,3.5644,3.7364,3.8574,3.8574,0.0,3.8574,3.8574,3.8574,3.8594,3.8652,3.8984,3.9219,3.9297,3.9668,3.9902,3.9902,3.957,3.9355,3.9297,3.9668,3.9902,3.9902,3.9902,3.9902,3.9902,3.9902,3.9902,3.9902,3.9902,3.9902,3.9902,3.9902,3.9902,3.9902,3.9902,3.9902,3.9902,3.9902,3.9902,3.9902,3.9902,3.9902,3.9902,3.9902,3.9902,4.0109,4.134,4.1838,4.1989,4.2855,4.4063,4.5188,4.5393,4.6391,4.7423,4.7647,4.805,4.8387,4.8387,4.8724,4.8964,4.8507,4.8387,4.8334,4.8209,4.813,4.8321,4.8976,4.9382,4.9525,4.9525,4.959,4.959,4.959,4.959,4.959,4.959,4.959,4.959,4.959,4.959,4.959,4.959,4.959,4.959,4.959,4.959,4.959,4.959,4.959,4.959,4.959,4.959,4.959,4.959,4.959,4.959,4.959,4.959,4.959,2.6333,2.6439,2.6465,2.6465,2.6544,2.6781,2.7555,2.7712,0.0,2.9119,3.1622,3.3827,3.4053,3.6608,3.8574,3.8574,3.8574,3.8574,3.8574,3.8574,3.8711,0.0,3.916,3.9355,3.9746,3.9844,3.9902,3.9902,4.0137,4.0137,3.9785,3.9844,3.9902,3.9902,3.9902,3.9902,3.9902,3.9902,3.9902,3.9902,3.9902,3.9902,3.9902,3.9902,3.9902,3.9902,3.9902,3.9902,3.9902,3.9902,3.9902,3.9902,3.9902,3.9902,3.9902,3.9902,3.9902,3.9978,4.0184,4.0259,4.0724,4.3269,4.4283,4.471,4.6075,4.6634,4.7144,4.8431,4.8868,4.894,4.894,4.9012,4.906,4.8964,4.894,4.8984,4.8888,4.8797,4.8749,4.9215,4.924,4.9202,4.9202,4.9396,4.959,4.959,4.959,4.959,4.959,4.959,4.959,4.959,4.959,4.959,4.959,4.959,4.959,4.959,4.959,4.959,4.959,4.959,4.959,4.959,4.959,4.959,4.959,4.959,4.959,4.959,4.959,4.959,2.6386,2.6386,2.6386,2.6386,2.6386,2.6544,2.7175,0.0,0.0,2.8216,3.1045,3.3317,3.3203,3.5925,3.8242,3.8242,3.8418,3.8574,3.8574,3.8574,3.873,3.9141,3.9414,3.9746,4.0176,4.043,4.0566,4.0566,4.0742,4.0664,4.0254,4.043,4.0566,4.0566,4.0566,4.0566,4.0566,4.0566,4.0566,4.0566,4.0566,4.0566,4.0566,4.0566,4.0566,4.0566,4.0566,4.0566,4.0566,4.0566,4.0566,4.0566,4.0566,4.0566,4.0566,4.0566,4.0566,4.0566,4.0566,4.0566,4.0776,4.2235,4.293,4.3337,4.4041,4.5404,4.684,4.7632,4.8701,4.9493,4.9493,4.971,4.9854,4.9565,4.9277,4.9084,4.9084,4.914,4.9242,4.9444,4.9338,4.9232,4.9232,4.9271,4.9332,4.9332,4.9461,4.959,4.959,4.959,4.959,4.959,4.959,4.959,4.959,4.959,4.959,4.959,4.959,4.959,4.959,4.959,4.959,4.959,4.959,4.959,4.959,4.959,4.959,4.959,4.959,4.959,2.6386,2.6386,2.6386,2.6386,2.6386,2.6544,2.6953,2.7213,2.7558,2.7783,3.0215,3.2463,3.2599,3.5138,3.7455,0.0,3.8223,3.8476,3.8555,3.8574,3.8769,0.0,3.9668,0.0,4.0605,4.0976,4.1172,4.1172,4.1172,4.1035,4.0684,4.0996,4.1172,4.1172,4.1172,4.1172,4.1172,4.1172,4.1172,4.1172,4.1172,4.1172,4.1172,4.1172,4.1172,4.1172,4.1172,4.1172,4.1172,4.1172,4.1172,4.1172,4.1172,4.1172,4.1172,4.1172,4.1172,4.1172,4.1172,4.1172,4.1172,4.1172,4.1526,4.1976,4.2274,4.4052,4.6074,4.643,4.7745,4.9015,4.9015,4.9322,4.9557,4.911,4.9222,4.9352,4.8982,4.9325,4.9664,4.9664,4.9499,4.9334,4.9334,4.9323,4.9305,4.9271,4.9506,4.9676,4.9615,4.959,4.959,4.959,4.959,4.959,4.959,4.959,4.959,4.959,4.959,4.959,4.959,4.959,4.959,4.959,4.959,4.959,4.959,4.959,4.959,4.959,4.959,4.959,2.6386,2.6386,2.6386,2.6386,2.6386,2.6544,2.6953,0.0,2.6918,2.7663,2.9064,3.0595,3.2256,3.4036,3.5856,3.7637,3.7969,3.8125,3.8516,3.8574,3.8887,3.9726,0.0,0.0,4.1035,4.1152,4.1172,4.1172,4.1172,4.1152,4.1113,4.1152,4.1172,4.1172,4.1172,4.1172,4.1172,4.1172,4.1172,4.1172,4.1172,4.1172,4.1172,4.1172,4.1172,4.1172,4.1172,4.1172,4.1172,4.1172,4.1172,4.1172,4.1172,4.1172,4.1172,4.1172,4.1172,4.1172,4.1172,4.1172,4.1172,4.1172,4.1268,4.1577,4.2973,4.3559,4.4088,4.5561,4.6124,4.6293,4.6293,4.6337,4.6359,4.6315,4.8434,5.0174,4.8699,4.918,4.9851,4.9851,4.9717,4.9558,4.9558,4.9848,4.9988,4.9851,4.9818,4.9816,4.9601,4.959,4.959,4.959,4.959,4.959,4.959,4.959,4.959,4.959,4.959,4.959,4.959,4.959,4.959,4.959,4.959,4.959,4.959,4.959,4.959,4.959,4.959,4.959,2.6386,2.6386,2.6386,2.6386,2.6386,2.6425,2.6408,0.0,2.6562,2.6572,2.8074,2.9519,3.0099,3.2626,3.4947,3.5999,3.7163,3.8086,3.8516,3.8574,3.8906,3.9785,3.9902,0.0,0.0,4.1172,4.1172,4.1172,4.1172,4.1172,4.1172,4.1172,4.1172,4.1172,4.1172,4.1172,4.1172,4.1172,4.1172,4.1172,4.1172,4.1172,4.1172,4.1172,4.1172,4.1172,4.1172,4.1172,4.1172,4.1172,4.1172,4.1172,4.1172,4.1172,4.1172,4.1172,4.1172,4.1172,4.1172,4.1172,4.1172,4.1172,4.1172,4.1327,4.1907,4.2713,4.3608,4.4289,4.517,4.5915,4.5915,4.5915,4.5915,4.5915,4.6898,4.7631,4.6971,4.7931,4.8966,4.8966,4.9389,4.9749,4.9749,4.9757,4.9762,4.9768,4.9921,5.009,5.0223,4.999,4.9856,5.0092,4.9791,4.959,4.959,4.959,4.959,4.959,4.959,4.959,4.959,4.959,4.959,4.959,4.959,4.959,4.959,4.959,4.9766,5.0092,5.0092,5.0268,2.6386,2.6386,2.6386,2.6386,2.6319,2.6213,0.0,0.0,2.6044,2.5773,2.6994,2.8213,2.8547,3.1341,3.3854,3.4862,3.6504,3.793,3.8496,3.8574,3.8906,3.9785,0.0,4.0234,4.1094,4.1172,4.1172,4.1172,4.1172,4.1172,4.1172,4.1172,4.1172,4.1172,4.1172,4.1172,4.1172,4.1172,4.1172,4.1172,4.1172,4.1172,4.1172,4.1172,4.1172,4.1172,4.1172,4.1172,4.1172,4.1172,4.1172,4.1172,4.1172,4.1172,4.1172,4.1172,4.1172,4.1172,4.1172,4.1172,4.1172,4.1172,4.1172,4.1172,4.1172,4.1985,4.279,4.279,4.3629,4.4515,4.4515,4.4891,4.5095,4.4591,4.5266,4.5766,4.5319,4.6433,4.7704,4.8236,4.8894,4.9603,5.0049,5.0014,4.9907,4.9874,5.0055,5.0278,5.0511,5.0189,5.0099,5.0472,5.0187,4.9812,4.9615,4.959,4.959,4.959,4.959,4.959,4.959,4.959,4.9665,4.9841,4.9841,4.9916,5.0092,5.0092,5.0293,5.067,5.067,5.0971,2.6386,2.6386,2.6386,2.6386,2.6172,2.6037,2.6037,2.5504,2.5241,2.5616,2.5802,2.6444,2.8372,3.0233,3.2314,3.4592,3.6276,3.7598,3.8457,3.8574,3.8906,0.0,3.9902,4.0234,4.1094,4.1172,4.1172,4.1172,4.1172,4.1172,4.1172,4.1172,4.1172,4.1172,4.1172,4.1172,4.1172,4.1172,4.1172,4.1172,4.1172,4.1172,4.1172,4.1172,4.1172,4.1172,4.1172,4.1172,4.1172,4.1172,4.1172,4.1172,4.1172,4.1172,4.1172,4.1172,4.1172,4.1172,4.1172,4.1172,4.1172,4.1172,4.1172,4.1172,4.1172,4.1172,4.125,4.125,4.125,4.125,4.125,4.235,4.3172,4.1618,4.3629,4.5468,4.3835,4.4795,4.6381,4.8018,4.8308,4.8815,5.0388,5.0696,5.0644,5.0437,5.0409,5.0352,5.0155,5.0081,5.0216,5.062,5.0687,5.0373,4.969,4.959,4.959,4.959,4.959,4.959,4.959,4.959,4.9841,5.0393,5.0419,5.0695,5.1272,5.1272,5.1272,5.1272,5.1272,5.1574,2.6386,2.6239,2.6092,2.6092,2.5865,2.5598,2.5411,2.5211,2.5099,2.4972,2.5428,2.6019,2.659,2.9361,3.196,3.3298,3.5616,3.7598,0.0,0.0,0.0,3.9824,4.041,4.0879,4.1152,4.1172,4.1172,4.1172,4.1172,4.1172,4.1172,4.1172,4.1172,4.1172,4.1172,4.1172,4.1172,4.1172,4.1172,4.1172,4.1172,4.1172,4.1172,4.1172,4.1172,4.1172,4.1172,4.1172,4.1172,4.1172,4.1172,4.1172,4.1172,4.1172,4.1172,4.1172,4.1172,4.1172,4.1172,4.1172,4.1172,4.1172,4.1172,4.1172,4.1172,4.1172,4.1172,4.1172,4.1172,4.1172,4.1172,4.154,4.185,4.1327,4.1985,4.2503,4.2062,4.3172,4.444,4.4945,4.6824,4.8453,4.8982,4.9961,5.0718,5.0596,5.0572,5.064,5.0795,5.0523,5.0578,5.1191,5.0911,5.0697,5.077,5.0745,5.0745,5.0745,5.0745,5.0745,5.0745,5.0745,5.082,5.0996,5.0996,5.1096,5.1272,5.1272,5.1473,5.185,5.2226,5.2503,2.6052,2.5932,2.5785,2.5785,2.5571,2.5304,2.5117,2.4997,2.4863,2.4676,2.5152,2.5653,2.58,2.8788,3.1606,3.2646,3.533,3.7598,3.8457,0.0,0.0,4.0059,4.0742,4.1172,4.1172,4.1172,4.1172,4.1172,4.1172,4.1172,4.1172,4.1172,4.1172,4.1172,4.1172,4.1172,4.1172,4.1172,4.1172,4.1172,4.1172,4.1172,4.1172,4.1172,4.1172,4.1172,4.1172,4.1172,0.0,4.1172,4.1172,4.1172,4.1172,4.1172,4.1172,4.1172,4.1172,4.1172,4.1172,4.1172,4.1172,4.1172,4.1172,4.1172,4.1172,4.1172,4.1172,4.1172,4.1172,4.1172,4.1172,4.1172,4.1172,4.1172,4.1172,4.1172,4.1172,4.1907,4.279,4.34,4.5095,4.6677,4.7265,4.8766,4.9795,4.9795,5.0317,5.0767,5.0954,5.0734,5.0725,5.1349,5.1259,5.1265,5.1697,5.1456,5.1272,5.1272,5.1272,5.1272,5.1272,5.1272,5.1373,5.1599,5.1599,5.1699,5.19,5.19,5.2076,5.2427,5.2779,5.2929,0.0,2.5464,2.5478,2.5478,2.5264,2.505,2.505,2.4836,0.0,2.4636,2.4931,2.5299,2.5726,2.8516,3.1195,3.2574,3.5277,3.7494,3.8457,3.8965,3.957,4.0469,4.0918,4.1172,4.1172,4.1172,4.1172,4.1172,4.1172,4.1172,4.1172,4.1172,4.1172,4.1172,4.1172,4.1172,4.1172,4.1172,4.1172,4.1172,4.1172,4.1172,4.1172,4.1172,4.1172,4.1172,4.1172,4.1172,4.1172,4.1172,4.1172,4.1172,4.1172,4.1172,4.1172,4.1172,4.1172,4.1172,4.1172,4.1172,4.1172,4.1172,4.1172,4.1172,4.1172,4.1172,4.1172,4.1172,4.1172,4.1172,4.1172,4.1172,4.1172,4.1172,4.1172,4.1172,4.1172,4.1172,4.1618,4.3096,4.338,4.3987,4.5468,4.7045,4.8163,4.8163,4.9509,5.0554,5.0554,5.0625,5.0837,5.1141,5.1516,5.196,5.2377,5.1772,5.1398,5.1398,5.1398,5.1398,5.1398,5.1398,5.1649,5.2151,5.2176,5.2427,5.2929,5.2929,5.2929,5.2929,5.2929,5.2929,2.4836,0.0,2.5184,2.5184,2.4957,2.4743,0.0,2.469,2.4636,2.4636,2.4931,2.5299,2.5726,2.786,3.0268,3.2462,3.4558,3.656,3.835,3.9238,4.0059,4.0918,4.1113,4.1172,4.1172,4.1172,4.1172,4.1172,4.1172,4.1172,4.1172,4.1172,4.1172,4.1172,4.1172,4.1172,4.1172,4.1172,4.1172,4.1172,4.1172,4.1172,4.1172,4.1172,4.1172,4.1172,4.1172,4.1172,4.1172,4.1172,4.1172,4.1172,4.1172,4.1172,4.1172,4.1172,4.1172,4.1172,4.1172,4.1172,4.1172,4.1172,4.1172,4.1172,4.1172,4.1172,4.1172,4.1172,4.1172,4.1172,4.1172,4.1172,4.1172,4.1172,4.1172,4.1172,4.1172,4.1172,4.1327,4.1695,4.2734,4.3608,4.3987,4.5394,4.6433,4.6433,4.785,4.8838,4.8838,4.9961,5.0837,5.1141,5.1282,5.1656,5.2377,5.2473,5.2528,5.2528,5.2528,5.2528,5.2528,5.2528,5.2603,5.2729,5.2729,5.2804,5.2929,5.2929,5.2929,5.2929,5.2929,5.2929,2.4636,2.4756,2.4877,2.4877,2.4756,2.4636,2.4636,2.4636,2.4636,2.4636,2.4784,2.5119,2.5626,2.7305,2.9241,3.1301,3.3622,3.6182,0.0,0.0,4.043,4.1094,4.1172,4.1172,4.1172,4.1172,4.1172,4.1172,4.1172,4.1172,4.1172,4.1172,4.1172,4.1172,4.1172,4.1172,4.1172,4.1172,4.1172,4.1172,4.1172,4.1172,4.1172,4.1172,4.1172,4.1172,4.1172,4.1172,4.1172,4.1172,4.1172,4.1172,4.1172,4.1172,4.1172,4.1172,4.1172,4.1172,4.1172,4.1172,4.1172,4.1172,4.1172,4.1172,4.1172,4.1172,4.1172,4.1172,4.1172,4.1172,4.1172,4.1172,4.1172,4.1172,4.1172,4.1172,4.1172,4.1172,4.1172,4.1172,4.183,4.2427,4.2427,4.376,4.4795,4.4795,4.6137,4.7485,4.8236,4.9054,4.9938,5.0884,5.1095,5.1352,5.1796,5.2352,5.2723,5.2861,5.2929,5.2929,5.2929,5.2929,5.2929,5.2929,5.2929,5.2929,5.2929,5.2929,5.2929,5.2929,5.2929,5.2929,2.4636,2.4636,2.4636,2.4636,2.4636,2.4636,2.4636,2.4636,2.4649,2.469,2.4703,2.4871,2.563,2.6808,2.8253,2.9942,3.3031,3.6201,3.9182,4.0141,4.0684,4.1113,4.1172,4.1172,4.1172,4.1172,4.1172,4.1172,4.1172,4.1172,4.1172,4.1172,4.1172,4.1172,4.1172,4.1172,4.1172,4.1172,4.1172,4.1172,4.1172,4.1172,4.1172,4.1172,4.1172,4.1172,4.1172,4.1172,4.1172,4.1172,4.1172,4.1172,4.1172,4.1172,4.1172,4.1172,4.1172,4.1172,4.1172,4.1172,4.1172,4.1172,4.1172,4.1172,4.1172,4.1172,4.1172,4.1172,4.1172,4.1172,4.1172,4.1172,4.1172,4.1172,4.1172,4.1172,4.1172,4.1172,4.1172,4.1172,4.1172,4.1172,4.1172,4.2293,4.3172,4.3172,4.4515,4.6011,4.7411,4.8018,4.8838,5.0175,5.0813,5.1141,5.1211,5.1796,5.2352,5.2723,5.2861,5.2929,5.2929,5.2929,5.2929,5.2929,5.2929,5.2929,5.2929,5.2929,5.2929,5.2929,5.2929,5.2929,2.4636,2.4636,2.4636,2.4636,2.4636,2.4636,2.4636,2.4636,2.4703,2.4957,2.501,2.5254,2.593,2.6495,2.752,2.9868,3.3775,3.6936,3.805,3.951,4.0684,4.1113,4.1172,4.1172,4.1172,4.1172,4.1172,4.1172,4.1172,4.1172,4.1172,4.1172,4.1172,4.1172,4.1172,4.1172,4.1172,4.1172,4.1172,4.1172,4.1172,4.1172,4.1172,4.1172,4.1172,4.1172,4.1172,4.1172,4.1172,4.1172,4.1172,4.1172,4.1172,4.1172,4.1172,4.1172,4.1172,4.1172,4.1172,4.1172,4.1172,4.1172,4.1172,4.1172,4.1172,4.1172,4.1172,4.1172,4.1172,4.1172,4.1172,4.1172,4.1172,4.1172,4.1172,4.1172,4.1172,4.1172,4.1172,4.1172,4.1172,4.1172,4.1172,4.1405,4.154,4.154,4.2866,4.3987,4.4214,4.6581,4.8381,4.8598,4.9938,5.0884,5.1141,5.1282,5.1586,5.196,5.2585,5.2929,5.2929,5.2929,5.2929,5.2929,5.2929,5.2929,5.2929,5.2929,5.2929,5.2929,5.2929,5.2929,2.4636,2.4636,2.4676,2.4836,2.4877,2.4917,2.5077,2.5117,2.5144,2.5291,2.5317,2.5487,2.5936,2.6175,2.7206,2.9975,3.3398,3.6188,3.7654,3.9603,4.0957,4.1152,4.1172,4.1172,4.1172,4.1172,4.1172,4.1172,4.1172,4.1172,4.1172,4.1172,4.1172,4.1172,4.1172,4.1172,4.1172,4.1172,4.1172,4.1172,4.1172,4.1172,4.1172,4.1172,4.1172,4.1172,4.1172,4.1172,4.1172,4.1172,4.1172,4.1172,4.1172,4.1172,4.1172,4.1172,4.1172,4.1172,4.1172,4.1172,4.1172,4.1172,4.1172,4.1172,4.1172,4.1172,4.1172,4.1172,4.1172,4.1172,4.1172,4.1172,4.1172,4.1172,4.1172,4.1172,4.1172,4.1172,4.1172,4.1172,4.1172,4.1172,4.1172,4.1172,4.1172,4.1172,4.1773,4.258,4.338,4.4795,4.6063,4.6898,4.8453,4.9485,4.9628,5.0577,5.1376,5.1751,5.2099,5.2377,5.2654,5.2654,5.2723,5.2929,5.2929,5.2929,5.2929,5.2929,5.2929,5.2929,5.2929,5.2929,2.4636,2.469,2.481,2.5104,2.513,2.5157,2.5451,2.5518,2.5531,2.5598,2.5611,2.5732,2.6092,2.6291,2.7203,2.9695,3.2746,3.5367,3.7052,3.9578,4.1172,4.1172,4.1172,4.1172,4.1172,4.1172,4.1172,4.1172,4.1172,4.1172,4.1172,4.1172,4.1172,4.1172,4.1172,4.1172,4.1172,4.1172,4.1172,4.1172,4.1172,4.1172,4.1172,4.1172,4.1172,4.1172,4.1172,4.1172,4.1172,4.1172,4.1172,4.1172,4.1172,4.1172,4.1172,4.1172,4.1172,4.1172,4.1172,4.1172,4.1172,4.1172,4.1172,4.1172,4.1172,4.1172,4.1172,4.1172,4.1172,4.1172,4.1172,4.1172,4.1172,4.1172,4.1172,4.1172,4.1172,4.1172,4.1172,4.1172,4.1172,4.1172,4.1172,4.1172,4.1172,4.1172,4.1172,4.1618,4.279,4.3248,4.3987,4.517,4.6824,4.7872,4.8236,4.9676,5.0789,5.1471,5.1681,5.196,5.2238,5.2377,5.2515,5.2792,5.2861,5.2929,5.2929,5.2929,5.2929,5.2929,5.2929,5.2929,2.4636,2.4836,2.5117,2.5411,2.5277,2.5157,2.5451,2.5518,2.5585,2.5865,2.5919,2.6092,2.6653,2.7311,2.7934,2.8496,3.2034,3.4975,3.5409,3.8803,4.1172,4.1172,4.1172,4.1172,4.1172,4.1172,4.1172,4.1172,4.1172,4.1172,4.1172,4.1172,4.1172,4.1172,4.1172,4.1172,4.1172,4.1172,4.1172,4.1172,4.1172,4.1172,4.1172,4.1172,4.1172,4.1172,4.1172,4.1172,4.1172,4.1172,4.1172,4.1172,4.1172,4.1172,4.1172,4.1172,4.1172,4.1172,4.1172,4.1172,4.1172,4.1172,4.1172,4.1172,4.1172,4.1172,4.1172,4.1172,4.1172,4.1172,4.1172,4.1172,4.1172,4.1172,4.1172,4.1172,4.1172,4.1172,4.1172,4.1172,4.1172,4.1172,4.1172,4.1172,4.1172,4.1172,4.1172,4.125,4.1327,4.258,4.3532,4.3684,4.5095,4.6677,4.8163,4.8453,4.9126,5.0696,5.1401,5.182,5.182,5.2238,5.2446,5.2446,5.2723,5.2929,5.2929,5.2929,5.2929,5.2929,5.2929,5.2929,2.4863,2.4997,2.5197,2.5665,2.5705,2.5705,2.5985,2.6052,2.6146,2.644,2.6493,2.6613,2.7028,2.7499,2.7906,2.8359,3.1041,3.3645,3.5073,3.7755,4.0021,4.1094,4.1172,4.1172,4.1172,4.1172,4.1172,4.1172,4.1172,4.1172,4.1172,4.1172,4.1172,4.1172,4.1172,4.1172,4.1172,4.1172,4.1172,4.1172,4.1172,4.1172,4.1172,4.1172,4.1172,4.1172,4.1172,4.1172,4.1172,4.1172,4.1172,4.1172,4.1172,4.1172,4.1172,4.1172,4.1172,4.1172,4.1172,4.1172,4.1172,4.1172,4.1172,4.1172,4.1172,4.1172,4.1172,4.1172,4.1172,4.1172,4.1172,4.1172,4.1172,4.1172,4.1172,4.1172,4.1172,4.1172,4.1172,4.1172,4.1172,4.1172,4.1172,4.1172,4.1172,4.1172,4.1172,4.1172,4.1172,4.1695,4.2062,4.2062,4.3477,4.502,4.6677,4.7704,4.8526,4.9198,5.0388,5.119,5.1446,5.1586,5.1796,5.203,5.2169,5.2377,5.2585,5.2585,5.2723,5.2929,5.2929,5.2929,2.4997,2.5144,2.5331,2.5838,2.6026,2.6172,2.6466,2.6533,2.6587,2.6787,2.6974,2.7161,2.7362,2.7642,2.7926,2.8273,3.0476,3.2577,3.4115,3.678,3.904,4.0275,4.0841,4.1172,4.1172,4.1172,4.1172,4.1172,4.1172,4.1172,4.1172,4.1172,4.1172,4.1172,4.1172,4.1172,4.1172,4.1172,4.1172,4.1172,4.1172,4.1172,4.1172,4.1172,4.1172,4.1172,4.1172,4.1172,4.1172,4.1172,4.1172,4.1172,4.1172,4.1172,4.1172,4.1172,4.1172,4.1172,4.1172,4.1172,4.1172,4.1172,4.1172,4.1172,4.1172,4.1172,4.1172,4.1172,4.1172,4.1172,4.1172,4.1172,4.1172,4.1172,4.1172,4.1172,4.1172,4.1172,4.1172,4.1172,4.1172,4.1172,4.1172,4.1172,4.1172,4.1172,4.1172,4.1172,4.1172,4.1172,4.1172,4.1172,4.2139,4.34,4.5041,4.6137,4.7192,4.8236,4.9342,5.0246,5.1025,5.1141,5.1352,5.1586,5.1751,5.196,5.2238,5.2377,5.2515,5.2723,5.2861,5.2929,2.4997,2.5291,2.5585,2.5892,2.6172,2.6466,2.676,2.6827,2.6827,2.6827,2.7295,2.7696,2.7696,2.7949,2.8221,2.8221,3.0372,3.2098,3.2098,3.5816,3.8566,3.8566,4.0118,4.1172,4.1172,4.1172,4.1172,4.1172,4.1172,4.1172,4.1172,4.1172,4.1172,4.1172,4.1172,4.1172,4.1172,4.1172,4.1172,4.1172,4.1172,4.1172,4.1172,4.1172,4.1172,4.1172,4.1172,4.1172,4.1172,4.1172,4.1172,4.1172,4.1172,4.1172,4.1172,4.1172,4.1172,4.1172,4.1172,4.1172,4.1172,4.1172,4.1172,4.1172,4.1172,4.1172,4.1172,4.1172,4.1172,4.1172,4.1172,4.1172,4.1172,4.1172,4.1172,4.1172,4.1172,4.1172,4.1172,4.1172,4.1172,4.1172,4.1172,4.1172,4.1172,4.1172,4.1172,4.1172,4.1172,4.1172,4.1172,4.1172,4.1172,4.185,4.3324,4.3456,4.487,4.8091,4.8308,4.9054,5.0625,5.1025,5.1211,5.1211,5.1586,5.182,5.182,5.2169,5.2377,5.2377,5.2723,5.2929,2.5304,2.5598,2.5892,2.6186,2.6319,2.6466,2.676,2.6827,2.6934,2.7348,2.7749,2.8003,2.8003,2.8167,2.8221,2.8221,2.9062,3.0289,3.185,3.3463,3.5009,3.6557,3.7197,3.8011,3.9216,3.9374,3.9864,4.1094,4.1172,4.1172,4.1172,4.1172,4.1172,4.1172,4.1172,4.1172,4.1172,4.1172,4.1172,4.1172,4.1172,4.1172,4.1172,4.1172,4.1172,4.1172,4.1172,4.1172,4.1172,4.1172,4.1172,4.1172,4.1172,4.1172,4.1172,4.1172,4.1172,4.1172,4.1172,4.1172,4.1172,4.1172,4.1172,4.1172,4.1172,4.1172,4.1172,4.1172,4.1172,4.1172,4.1172,4.1172,4.1172,4.1172,4.1172,4.1172,4.1172,4.1172,4.1172,4.1172,4.1172,4.1172,4.1172,4.1172,4.1172,4.1172,4.1172,4.1172,4.1172,4.1172,4.1172,4.1172,4.1172,4.1405,4.183,4.2866,4.3911,4.487,4.7045,4.9054,5.0625,5.0837,5.0837,5.0837,5.0978,5.1119,5.1376,5.1516,5.1726,5.203,5.2377,5.2585,2.5438,2.5732,2.6026,2.6319,2.648,2.6667,2.7081,2.7175,2.7308,2.7776,2.81,2.8221,2.8221,2.8221,2.8221,2.8221,2.8571,2.923,3.0622,3.1768,3.2987,3.4522,3.5332,3.6236,3.7436,3.8152,3.904,4.0099,4.0841,4.1172,4.1172,4.1172,4.1172,4.1172,4.1172,4.1172,4.1172,4.1172,4.1172,4.1172,4.1172,4.1172,4.1172,4.1172,4.1172,4.1172,4.1172,4.1172,4.1172,4.1172,4.1172,4.1172,4.1172,4.1172,4.1172,4.1172,4.1172,4.1172,4.1172,4.1172,4.1172,4.1172,4.1172,4.1172,4.1172,4.1172,4.1172,4.1172,4.1172,4.1172,4.1172,4.1172,4.1172,4.1172,4.1172,4.1172,4.1172,4.1172,4.1172,4.1172,4.1172,4.1172,4.1172,4.1172,4.1172,4.1172,4.1172,4.1172,4.1172,4.1172,4.1172,4.1172,4.1172,4.1172,4.1172,4.2062,4.2866,4.3456,4.5319,4.7118,4.8766,5.0033,5.0696,5.0696,5.0696,5.0837,5.1025,5.1141,5.1282,5.1586,5.1935,5.2169,2.5438,2.5732,2.6026,2.6319,2.6627,2.7014,2.7575,2.7722,2.7816,2.8167,2.8221,2.8221,2.8221,2.8221,2.8221,2.8221,2.8487,2.874,2.8824,3.0538,3.1933,3.233,3.3789,3.5009,3.5672,3.7277,3.8408,3.8566,4.0197,4.1172,4.1172,4.1172,4.1172,4.1172,4.1172,4.1172,4.1172,4.1172,4.1172,4.1172,4.1172,4.1172,4.1172,4.1172,4.1172,4.1172,4.1172,4.1172,4.1172,4.1172,4.1172,4.1172,4.1172,4.1172,4.1172,4.1172,4.1172,4.1172,4.1172,4.1172,4.1172,4.1172,4.1172,4.1172,4.1172,4.1172,4.1172,4.1172,4.1172,4.1172,4.1172,4.1172,4.1172,4.1172,4.1172,4.1172,4.1172,4.1172,4.1172,4.1172,4.1172,4.1172,4.1172,4.1172,4.1172,4.1172,4.1172,4.1172,4.1172,4.1172,4.1172,4.1172,4.1172,4.1172,4.1172,4.1172,4.1773,4.3172,4.338,4.4138,4.5617,4.8766,5.0483,5.0483,5.0625,5.0696,5.0696,5.1025,5.1141,5.1141,5.1586,5.1751,2.5438,2.5732,2.6026,2.6319,2.6787,2.7268,2.7615,2.7883,2.8154,2.8207,2.8221,2.8221,2.8221,2.8221,2.8221,2.8221,2.8234,2.8403,2.874,2.923,2.9635,3.0136,3.0538,3.1437,3.3233,3.5009,3.67,3.8469,4.0197,4.1172,4.1172,4.1172,4.1172,4.1172,4.1172,4.1172,4.1172,4.1172,4.1172,4.1172,4.1172,4.1172,4.1172,4.1172,4.1172,4.1172,4.1172,4.1172,4.1172,4.1172,4.1172,4.1172,4.1172,4.1172,4.1172,4.1172,4.1172,4.1172,4.1172,4.1172,4.1172,4.1172,4.1172,4.1172,4.1172,4.1172,4.1172,4.1172,4.1172,4.1172,4.1172,4.1172,4.1172,4.1172,4.1172,4.1172,4.1172,4.1172,4.1172,4.1172,4.1172,4.1172,4.1172,4.1172,4.1172,4.1172,4.1172,4.1172,4.1172,4.1172,4.1172,4.1172,4.1172,4.1172,4.1172,4.1172,4.1327,4.1695,4.281,4.3684,4.3987,4.7118,4.8838,4.8838,5.0033,5.0696,5.0696,5.0767,5.0837,5.0837,5.1165,5.1352,2.5438,2.5732,2.6092,2.6667,2.7041,2.7375,2.7816,2.803,2.8221,2.8221,2.8221,2.8221,2.8221,2.8221,2.8221,2.8221,2.8221,2.8234,2.8487,2.8487,2.8655,2.9146,2.9146,2.9816,3.1369,3.3805,3.5897,3.7277,3.9707,4.1172,4.1172,4.1172,4.1172,4.1172,4.1172,4.1172,4.1172,4.1172,4.1172,4.1172,4.1172,4.1172,4.1172,4.1172,4.1172,4.1172,4.1172,4.1172,4.1172,4.1172,4.1172,4.1172,4.1172,4.1172,4.1172,4.1172,4.1172,4.1172,4.1172,4.1172,4.1172,4.1172,4.1172,4.1172,4.1172,4.1172,4.1172,4.1172,4.1172,4.1172,4.1172,4.1172,4.1172,4.1172,4.1172,4.1172,4.1172,4.1172,4.1172,4.1172,4.1172,4.1172,4.1172,4.1172,4.1172,4.1172,4.1172,4.1172,4.1172,4.1172,4.1172,4.1172,4.1172,4.1172,4.1172,4.1172,4.1172,4.1172,4.1907,4.2427,4.2427,4.4741,4.6751,4.8236,4.9126,4.9961,5.0696,5.0696,5.0696,5.0696,5.0908,5.0954,2.5424,2.5772,2.6213,2.7001,2.7228,2.7402,2.8033,2.8194,2.8221,2.8221,2.8221,2.8221,2.8221,2.8221,2.8221,2.8221,2.8221,2.8221,2.8221,2.8221,2.8318,2.8655,2.874,2.8992,2.9844,3.2839,3.5089,3.5833,3.8901,4.0841,4.1172,4.1172,4.1172,4.1172,4.1172,4.1172,4.1172,4.1172,4.1172,4.1172,4.1172,4.1172,4.1172,4.1172,4.1172,4.1172,4.1172,4.1172,4.1172,4.1172,4.1172,4.1172,4.1172,4.1172,4.1172,4.1172,4.1172,4.1172,4.1172,4.1172,4.1172,4.1172,4.1172,4.1172,4.1172,4.1172,4.1172,4.1172,4.1172,4.1172,4.1172,4.1172,4.1172,4.1172,4.1172,4.1172,4.1172,4.1172,4.1172,4.1172,4.1172,4.1172,4.1172,4.1172,4.1172,4.1172,4.1172,4.1172,4.1172,4.1172,4.1172,4.1172,4.1172,4.1172,4.1172,4.1172,4.1172,4.1172,4.1172,4.1172,4.1172,4.2427,4.4515,4.7411,4.8018,4.8982,5.027,5.0554,5.0696,5.0696,5.0696,5.0696,2.5358,2.5919,2.6413,2.6787,2.7068,2.7348,2.7682,2.7963,2.8221,2.8221,2.8221,2.8221,2.8221,2.8221,2.8221,2.8221,2.8221,2.8221,2.8221,2.8221,2.8221,2.8234,2.8305,2.8487,2.8908,3.1105,3.3315,3.5251,3.7596,3.9629,4.1094,4.1172,4.1172,4.1172,4.1172,4.1172,4.1172,4.1172,4.1172,4.1172,4.1172,4.1172,4.1172,4.1172,4.1172,4.1172,4.1172,4.1172,4.1172,4.1172,4.1172,4.1172,4.1172,4.1172,4.1172,4.1172,4.1172,4.1172,4.1172,4.1172,4.1172,4.1172,4.1172,4.1172,4.1172,4.1172,4.1172,4.1172,4.1172,4.1172,4.1172,4.1172,4.1172,4.1172,4.1172,4.1172,4.1172,4.1172,4.1172,4.1172,4.1172,4.1172,4.1172,4.1172,4.1172,4.1172,4.1172,4.1172,4.1172,4.1172,4.1172,4.1172,4.1172,4.1172,4.1172,4.1172,4.1172,4.1172,4.1172,4.1172,4.1172,4.1405,4.235,4.4138,4.6898,4.8381,4.8598,5.0033,5.0696,5.0696,5.0696,5.0696,2.5358,2.5825,2.6253,2.6707,2.7041,2.7348,2.7629,2.7923,2.8221,2.8221,2.8221,2.8221,2.8221,2.8221,2.8221,2.8221,2.8221,2.8221,2.8221,2.8221,2.8221,2.8221,2.8221,2.8403,2.874,3.0524,3.2314,3.3708,3.6539,3.8231,3.8249,4.0118,4.0763,3.9786,4.0685,4.1172,4.1172,4.1172,4.1172,4.1172,4.1172,4.0685,3.9786,3.9786,4.0275,4.1172,4.0197,3.9786,3.9786,3.9786,3.9786,3.9864,4.0841,4.1172,4.1172,4.1172,4.1172,4.1172,4.1172,4.1172,4.1172,4.1172,4.1172,4.1172,4.1172,4.1172,4.1172,4.1172,4.1172,4.1172,4.1172,4.1172,4.1172,4.1172,4.1172,4.1172,4.1172,4.1172,4.1172,4.1172,4.1172,4.1172,4.1172,4.1172,4.1172,4.1172,4.1172,4.1172,4.1172,4.1172,4.1172,4.1172,4.1172,4.1172,4.1172,4.1172,4.1172,4.1172,4.1172,4.1172,4.1172,4.1172,4.154,4.2216,4.444,4.6529,4.8308,4.8982,4.9818,5.0696,5.0696,5.0696,2.5371,2.5732,2.6079,2.6587,2.6934,2.7228,0.0,2.7816,2.814,2.8207,2.8221,2.8221,2.8221,2.8221,2.8221,2.8221,2.8221,2.8221,2.8221,2.8221,2.8221,2.8221,2.8221,2.8318,2.8655,2.9955,3.1159,3.2314,3.4992,3.6379,3.5833,3.8408,3.9295,3.7993,3.9629,4.0509,4.0509,4.1016,4.1016,4.0509,4.0509,3.9629,3.7914,3.7914,3.8645,3.9805,3.8487,3.7914,3.7914,3.7914,3.8231,3.8724,4.0021,4.0841,4.1172,4.1172,4.1172,4.1172,4.1172,4.1172,4.1172,4.1172,4.1172,4.1172,4.1172,4.1172,4.1172,4.1172,4.1172,4.1172,4.1172,4.1172,4.1172,4.1172,4.1172,4.1172,4.1172,4.1172,4.1172,4.1172,4.1172,4.1172,4.1172,4.1172,4.1172,4.1172,4.1172,4.1172,4.1172,4.1172,4.1172,4.1172,4.1172,4.1172,4.1172,4.1172,4.1172,4.1172,4.1172,4.1172,4.1172,4.1172,4.1172,4.1172,4.235,4.4289,4.7118,4.7485,4.8308,4.9509,4.9509,4.9509,2.5424,2.5732,0.0,2.6333,2.6627,2.6921,0.0,2.7509,2.7802,2.8167,2.8221,2.8221,2.8221,2.8221,2.8221,2.8221,2.8221,2.8221,2.8221,2.8221,2.8221,2.8221,2.8221,2.8234,2.8221,2.8642,2.9635,3.1324,3.2397,3.3626,3.5251,3.5914,3.6236,3.6155,3.7834,3.8724,3.8724,4.0353,4.0353,3.8724,3.8724,3.7834,3.6155,3.6155,3.6155,3.6236,3.6155,3.6155,3.6155,3.6155,3.7117,3.8645,3.8724,3.9786,4.1172,4.1172,4.1172,4.1172,4.1172,4.1172,4.1172,4.1172,4.1172,4.1172,4.1172,4.1172,4.1172,4.1172,4.1172,4.1172,4.1172,4.1172,4.1172,4.1172,4.1172,4.1172,4.1172,4.1172,4.1172,4.1172,4.1172,4.1172,4.1172,4.1172,4.1172,4.1172,4.1172,4.1172,4.1172,4.1172,4.1172,4.1172,4.1172,4.1172,4.1172,4.1172,4.1172,4.1172,4.1172,4.1172,4.1172,4.1172,4.1172,4.1172,4.125,4.2139,4.376,4.5244,4.6063,4.6137,4.6137,4.6137,2.4877,0.0,0.0,2.6039,2.6466,2.6894,2.7201,2.7495,2.7789,2.8167,2.8221,2.8221,2.8221,2.8221,2.8221,2.8221,2.8221,2.8221,2.8221,2.8221,2.8221,2.8221,2.8221,2.8221,2.8221,2.8318,2.881,2.9621,3.1091,3.1918,3.2031,3.4294,3.5187,3.4392,3.7117,3.9138,4.0275,4.0919,4.0919,4.0275,3.9119,3.7675,3.5994,3.488,3.374,3.269,3.269,3.3331,3.4311,3.4311,3.4717,3.5349,3.6477,3.7277,3.8047,3.9454,3.9945,4.008,4.1479,4.1973,4.1973,4.1973,4.1973,4.1973,4.1973,4.1973,4.1973,4.1973,4.1973,4.1973,4.1973,4.1973,4.1973,4.1973,4.1973,4.1973,4.1973,4.1562,4.1172,4.1172,4.1172,4.1172,4.1172,4.1172,4.1172,4.1172,4.1172,4.1172,4.1172,4.1172,4.1172,4.1172,4.1172,4.1172,4.1172,4.1172,4.1172,4.1172,4.1172,4.1172,4.1172,4.1172,4.1172,4.1172,4.1172,4.1985,4.3456,4.4063,4.487,4.5915,4.5915,4.5915,2.4529,0.0,0.0,0.0,2.6239,2.664,2.7028,2.7348,2.7642,2.7936,2.8154,2.8221,2.8221,2.8221,2.8221,2.8221,2.8221,2.8221,2.8221,2.8221,2.8221,2.8221,2.8221,2.8221,2.8221,2.8221,2.8305,2.8571,2.9788,3.0289,2.9747,3.2015,3.3315,3.3167,3.6155,3.8566,4.0275,4.0353,4.004,3.9471,3.7693,3.5914,3.4229,3.3144,3.2047,3.0993,3.111,3.1691,3.2541,3.2664,3.3042,3.3702,3.4949,3.5801,3.6487,3.7986,3.8807,3.9491,4.0272,4.1357,4.2261,4.1679,4.1921,4.2422,4.2422,4.2422,4.2422,4.2422,4.2422,4.2422,4.2422,4.2422,4.2422,4.2422,4.2422,4.2422,4.2422,4.1992,4.1601,4.1601,4.1601,4.1601,4.1601,4.1601,4.1601,4.1601,4.1601,4.1601,4.1601,4.1465,4.1387,4.1387,4.125,4.1172,4.1172,4.1172,4.1172,4.1172,4.1172,4.1172,4.1172,4.1172,4.1172,4.1172,4.1172,4.1695,4.2734,4.2734,4.3248,4.4289,4.4289,4.4591,0.0,0.0,0.0,0.0,0.0,0.0,2.668,0.0,2.7335,2.7642,2.7923,2.8221,2.8221,2.8221,2.8221,2.8221,2.8221,2.8221,2.8221,2.8221,2.8221,2.8221,2.8221,2.8221,2.8221,2.8221,2.8221,2.8221,2.8571,2.8824,2.8824,2.923,3.0455,3.2659,3.4847,3.6797,3.8566,3.8645,3.7773,3.6092,3.4246,3.2556,3.0944,3.1183,3.1329,3.1344,3.1666,3.1432,3.0792,3.1198,3.2311,3.3834,3.4166,3.5371,3.6792,3.6892,3.8053,3.9286,3.7657,3.9322,4.1959,4.0284,4.0971,4.2381,4.2381,4.2461,4.2461,4.2461,4.2461,4.2461,4.2461,4.2461,4.2461,4.2461,4.2461,4.2461,4.2461,4.2461,4.2461,4.2422,4.2422,4.2422,4.2422,4.2422,4.2422,4.2422,4.2422,4.2422,4.2422,4.207,4.1816,4.1816,4.1445,4.1211,4.1211,4.1211,4.1211,4.1191,4.1191,4.1191,4.1172,4.1172,4.1172,4.1172,4.1172,4.1172,4.1172,4.1172,4.1172,4.1172,4.1172,4.1985,2.3968,0.0,0.0,0.0,0.0,0.0,2.6426,0.0,2.7094,2.7589,2.7762,2.7883,2.8181,2.8221,2.8221,2.8221,2.8221,2.8221,2.8221,2.8221,2.8221,2.8221,2.8221,2.8221,2.8221,2.8221,2.8221,2.8221,2.8318,2.8487,2.874,2.923,3.0455,3.2659,3.4522,3.6459,3.8566,3.8645,3.8456,3.8186,3.4834,3.3338,3.3336,3.1863,3.1152,3.1167,3.1253,3.1024,3.061,3.1366,3.1737,3.1922,3.1996,3.2282,3.2895,3.4476,3.5577,3.6474,3.7488,3.8522,3.9533,4.0388,4.099,4.159,4.293,4.3359,4.3359,4.3359,4.3359,4.3359,4.3359,4.3359,4.3359,4.3359,4.3359,4.3359,4.3359,4.3359,4.3164,4.2539,4.2422,4.2422,4.2422,4.2422,4.2422,4.2422,4.2422,4.2422,4.2422,4.2324,4.2246,4.2246,4.2148,4.207,4.207,4.207,4.1953,4.1641,4.1621,4.1484,4.1191,4.1172,4.1172,4.1172,4.1172,4.1172,4.1172,4.1172,4.1172,4.1172,4.1172,4.1405,2.3741,2.4022,2.4409,2.4943,0.0,0.0,2.6146,0.0,0.0,2.7268,2.7428,2.7615,2.7896,2.7963,2.8003,2.8207,2.8221,2.8221,2.8221,2.8221,2.8221,2.8221,2.8221,2.8221,2.8221,2.8221,2.8221,2.8221,2.8221,2.8318,2.8571,2.8992,2.9802,3.1022,3.3626,3.574,3.7186,3.7186,3.7397,3.7965,3.396,3.2414,3.295,3.1656,3.105,3.105,3.109,3.106,3.0797,3.1409,3.1323,3.1064,3.1366,3.151,3.1612,3.3153,3.4343,3.531,3.5777,3.695,3.8408,3.9448,4.0397,4.1341,4.3112,4.3711,4.3711,4.3711,4.3711,4.3711,4.3711,4.3711,4.3711,4.3711,4.3711,4.3711,4.3711,4.3711,4.3555,4.3047,4.2969,4.2969,4.2969,4.2969,4.2969,4.2969,4.2969,4.2969,4.2969,4.2812,4.2695,4.2695,4.2539,4.2422,4.2422,4.2422,4.2324,4.207,4.207,4.1953,4.1699,4.1523,4.1426,4.1426,4.1269,4.1172,4.1172,4.1172,4.1172,4.1172,4.1172,4.1172,2.3754,2.3821,2.4008,2.4823,2.5251,0.0,2.5798,0.0,0.0,2.6774,2.7014,2.7308,2.7602,2.7655,2.7749,2.8127,2.8181,2.8194,2.8221,2.8221,2.8221,2.8221,2.8221,2.8221,2.8221,2.8221,2.8221,2.8221,2.8221,2.8221,2.8221,2.8571,2.874,2.8824,3.2412,3.4539,3.4965,3.4899,3.5278,3.6125,3.2226,3.0648,3.1138,3.0972,3.0835,3.0849,3.1114,3.124,3.1151,3.1151,3.1073,3.0951,3.1674,3.1966,3.1966,3.2498,3.3792,3.4972,3.3367,3.4916,3.7638,3.7809,3.9023,4.0734,4.2512,4.3112,4.3112,4.3112,4.3278,4.3361,4.3361,4.3361,4.3443,4.3609,4.3711,4.3711,4.3711,4.3711,4.3711,4.3711,4.3711,4.3711,4.3711,4.3711,4.3711,4.3711,4.3711,4.3711,4.3711,4.3379,4.3144,4.3144,4.2793,4.2558,4.2558,4.2558,4.2558,4.25,4.25,4.248,4.2422,4.207,4.1875,4.1875,4.1504,4.1289,4.125,4.1191,4.1172,4.1172,4.1172,4.1172,0.0,0.0,0.0,2.4623,2.4943,0.0,0.0,2.5705,2.6186,0.0,2.6707,2.7001,2.7295,2.7348,2.7442,2.7736,2.7789,2.7869,2.8194,2.8221,2.8221,2.8221,2.8221,2.8221,2.8221,2.8221,2.8221,2.8221,2.8221,2.8221,2.8221,2.8234,2.8487,2.8824,3.0925,3.2386,3.3073,3.2989,3.3314,3.4002,3.1352,3.0558,3.1236,3.0862,3.0623,3.0623,3.0678,3.0526,3.0182,3.0182,3.032,3.0712,3.1212,3.1418,3.1507,3.1966,3.2675,3.3279,3.294,3.3293,3.4055,3.551,3.6291,3.6896,3.875,3.926,3.926,3.926,4.0379,4.1509,4.1509,4.1509,4.1928,4.3361,4.3711,4.3711,4.3711,4.3711,4.3711,4.3711,4.3711,4.3711,4.3711,4.3711,4.3711,4.3711,4.3711,4.3711,4.3711,4.3633,4.3574,4.3574,4.3516,4.3457,4.3457,4.3457,4.332,4.2969,4.2949,4.2793,4.2441,4.2344,4.2305,4.2305,4.2226,4.2012,4.168,4.1348,4.1172,4.1172,4.1172,4.1172,0.0,0.0,0.0,2.4569,2.4863,0.0,0.0,0.0,2.5772,2.5919,2.6186,2.648,2.6774,2.6947,2.7134,2.7428,2.7482,2.7589,2.7883,2.8043,2.8221,2.8221,2.8221,2.8221,2.8221,2.8221,2.8221,2.8221,2.8221,2.8221,2.8221,2.8221,2.8318,2.8487,3.0349,3.1574,3.2154,3.2249,3.2663,3.333,3.1077,3.0287,3.0973,3.0437,3.0272,3.0272,3.0272,3.0093,2.9913,2.9913,3.0003,3.0361,3.1062,3.1315,3.1315,3.1877,3.2054,3.204,3.204,3.2232,3.2675,3.455,3.5336,3.5858,3.7638,3.8238,3.8408,3.9345,4.0295,4.1257,4.2095,4.2345,4.2595,4.3443,4.3711,4.3711,4.3711,4.3711,4.3711,4.3711,4.3711,4.3711,4.3711,4.3711,4.3711,4.3711,4.3711,4.3711,4.3711,4.3711,4.3711,4.3711,4.3711,4.3711,4.3711,4.3711,4.3613,4.3398,4.3398,4.3281,4.3066,4.2871,4.2656,4.2422,4.2422,4.2324,4.2109,4.1894,4.1582,4.1172,4.1172,4.1172,0.0,0.0,0.0,0.0,0.0,2.4997,0.0,0.0,0.0,0.0,0.0,0.0,0.0,0.0,0.0,2.7054,0.0,0.0,0.0,2.7789,0.0,2.8207,2.8221,2.8221,2.8221,2.8221,2.8221,2.8221,2.8221,2.8221,2.8221,2.8221,2.8221,2.8221,2.9846,3.0908,3.1224,3.1454,3.196,3.2719,3.0794,3.0093,3.0437,3.0093,2.9913,2.9913,2.9913,2.9913,2.9913,2.9913,2.9913,3.0093,3.0884,3.1151,3.124,3.1685,3.1596,3.1315,3.1315,3.1596,3.2232,3.3762,3.455,3.5265,3.6707,3.738,3.7895,3.9108,3.9872,4.0819,4.2262,4.2946,4.3278,4.3628,4.3711,4.3711,4.3711,4.3711,4.3711,4.3711,4.3711,4.3711,4.3711,4.3711,4.3711,4.3711,4.3711,4.3711,4.3711,4.3711,4.3711,4.3711,4.3711,4.3711,4.3711,4.3711,4.3711,4.3711,4.3711,4.3711,4.3711,4.3379,4.3027,4.2676,4.2676,4.2637,4.2558,4.2558,4.2168,4.1406,4.1328,4.1289,0.0,0.0,0.0,0.0,2.4863,2.469,0.0,0.0,2.513,2.513,0.0,0.0,0.0,0.0,0.0,0.0,0.0,0.0,2.6921,2.7175,0.0,2.8167,2.8221,2.8221,2.8221,2.8221,2.8221,2.8221,2.8221,2.8221,2.8221,2.8221,2.8221,2.8221,2.8614,2.8996,2.9292,2.9677,2.9974,3.0272,3.0003,2.9913,3.0003,2.9913,2.9913,2.9913,2.9913,2.9913,2.9913,2.9913,3.0182,3.0526,3.0616,3.0705,3.0705,3.124,3.1329,3.1315,3.1315,3.1596,3.2054,3.2232,3.2675,3.3117,3.3367,3.4581,3.5526,3.4143,3.6015,3.8579,3.875,4.0041,4.1677,4.3278,4.3711,4.3711,4.3711,4.3711,4.3711,4.3711,4.3711,4.3711,4.3711,4.3711,4.3711,4.3711,4.3711,4.3711,4.3711,4.3711,4.3711,4.3711,4.3711,4.3711,4.3711,4.3711,4.3711,4.3711,4.3711,4.3711,4.3711,4.3652,4.3613,4.3555,4.3555,4.3379,4.3008,4.3008,4.2754,4.2266,4.1894,4.1738,0.0,0.0,0.0,0.0,0.0,0.0,2.5144,0.0,2.5277,2.5117,0.0,0.0,0.0,0.0,0.0,0.0,2.6386,0.0,0.0,0.0,0.0,0.0,0.0,0.0,2.8207,2.8221,2.8221,2.8221,2.8221,2.8221,2.8221,2.8221,2.8221,2.8221,2.8604,2.8911,2.9045,2.9499,2.9793,2.9913,2.9913,2.9913,2.9913,2.9913,2.9913,2.9913,2.9913,2.9913,2.9913,2.9913,3.0003,3.0182,3.0182,3.0348,3.0616,3.0794,3.0705,3.0526,3.0526,3.0973,3.1685,3.2232,3.2586,3.2778,3.2778,3.3279,3.3968,3.4303,3.6188,3.8494,3.9533,4.1155,4.278,4.3526,4.3711,4.3711,4.3711,4.3711,4.3711,4.3711,4.3711,4.3711,4.3711,4.3711,4.3711,4.3711,4.3711,4.3711,4.3711,4.3711,4.3711,4.3711,4.3711,4.3711,4.3711,4.3711,4.3711,4.3711,4.3711,4.3711,4.3711,4.3711,4.3711,4.3711,4.3711,4.3613,4.3437,4.3437,4.334,4.3144,4.248,4.2168,2.6373,0.0,0.0,0.0,0.0,0.0,0.0,0.0,0.0,0.0,0.0,0.0,0.0,0.0,0.0,0.0,0.0,2.6199,0.0,0.0,0.0,0.0,0.0,0.0,0.0,2.8181,2.8221,2.8221,2.8221,2.8221,2.8221,2.8221,2.8221,2.8221,2.8644,2.8965,2.9045,2.9539,2.9833,2.9913,2.9913,2.9913,2.9913,2.9913,2.9913,2.9913,2.9913,2.9913,2.9913,2.9913,2.9913,2.9913,2.9913,3.0093,3.0437,3.0437,3.0182,2.9913,3.0093,3.0705,3.1596,3.2498,3.2689,3.2586,3.2778,3.2689,3.2852,3.4391,3.6102,3.7895,3.9787,4.1574,4.3112,4.3609,4.3711,4.3711,4.3711,4.3711,4.3711,4.3711,4.3711,4.3711,4.3711,4.3711,4.3711,4.3711,4.3711,4.3711,4.3711,4.3711,4.3711,4.3711,4.3711,4.3711,4.3711,4.3711,4.3711,4.3711,4.3711,4.3711,4.3711,4.3711,4.3711,4.3711,4.3711,4.3711,4.3711,4.3711,4.3711,4.3691,4.2949,4.2598,0.0,2.68,2.636,2.636,2.5932,2.5518,2.5518,0.0,2.5424,0.0,0.0,0.0,0.0,0.0,0.0,0.0,0.0,0.0,0.0,0.0,0.0,0.0,0.0,0.0,0.0,2.7976,2.8221,0.0,2.8221,2.8221,2.8221,2.8221,2.8221,2.8221,2.8457,2.8751,2.9032,2.9339,2.9633,2.9913,2.9913,2.9913,2.9913,2.9913,2.9913,2.9913,2.9913,2.9913,2.9913,2.9913,2.9913,2.9913,2.9913,2.9913,2.9913,2.9913,2.9913,3.0003,3.0451,3.1165,3.2054,3.2586,3.2409,3.2143,3.2675,3.2409,3.2143,3.2675,3.4143,3.6031,3.7809,3.9702,4.1509,4.3278,4.3711,4.3711,4.3711,4.3711,4.3711,4.3711,4.3711,4.3711,4.3711,4.3711,4.3711,4.3711,4.3711,4.3711,4.3711,4.3711,4.3711,4.3711,4.3711,4.3711,4.3711,4.3711,4.3711,4.3711,4.3711,4.3711,4.3711,4.3711,4.3711,4.3711,4.3711,4.3711,4.3711,4.3711,4.3711,4.3691,4.3262,4.3047,2.7549,2.7268,2.6974,2.6974,2.6667,2.6373,2.6373,0.0,0.0,0.0,0.0,0.0,0.0,0.0,0.0,0.0,0.0,0.0,0.0,0.0,0.0,0.0,0.0,0.0,0.0,0.0,0.0,0.0,2.8221,0.0,2.8221,2.8221,2.8221,2.8221,2.8444,2.8751,2.9032,2.9339,2.9633,2.9913,2.9913,2.9913,2.9913,2.9913,2.9913,2.9913,2.9913,2.9913,2.9913,2.9913,2.9913,2.9913,2.9913,2.9913,2.9913,2.9913,2.9913,3.0003,3.0437,3.0973,3.1596,3.1774,3.1685,3.1596,3.2143,3.2143,3.2143,3.2689,3.4055,3.5944,3.7724,3.9618,4.1425,4.3278,4.3711,4.3711,4.3711,4.3711,4.3711,4.3711,4.3711,4.3711,4.3711,4.3711,4.3711,4.3711,4.3711,4.3711,4.3711,4.3711,4.3711,4.3711,4.3711,4.3711,4.3711,4.3711,4.3711,4.3711,4.3711,4.3711,4.3711,4.3711,4.3711,4.3711,4.3711,4.3711,4.3711,4.3711,4.3711,4.3691,4.3555,4.3496,2.7856,2.7642,2.7415,2.7415,2.7201,2.6987,2.6987,2.6747,2.6466,0.0,0.0,0.0,0.0,0.0,0.0,0.0,0.0,0.0,0.0,2.5384,0.0,0.0,0.0,0.0,0.0,0.0,0.0,0.0,0.0,0.0,0.0,2.8221,2.8221,2.8221,2.8337,2.8631,2.9032,2.9232,2.9526,2.9913,2.9913,2.9913,2.9913,2.9913,2.9913,2.9913,2.9913,2.9913,2.9913,2.9913,2.9913,2.9913,2.9913,2.9913,2.9913,2.9913,3.0003,3.0182,3.0526,3.0884,3.1315,3.1315,3.1315,3.1404,3.1877,3.1966,3.21,3.2398,3.3451,3.4869,3.6464,3.7964,3.972,4.2178,4.278,4.278,4.278,4.3278,4.3526,4.2863,4.3278,4.3711,4.3711,4.3711,4.3711,4.3711,4.3711,4.3711,4.3711,4.3711,4.3711,4.3711,4.3711,4.3711,4.3711,4.3711,4.3711,4.3711,4.3711,4.3711,4.3711,4.3711,4.3711,4.3711,4.3711,4.3711,4.3711,4.3711,4.3711,4.3711,4.3711,4.3711]}]]